[[{"header":{"parameterUnit":"m.s-1","parameterCategory":1,"la1":30.6,"la2":29.2853,"lo1":-89.7004,"lo2":-87.6739,"dy":0.0162,"dx":0.0183,"nx":112,"ny":82,"refTime":"2023-03-06T18:00:00:Z","depth":0,"parameterNumber":2,"parameterNumberName":"U-component_of_WINDS"},"data":[0.0,0.0,0.0,0.0,0.0,0.0,0.0,0.0,0.0,0.0,0.0,0.0,0.0,0.0,0.0,0.0,0.0,0.0,0.0,0.0,0.0,0.0,0.0,0.0,0.0,0.0,0.0,0.0,0.0,0.0,0.0,0.0,0.0,0.0,0.0,0.0,0.0,0.0,0.0,0.0,0.0,0.0,0.0,0.0,0.0,0.0,0.0,0.0,0.0,0.0,0.0,0.0,0.0,0.0,0.0,0.0,0.0,0.0,0.0,0.0,0.0,0.0,0.0,0.0,0.0,0.0,0.0,0.0,0.0,0.0,0.0,0.0,0.0,0.0,0.0,0.0,0.0,0.0,0.0,0.0,0.0,0.0,0.0,0.0,0.0,0.0,0.0,0.0,0.0,0.0,-4.1005,-4.1276,-4.2027,-4.2507,-4.2497,-4.2331,-4.1861,-4.1048,0.0,0.0,0.0,0.0,0.0,0.0,0.0,0.0,0.0,0.0,0.0,0.0,0.0,0.0,0.0,0.0,0.0,0.0,0.0,0.0,0.0,0.0,0.0,0.0,0.0,0.0,0.0,0.0,0.0,0.0,0.0,0.0,0.0,0.0,0.0,0.0,0.0,0.0,0.0,0.0,0.0,0.0,0.0,0.0,0.0,0.0,0.0,0.0,0.0,0.0,0.0,0.0,0.0,0.0,0.0,0.0,0.0,0.0,0.0,0.0,0.0,0.0,0.0,0.0,0.0,0.0,0.0,0.0,0.0,0.0,0.0,0.0,0.0,0.0,0.0,0.0,0.0,0.0,0.0,0.0,0.0,0.0,0.0,0.0,0.0,0.0,0.0,0.0,0.0,0.0,0.0,0.0,0.0,0.0,0.0,0.0,0.0,0.0,0.0,0.0,0.0,0.0,0.0,0.0,-4.1471,-4.2947,-4.3829,-4.43,-4.431,-4.362,-4.2795,-4.1874,0.0,0.0,0.0,0.0,0.0,0.0,0.0,0.0,0.0,0.0,0.0,0.0,0.0,0.0,0.0,0.0,0.0,0.0,0.0,0.0,0.0,0.0,0.0,0.0,0.0,0.0,0.0,0.0,0.0,0.0,0.0,0.0,0.0,0.0,0.0,0.0,0.0,0.0,0.0,0.0,0.0,0.0,0.0,0.0,0.0,0.0,0.0,0.0,0.0,0.0,0.0,0.0,0.0,0.0,0.0,0.0,0.0,0.0,0.0,0.0,0.0,0.0,0.0,0.0,0.0,0.0,0.0,0.0,0.0,0.0,0.0,0.0,0.0,0.0,0.0,0.0,0.0,0.0,0.0,0.0,0.0,0.0,0.0,0.0,0.0,0.0,0.0,0.0,0.0,0.0,0.0,0.0,0.0,0.0,0.0,0.0,0.0,0.0,0.0,0.0,0.0,0.0,0.0,-4.083,-4.2092,-4.335,-4.4222,-4.4705,-4.4707,-4.3908,-4.3013,-4.211,-4.1241,0.0,0.0,0.0,0.0,0.0,0.0,0.0,0.0,0.0,0.0,0.0,0.0,0.0,0.0,0.0,0.0,0.0,0.0,0.0,0.0,0.0,0.0,0.0,0.0,0.0,0.0,0.0,0.0,0.0,0.0,0.0,0.0,0.0,0.0,0.0,0.0,0.0,0.0,0.0,0.0,0.0,0.0,0.0,0.0,0.0,0.0,0.0,0.0,0.0,0.0,0.0,0.0,0.0,0.0,0.0,0.0,0.0,0.0,0.0,0.0,0.0,0.0,0.0,0.0,0.0,0.0,0.0,0.0,0.0,0.0,0.0,0.0,0.0,0.0,0.0,0.0,0.0,0.0,0.0,0.0,0.0,0.0,0.0,0.0,0.0,0.0,0.0,0.0,0.0,0.0,0.0,0.0,0.0,0.0,0.0,0.0,0.0,0.0,0.0,0.0,0.0,0.0,-4.1976,-4.283,-4.3704,-4.4538,-4.5007,-4.5002,-4.4015,-4.3125,-4.2441,-4.1404,0.0,0.0,0.0,0.0,0.0,0.0,0.0,0.0,0.0,0.0,0.0,0.0,0.0,0.0,0.0,0.0,0.0,0.0,0.0,0.0,0.0,0.0,0.0,0.0,0.0,0.0,0.0,0.0,0.0,0.0,0.0,0.0,0.0,0.0,0.0,0.0,0.0,0.0,0.0,0.0,0.0,0.0,0.0,0.0,0.0,0.0,0.0,0.0,0.0,0.0,0.0,0.0,0.0,0.0,0.0,0.0,0.0,0.0,0.0,0.0,0.0,0.0,0.0,0.0,0.0,0.0,0.0,0.0,0.0,0.0,0.0,0.0,0.0,0.0,0.0,0.0,0.0,0.0,0.0,0.0,0.0,0.0,0.0,0.0,0.0,0.0,0.0,0.0,0.0,0.0,0.0,0.0,0.0,0.0,0.0,0.0,0.0,0.0,0.0,0.0,0.0,0.0,-4.2869,-4.3743,-4.4617,-4.5433,-4.5908,-4.59,-4.4367,-4.3361,-4.3313,-4.1737,0.0,0.0,0.0,0.0,0.0,0.0,0.0,0.0,0.0,0.0,0.0,0.0,0.0,0.0,0.0,0.0,0.0,0.0,0.0,0.0,0.0,0.0,0.0,0.0,0.0,0.0,0.0,0.0,0.0,0.0,0.0,0.0,0.0,0.0,0.0,0.0,0.0,0.0,0.0,0.0,0.0,0.0,0.0,0.0,0.0,0.0,0.0,0.0,0.0,0.0,0.0,0.0,0.0,0.0,0.0,0.0,0.0,0.0,0.0,0.0,0.0,0.0,0.0,0.0,0.0,0.0,0.0,0.0,0.0,0.0,0.0,0.0,0.0,0.0,0.0,0.0,0.0,0.0,0.0,0.0,0.0,0.0,0.0,0.0,0.0,0.0,0.0,0.0,0.0,0.0,0.0,0.0,0.0,0.0,0.0,0.0,0.0,0.0,0.0,0.0,0.0,0.0,-4.2966,-4.384,-4.4715,-4.5511,-4.5997,-4.6005,-4.4937,-4.4033,-4.3499,0.0,0.0,0.0,0.0,0.0,0.0,0.0,0.0,0.0,0.0,0.0,0.0,0.0,0.0,0.0,0.0,0.0,0.0,0.0,0.0,0.0,0.0,0.0,0.0,0.0,0.0,0.0,0.0,0.0,0.0,0.0,0.0,0.0,0.0,0.0,0.0,0.0,0.0,0.0,0.0,0.0,0.0,0.0,0.0,0.0,0.0,0.0,0.0,0.0,0.0,0.0,0.0,0.0,0.0,0.0,0.0,0.0,0.0,0.0,0.0,0.0,0.0,0.0,0.0,0.0,0.0,0.0,0.0,0.0,0.0,0.0,0.0,0.0,0.0,0.0,0.0,0.0,0.0,0.0,0.0,0.0,0.0,0.0,0.0,0.0,0.0,0.0,0.0,0.0,0.0,0.0,0.0,0.0,0.0,0.0,0.0,0.0,0.0,0.0,0.0,0.0,0.0,-4.2248,-4.3122,-4.3938,-4.5064,-4.5672,-4.6002,-4.6002,-4.5258,-4.4423,-4.3563,0.0,0.0,0.0,0.0,0.0,0.0,0.0,0.0,0.0,0.0,0.0,0.0,0.0,0.0,0.0,0.0,0.0,0.0,0.0,0.0,0.0,0.0,0.0,0.0,0.0,0.0,0.0,0.0,0.0,0.0,0.0,0.0,0.0,0.0,0.0,0.0,0.0,0.0,0.0,0.0,0.0,0.0,0.0,0.0,0.0,0.0,0.0,0.0,0.0,0.0,0.0,0.0,0.0,0.0,0.0,0.0,0.0,0.0,0.0,0.0,0.0,0.0,0.0,0.0,0.0,0.0,0.0,0.0,0.0,0.0,0.0,0.0,0.0,0.0,0.0,0.0,0.0,0.0,0.0,0.0,0.0,0.0,0.0,0.0,0.0,0.0,0.0,0.0,0.0,0.0,0.0,0.0,0.0,0.0,0.0,0.0,0.0,0.0,0.0,0.0,0.0,0.0,-4.3063,-4.3505,-4.4151,-4.5827,-4.6002,-4.6002,-4.6002,-4.5258,-4.4443,0.0,0.0,0.0,0.0,0.0,0.0,0.0,0.0,0.0,0.0,0.0,0.0,0.0,0.0,0.0,0.0,0.0,0.0,0.0,0.0,0.0,0.0,0.0,0.0,0.0,0.0,0.0,0.0,0.0,0.0,0.0,0.0,0.0,0.0,0.0,0.0,0.0,0.0,0.0,0.0,0.0,0.0,0.0,0.0,0.0,0.0,0.0,0.0,0.0,0.0,0.0,0.0,0.0,0.0,0.0,0.0,0.0,0.0,0.0,0.0,0.0,0.0,0.0,0.0,0.0,0.0,0.0,0.0,0.0,0.0,0.0,0.0,0.0,0.0,0.0,0.0,0.0,0.0,0.0,0.0,0.0,0.0,0.0,0.0,0.0,0.0,0.0,0.0,0.0,0.0,0.0,0.0,0.0,0.0,0.0,0.0,0.0,0.0,0.0,0.0,0.0,0.0,0.0,-4.3214,-4.4035,-4.4812,-4.5885,-4.6002,-4.6002,-4.6002,-4.5788,-4.5297,-4.4462,0.0,0.0,0.0,0.0,0.0,0.0,0.0,0.0,0.0,0.0,0.0,0.0,0.0,0.0,0.0,0.0,0.0,0.0,0.0,0.0,0.0,0.0,0.0,0.0,0.0,0.0,0.0,0.0,0.0,0.0,0.0,0.0,0.0,0.0,0.0,0.0,0.0,0.0,0.0,0.0,0.0,0.0,0.0,0.0,0.0,0.0,0.0,0.0,0.0,0.0,0.0,0.0,0.0,0.0,0.0,0.0,0.0,0.0,0.0,0.0,0.0,0.0,0.0,0.0,0.0,0.0,0.0,0.0,0.0,0.0,0.0,0.0,0.0,0.0,0.0,0.0,0.0,0.0,0.0,0.0,0.0,0.0,0.0,0.0,0.0,0.0,0.0,0.0,0.0,0.0,0.0,0.0,0.0,0.0,0.0,0.0,0.0,0.0,0.0,0.0,0.0,0.0,-4.3272,-4.454,-4.5589,-4.6424,-4.6832,-4.7045,-4.7045,-4.6715,-4.6152,-4.5336,0.0,0.0,0.0,0.0,0.0,0.0,0.0,0.0,0.0,0.0,0.0,0.0,0.0,0.0,0.0,0.0,0.0,0.0,0.0,0.0,0.0,0.0,0.0,0.0,0.0,0.0,0.0,0.0,0.0,0.0,0.0,0.0,0.0,0.0,0.0,0.0,0.0,0.0,0.0,0.0,0.0,0.0,0.0,0.0,0.0,0.0,0.0,0.0,0.0,0.0,0.0,0.0,0.0,0.0,0.0,0.0,0.0,0.0,0.0,0.0,0.0,0.0,0.0,0.0,0.0,0.0,0.0,0.0,0.0,0.0,0.0,0.0,0.0,0.0,0.0,0.0,0.0,0.0,0.0,0.0,0.0,0.0,0.0,0.0,0.0,0.0,0.0,0.0,0.0,0.0,0.0,0.0,0.0,0.0,0.0,0.0,0.0,0.0,0.0,0.0,0.0,0.0,-4.3413,-4.5084,-4.6424,-4.722,-4.8075,-4.8599,-4.8599,-4.7881,-4.7045,-4.6177,0.0,0.0,0.0,0.0,0.0,0.0,0.0,0.0,0.0,0.0,0.0,0.0,0.0,0.0,0.0,0.0,0.0,0.0,0.0,0.0,0.0,0.0,0.0,0.0,0.0,0.0,0.0,0.0,0.0,0.0,0.0,0.0,0.0,0.0,0.0,0.0,0.0,0.0,0.0,0.0,0.0,0.0,0.0,0.0,0.0,0.0,0.0,0.0,0.0,0.0,0.0,0.0,0.0,0.0,0.0,0.0,0.0,0.0,0.0,0.0,-3.7409,-3.7019,0.0,0.0,0.0,0.0,0.0,0.0,0.0,0.0,0.0,0.0,0.0,0.0,0.0,0.0,0.0,0.0,0.0,0.0,0.0,0.0,0.0,0.0,0.0,0.0,0.0,0.0,0.0,0.0,0.0,0.0,0.0,0.0,0.0,0.0,0.0,0.0,0.0,0.0,0.0,0.0,-4.4394,-4.5988,-4.7084,-4.7273,-4.8075,-4.8599,-4.8599,-4.8425,-4.7958,-4.7084,-4.621,0.0,0.0,0.0,0.0,0.0,0.0,0.0,0.0,0.0,0.0,0.0,0.0,0.0,0.0,0.0,0.0,0.0,0.0,0.0,0.0,0.0,0.0,0.0,0.0,0.0,0.0,0.0,0.0,0.0,0.0,0.0,0.0,0.0,0.0,0.0,0.0,0.0,0.0,0.0,0.0,0.0,0.0,0.0,0.0,0.0,0.0,0.0,0.0,0.0,0.0,0.0,0.0,0.0,0.0,0.0,0.0,0.0,0.0,0.0,-3.9026,-3.8246,0.0,0.0,0.0,0.0,0.0,0.0,0.0,0.0,0.0,0.0,0.0,0.0,0.0,0.0,0.0,0.0,0.0,0.0,0.0,0.0,0.0,0.0,0.0,0.0,0.0,0.0,0.0,0.0,0.0,0.0,0.0,0.0,0.0,0.0,0.0,0.0,0.0,0.0,0.0,0.0,-4.5258,-4.6887,-4.8097,-4.8505,-4.9324,-4.9843,-4.9843,-4.9473,-4.9027,-4.858,-4.7337,0.0,0.0,0.0,0.0,0.0,0.0,0.0,0.0,0.0,0.0,0.0,0.0,0.0,0.0,0.0,0.0,0.0,0.0,0.0,0.0,0.0,0.0,0.0,0.0,0.0,0.0,0.0,0.0,0.0,0.0,0.0,0.0,0.0,0.0,0.0,0.0,0.0,0.0,0.0,0.0,0.0,0.0,0.0,0.0,0.0,0.0,0.0,0.0,0.0,0.0,0.0,0.0,0.0,-3.9069,-3.963,-4.0464,-4.0464,-4.1224,-4.2413,-4.0289,-3.9221,-3.8948,-3.8792,0.0,0.0,0.0,0.0,0.0,0.0,0.0,0.0,0.0,0.0,0.0,0.0,0.0,0.0,0.0,0.0,0.0,0.0,0.0,0.0,0.0,0.0,-4.1887,-4.327,-4.3601,-4.2822,-4.0,0.0,0.0,0.0,0.0,0.0,0.0,0.0,0.0,0.0,0.0,0.0,-4.6122,-4.7787,-4.9109,-4.9828,-5.0675,-5.1202,-5.1202,-5.0542,-5.0062,-4.9906,-4.8541,-4.7298,0.0,0.0,0.0,0.0,0.0,0.0,0.0,0.0,0.0,0.0,0.0,0.0,0.0,0.0,0.0,0.0,0.0,0.0,0.0,0.0,0.0,0.0,0.0,0.0,0.0,0.0,0.0,0.0,0.0,0.0,0.0,0.0,-3.4497,-3.5367,0.0,0.0,0.0,0.0,0.0,0.0,0.0,0.0,0.0,0.0,0.0,0.0,0.0,-3.8056,-3.8056,-3.905,-3.9906,-4.0673,-4.1425,-4.2257,-4.3094,-4.3094,-4.3211,-4.3406,-4.3075,0.0,-4.0698,-3.9941,0.0,0.0,0.0,0.0,0.0,0.0,0.0,0.0,0.0,0.0,0.0,0.0,0.0,0.0,0.0,0.0,0.0,0.0,0.0,0.0,0.0,0.0,-4.3328,-4.3543,-4.3601,-4.3484,-4.3036,-4.2939,-4.2939,-4.2939,-4.2939,-4.2958,0.0,0.0,0.0,0.0,0.0,0.0,-4.712,-4.8691,-4.977,-4.9886,-5.0675,-5.1202,-5.1202,-5.1086,-5.0717,-4.9945,-4.9673,-4.8832,-4.7201,-4.6307,0.0,0.0,0.0,0.0,0.0,0.0,0.0,0.0,0.0,0.0,0.0,0.0,0.0,0.0,0.0,0.0,0.0,0.0,0.0,0.0,0.0,0.0,0.0,0.0,0.0,0.0,0.0,0.0,0.0,-3.4167,-3.5371,-3.5756,-3.5795,-3.5795,0.0,0.0,0.0,0.0,0.0,0.0,0.0,0.0,0.0,-3.8387,-3.9315,-3.98,-3.98,-4.1189,-4.2085,-4.2478,-4.2847,-4.3231,-4.3601,-4.3601,-4.3874,-4.4306,-4.3815,-4.3465,-4.3176,-4.2299,-4.1711,-4.1364,0.0,0.0,0.0,0.0,-4.1411,-4.1424,-4.1419,-4.1444,-4.1465,-4.1463,0.0,0.0,0.0,0.0,0.0,0.0,0.0,-4.2849,-4.407,-4.4712,-4.5183,-4.5689,-4.6176,-4.6527,-4.6527,-4.6527,-4.5942,-4.3971,-4.3601,-4.3601,-4.3601,-4.3601,0.0,0.0,0.0,-4.6847,-4.8639,-4.9506,-5.0145,-5.0636,-5.0986,-5.1211,-5.1211,-5.1194,-5.1047,-5.0658,-5.0178,-4.9557,-4.8794,-4.7453,-4.656,0.0,0.0,0.0,0.0,0.0,0.0,0.0,0.0,0.0,0.0,0.0,0.0,0.0,0.0,0.0,0.0,0.0,0.0,0.0,0.0,0.0,0.0,0.0,0.0,0.0,0.0,0.0,0.0,-3.4866,-3.5872,-3.6105,-3.6125,-3.6222,0.0,0.0,0.0,0.0,0.0,0.0,-3.9028,-3.9047,-3.9241,-3.9684,-4.0907,-4.1568,-4.1568,-4.2892,-4.3692,-4.3906,-4.3903,-4.4016,-4.423,-4.423,-4.4603,-4.5199,-4.4552,-4.4634,-4.5147,-4.4049,-4.3601,-4.3604,-4.3607,-4.3618,-4.3629,-4.3677,-4.369,-4.3699,-4.3691,-4.3691,-4.3709,-4.3704,-4.3701,-4.3701,-4.3701,0.0,0.0,0.0,0.0,-4.4577,-4.5637,-4.6385,-4.7033,-4.7676,-4.8319,-4.8806,-4.8806,-4.8806,-4.8027,-4.5432,-4.4926,-4.4926,-4.4926,-4.4926,0.0,-4.6663,-4.7033,-4.7852,-4.9761,-5.0194,-5.059,-5.1233,-5.123,-5.12,-5.12,-5.1192,-5.1194,-5.1194,-5.0586,-5.014,-4.9906,-4.8658,-4.7764,-4.7312,0.0,0.0,0.0,0.0,0.0,0.0,0.0,0.0,0.0,0.0,0.0,0.0,0.0,0.0,0.0,0.0,0.0,0.0,0.0,0.0,0.0,0.0,0.0,0.0,0.0,0.0,0.0,0.0,0.0,-3.6945,-3.7023,0.0,0.0,0.0,0.0,-3.8328,-3.8387,-3.9086,-4.0694,-4.0771,-4.1529,-4.3194,-4.333,-4.3369,-4.3369,-4.3457,-4.3918,-4.4739,-4.4742,-4.5164,-4.5962,-4.5962,-4.6033,-4.6131,-4.6092,-4.6084,-4.6004,-4.4302,-4.3601,-4.3604,-4.3607,-4.3648,-4.3708,-4.37,-4.3701,-4.3691,-4.3691,-4.3708,-4.3696,-4.3695,-4.3695,-4.3695,-4.3695,-4.3708,0.0,0.0,-4.6067,-4.6453,-4.8152,-4.8646,-4.867,-4.8729,-4.8768,-4.8806,-4.8806,-4.8806,-4.8748,-4.8573,-4.8534,-4.8534,-4.8534,0.0,-4.8573,-4.8651,-4.9313,-4.9859,-4.9976,-5.0719,-5.1252,-5.131,-5.1244,-5.1206,-5.1206,-5.1205,-5.1208,-5.1208,-5.1161,-5.0755,-4.9926,-4.9829,-4.8988,-4.7331,-4.7215,0.0,0.0,0.0,0.0,0.0,0.0,0.0,0.0,0.0,0.0,0.0,0.0,0.0,0.0,0.0,0.0,0.0,0.0,0.0,0.0,0.0,0.0,0.0,0.0,0.0,0.0,0.0,0.0,-3.7819,-3.794,0.0,-3.8367,-3.9377,-4.0014,-4.0014,-4.1043,-4.1937,-4.2539,-4.2578,-4.2869,-4.3486,-4.4035,-4.4345,-4.4345,-4.49,-4.5337,-4.5633,-4.5637,-4.6093,-4.6949,-4.6947,-4.7267,-4.7821,-4.7856,-4.7868,-4.7832,-4.7209,-4.6293,-4.5264,-4.5273,-4.5294,-4.5312,-4.5353,-4.5737,-4.621,-4.6209,-4.6576,-4.7038,-4.6991,-4.6986,-4.6986,-4.6977,-4.6973,-4.7101,-4.7705,-4.7866,-4.8012,-4.8646,-4.918,-4.9566,-4.9566,-4.9995,-5.0404,-5.0404,-5.0404,-5.0404,-5.0404,-4.9547,-4.8806,-4.8806,-4.8806,-4.8982,-4.9488,-4.982,-5.0209,-5.0755,-5.1117,-5.1308,-5.1308,-5.1291,-5.1254,-5.1254,-5.1215,-5.1194,-5.1194,-5.12,-5.1066,-5.0755,-5.0198,-4.9615,-4.8988,-4.7881,-4.7007,0.0,0.0,0.0,0.0,0.0,0.0,0.0,0.0,0.0,0.0,0.0,0.0,0.0,0.0,0.0,0.0,0.0,0.0,0.0,0.0,0.0,0.0,0.0,0.0,0.0,-3.6984,-3.7858,-3.8732,-3.9082,-3.9358,-3.9649,-4.0946,-4.1781,-4.1781,-4.285,-4.3622,-4.3918,-4.3938,-4.4054,-4.4326,-4.5181,-4.5647,-4.5647,-4.6503,-4.6941,-4.6941,-4.6946,-4.7247,-4.7811,-4.7838,-4.8148,-4.8697,-4.8752,-4.8783,-4.8806,-4.8806,-4.8125,-4.708,-4.7072,-4.7072,-4.7088,-4.7154,-4.7536,-4.8047,-4.8043,-4.843,-4.8897,-4.8846,-4.8823,-4.8839,-4.8803,-4.8796,-4.8864,-4.9153,-4.9218,-4.9269,-4.957,-5.0034,-5.0443,-5.0443,-5.0872,-5.13,-5.13,-5.13,-5.13,-5.13,-5.0404,-4.9644,-4.9644,-4.9644,-4.982,-5.0365,-5.0443,-5.0657,-5.1222,-5.13,-5.13,-5.13,-5.1308,-5.13,-5.13,-5.1235,-5.1205,-5.1205,-5.1206,-5.1202,-5.1202,-5.0658,-5.0198,-4.9906,-4.8483,-4.7589,-4.7293,0.0,0.0,0.0,0.0,0.0,0.0,0.0,0.0,0.0,0.0,0.0,0.0,0.0,0.0,0.0,0.0,0.0,0.0,0.0,0.0,0.0,0.0,0.0,-3.7023,-3.7897,-3.8771,-3.9664,-4.048,-4.1276,-4.2155,-4.3025,-4.3544,-4.3544,-4.3563,-4.3957,-4.4792,-4.4851,-4.5239,-4.6021,-4.689,-4.7331,-4.7331,-4.8172,-4.8599,-4.8599,-4.8607,-4.8603,-4.8642,-4.8711,-4.8758,-4.8779,-4.8779,-4.883,-4.8884,-4.8884,-4.8884,-4.8869,-4.8824,-4.8806,-4.8803,-4.8871,-4.8903,-4.8945,-4.8961,-4.8978,-4.8977,-4.899,-4.8987,-4.8965,-4.8903,-4.8886,-4.9067,-4.991,-5.0088,-5.0248,-5.1086,-5.13,-5.13,-5.13,-5.13,-5.13,-5.13,-5.13,-5.13,-5.13,-5.13,-5.13,-5.13,-5.13,-5.13,-5.13,-5.13,0.0,-5.13,-5.13,-5.13,-5.13,-5.13,-5.13,-5.13,-5.1239,-5.1211,-5.1211,-5.1197,-5.1202,-5.1202,-5.1202,-5.0794,-4.9926,-4.9066,-4.8211,-4.7331,0.0,0.0,0.0,0.0,0.0,0.0,0.0,0.0,0.0,0.0,0.0,0.0,0.0,0.0,0.0,0.0,0.0,0.0,0.0,0.0,0.0,-3.6692,-3.7761,-3.8018,-3.879,-3.9878,-4.1335,-4.1704,-4.217,-4.3063,-4.3938,-4.4443,-4.4443,-4.4986,-4.5414,-4.5672,-4.6268,-4.6715,-4.6948,-4.7784,-4.825,-4.825,-4.8483,-4.8599,-4.8599,-4.8607,-4.8934,-4.9536,-4.9605,-4.9997,-5.059,-5.0583,-5.0595,-5.0618,-5.0618,-5.0618,-5.0486,-4.9273,-4.8806,-4.8801,-4.8826,-4.9233,-4.9863,-5.0488,-5.0701,-5.0714,-5.0708,-5.0707,-5.0702,-5.0689,-5.0695,-5.0725,-5.0926,-5.0954,-5.1008,-5.1242,-5.13,-5.13,-5.13,-5.13,-5.13,-5.13,-5.13,-5.13,-5.13,-5.13,-5.13,-5.13,-5.13,-5.13,-5.13,-5.13,-5.13,-5.13,-5.13,-5.13,-5.13,-5.13,-5.13,-5.13,-5.1239,-5.1211,-5.1211,-5.1197,-5.1202,-5.1202,-5.1202,-5.0794,-4.9926,-4.9654,-4.9104,0.0,0.0,0.0,0.0,0.0,0.0,0.0,0.0,0.0,0.0,0.0,0.0,0.0,0.0,0.0,0.0,0.0,0.0,0.0,0.0,0.0,0.0,-3.8091,-3.9451,-3.9451,-4.0208,-4.1238,-4.2597,-4.3063,-4.3491,-4.3996,-4.4812,-4.5297,-4.5297,-4.6074,-4.654,-4.654,-4.7376,-4.7842,-4.7842,-4.8696,-4.9143,-4.9143,-4.951,-4.969,-4.969,-4.9727,-4.9999,-5.0486,-5.0527,-5.0817,-5.1304,-5.1296,-5.13,-5.13,-5.13,-5.13,-5.1207,0.0,0.0,0.0,0.0,-5.0206,-5.0721,-5.121,-5.1406,-5.1404,-5.1397,-5.1394,-5.1408,-5.1411,-5.1394,-5.1388,-5.1312,-5.13,-5.13,-5.13,-5.13,-5.13,-5.13,-5.13,-5.13,-5.13,-5.13,-5.13,-5.13,-5.13,0.0,-5.13,-5.13,-5.13,-5.13,-5.13,-5.13,-5.13,-5.13,-5.13,-5.13,-5.13,-5.13,-5.13,-5.1239,0.0,0.0,0.0,-5.1202,-5.1202,-5.1202,0.0,0.0,0.0,-5.0017,-4.9143,-4.9143,0.0,0.0,-4.7084,-4.7353,0.0,0.0,0.0,0.0,0.0,0.0,0.0,0.0,0.0,0.0,0.0,0.0,0.0,0.0,0.0,0.0,-3.9431,-4.1005,-4.1296,-4.2015,-4.2772,-4.3549,-4.4326,-4.4831,-4.4928,-4.5666,-4.6157,-4.6157,-4.6948,-4.7453,-4.7453,-4.8269,0.0,0.0,0.0,-5.0042,-5.0042,-5.0809,-5.1194,-5.1194,-5.1269,-5.131,-5.1291,-5.1292,-5.13,-5.13,-5.13,-5.13,-5.13,-5.13,-5.13,-5.13,-5.1303,-5.1343,-5.1403,-5.1398,-5.1391,-5.1398,-5.1403,0.0,0.0,-5.1402,-5.1398,-5.1393,-5.1391,-5.1394,-5.1385,-5.1312,-5.13,-5.13,-5.13,-5.13,-5.13,-5.13,-5.13,-5.13,-5.13,-5.13,-5.13,-5.13,-5.13,-5.13,-5.13,-5.13,-5.13,-5.13,-5.13,-5.13,-5.13,-5.13,-5.13,-5.13,-5.13,0.0,-5.13,-5.1239,-5.1211,-5.1211,-5.1197,-5.1202,-5.1202,-5.1202,-5.1202,-5.1202,-5.1202,-5.0814,-5.0042,-5.0042,-4.9648,-4.8885,-4.8696,-4.8623,0.0,0.0,0.0,0.0,0.0,0.0,0.0,0.0,0.0,0.0,0.0,0.0,0.0,0.0,0.0,-3.9917,-4.0577,-4.1646,-4.3743,-4.419,-4.4365,-4.452,-4.4695,-4.5045,-4.571,-4.654,-4.7045,-4.7045,-4.7861,-4.8347,-4.8347,-4.9182,-4.9654,-4.9654,-5.0484,-5.095,-5.095,-5.112,-5.1194,-5.1194,-5.1269,0.0,-5.1291,-5.1292,-5.13,-5.13,-5.13,-5.13,-5.13,-5.13,-5.13,-5.13,-5.1303,-5.1333,-5.1394,-5.1403,-5.1398,-5.1393,-5.1398,-5.1402,-5.1405,-5.1402,-5.1395,-5.1407,-5.1408,-5.1366,0.0,-5.1308,-5.13,-5.13,-5.13,-5.13,-5.13,-5.13,-5.13,-5.13,-5.13,-5.13,-5.13,-5.13,-5.13,-5.13,-5.13,-5.13,-5.13,-5.13,-5.13,-5.13,-5.13,-5.13,-5.13,-5.13,-5.13,-5.13,-5.13,-5.1239,-5.1211,-5.1211,-5.1197,-5.1202,-5.1202,-5.1202,-5.1202,-5.1202,-5.1202,-5.1125,-5.095,-5.095,-5.0841,-5.0584,-4.9229,-4.8946,0.0,0.0,0.0,0.0,0.0,0.0,0.0,0.0,0.0,0.0,0.0,-3.6065,0.0,0.0,-3.9936,-4.0752,-4.1995,-4.3316,-4.4617,-4.5142,-4.5394,-4.5394,-4.5394,-4.5725,-4.656,-4.7045,-4.7473,-4.792,-4.8755,-4.924,-4.924,-5.0076,-5.0542,-5.0542,-5.0969,-5.1208,-5.1206,-5.1194,-5.122,-5.1254,-5.1287,-5.1304,-5.1304,-5.1296,-5.13,-5.13,-5.13,-5.13,-5.13,-5.13,-5.13,-5.13,-5.1303,-5.1346,-5.1408,-5.1396,-5.141,-5.1403,-5.1395,-5.14,-5.1404,-5.1403,-5.1395,-5.1405,-5.1408,-5.1346,-5.1307,-5.1304,-5.13,-5.13,-5.13,-5.13,-5.13,-5.13,-5.13,-5.13,-5.13,-5.13,-5.13,-5.13,-5.13,-5.1437,-5.1885,-5.1943,-5.1807,-5.1378,-5.13,-5.13,-5.13,-5.13,-5.1476,-5.1904,-5.1943,-5.2138,-5.2567,-5.2543,-5.2485,-5.2453,-5.2444,-5.2445,-5.2445,-5.2037,-5.1804,-5.1804,-5.1416,-5.1202,-5.1202,-5.1202,-5.1165,-5.1076,-5.024,-5.0047,0.0,0.0,0.0,0.0,0.0,0.0,0.0,0.0,-3.4389,-3.5882,-3.6386,-3.702,-3.8534,-4.0082,-4.1257,-4.1607,-4.3433,-4.4851,-4.5006,-4.5594,-4.606,-4.623,-4.6249,-4.6521,-4.724,-4.7609,-4.8094,-4.8794,-4.9648,-5.0159,-5.0159,-5.0814,-5.1202,-5.1202,-5.1208,-5.1206,-5.1189,-5.1201,-5.1249,-5.131,-5.1288,-5.13,-5.13,-5.13,-5.13,-5.13,-5.13,-5.13,-5.13,-5.13,-5.13,-5.1308,-5.1307,-5.1343,-5.14,-5.1394,-5.1408,-5.14,-5.1395,-5.1399,-5.1403,-5.1402,-5.1393,-5.14,-5.1383,-5.134,-5.1303,-5.1304,-5.13,-5.13,-5.13,-5.13,-5.13,-5.13,-5.13,-5.13,-5.13,-5.1437,-5.1554,-5.1554,-5.169,-5.2041,-5.2723,-5.2859,-5.2606,-5.1904,-5.1807,-5.1807,-5.1807,-5.1807,-5.208,-5.2781,-5.2859,-5.3128,-5.3821,-5.3823,-5.3777,-5.3695,-5.3695,-5.3695,-5.3695,-5.3028,-5.264,-5.264,-5.2018,-5.1688,-5.1688,-5.1688,-5.165,-5.1593,-5.1593,-5.1386,-3.116,-3.1273,-3.2066,-3.292,-3.3743,-3.4561,0.0,0.0,-3.6929,-3.7826,-3.8675,-3.9543,-4.0437,-4.1393,-4.2563,-4.4112,-4.4617,-4.5045,-4.5769,-4.5944,-4.6288,-4.7065,-4.7143,-4.7201,-4.7293,-4.8696,-4.9654,-4.9751,-5.0561,-5.1047,-5.1047,-5.1144,-5.1202,-5.1202,-5.1192,-5.1208,-5.1194,-5.1264,-5.1287,-5.131,-5.1288,-5.13,-5.13,-5.13,-5.13,-5.13,-5.13,-5.13,-5.13,-5.13,-5.1292,-5.131,-5.1291,-5.1333,-5.1396,-5.1399,-5.1392,-5.1409,-5.1396,-5.1403,-5.1406,-5.1397,-5.14,-5.1396,-5.1327,-5.13,-5.1304,-5.13,-5.13,-5.13,-5.13,-5.13,-5.13,-5.13,-5.13,-5.13,-5.13,-5.1904,-5.245,-5.245,-5.3073,-5.3638,-5.3732,-5.3751,-5.3712,-5.3615,-5.3619,-5.3619,-5.3619,-5.3619,-5.3658,-5.3732,-5.3751,-5.3777,-5.3813,-5.3803,-5.3777,-5.3695,-5.3695,-5.3695,-5.3695,-5.3617,-5.3559,-5.3559,-5.3481,-5.3423,-5.3423,-5.3423,-5.3385,-5.3318,-5.3318,-5.2501,-3.1642,-3.2438,-3.3662,0.0,-3.5383,-3.6233,-3.7107,-3.7592,-3.8097,-3.8932,-3.9422,-4.0111,-4.1412,-4.2364,-4.3355,0.0,-4.5181,-4.5613,-4.5944,-4.6002,-4.6327,-4.7201,-4.7745,-4.8269,-4.8755,-4.9479,-5.012,-5.0619,-5.0989,-5.1202,-5.1202,-5.12,-5.1192,-5.1192,-5.12,-5.122,-5.1259,-5.1297,-5.1295,-5.1308,-5.1296,-5.13,-5.13,-5.13,-5.13,-5.13,-5.13,-5.13,-5.13,-5.1296,-5.1303,-5.1294,-5.1336,-5.1389,-5.1399,-5.1399,-5.1394,-5.1391,-5.14,-5.1405,-5.1406,-5.1391,-5.1392,-5.1394,-5.1323,-5.13,-5.13,-5.13,-5.13,-5.13,-5.13,-5.13,-5.13,-5.13,-5.169,-5.206,-5.206,-5.2742,-5.3366,-5.3366,-5.3654,-5.4063,-5.4569,-5.4667,-5.4827,-5.5333,-5.4554,-5.3907,-5.3907,-5.3907,-5.4082,-5.4589,-5.5119,-5.5394,-5.5321,-5.5316,-5.5275,-5.521,-5.5204,-5.5204,-5.5204,-5.4737,-5.4465,-5.4465,-5.3967,-5.3695,-5.3695,-5.3695,-5.3689,-5.3656,-5.3608,-5.3211,-3.2551,-3.3759,-3.5061,-3.5931,-3.6809,-3.7683,-3.8557,-3.8751,-3.9004,-3.9858,-4.0033,-4.048,-4.1922,-4.2908,-4.3802,-4.4656,-4.5472,-4.6002,-4.6002,-4.621,-4.6676,-4.755,-4.8425,-4.9304,-5.017,-5.0256,-5.0522,-5.1144,-5.1202,-5.1202,-5.1194,-5.1197,-5.1194,-5.12,-5.1225,-5.1249,-5.131,-5.1295,-5.1304,-5.13,-5.13,-5.13,-5.13,-5.13,-5.13,-5.13,-5.13,-5.1304,-5.1292,-5.1307,-5.1317,-5.133,-5.1372,-5.1403,-5.1408,-5.1408,-5.14,-5.1394,-5.1404,-5.1406,-5.1404,-5.1402,-5.1381,-5.1364,-5.1314,-5.1292,-5.13,-5.13,-5.13,-5.13,-5.13,-5.1476,-5.1671,-5.1671,-5.2314,-5.2957,-5.2957,-5.3638,-5.4258,-5.4258,-5.4457,-5.4827,-5.545,-5.5567,-5.5762,-5.6409,-5.5431,-5.4613,-5.4613,-5.4613,-5.4866,-5.5489,-5.6113,-5.647,-5.6407,-5.6391,-5.637,-5.6291,-5.6298,-5.6291,-5.6291,-5.5689,-5.5359,-5.5359,-5.4737,-5.4413,-5.4413,-5.4413,-5.4414,-5.4394,-5.4333,-5.4316,0.0,0.0,-3.5969,-3.6848,-3.7722,-3.86,-3.947,-3.966,-3.9897,-4.0694,-4.0869,-4.114,-4.2039,-4.2908,-4.3802,-4.4656,-4.5472,-4.6002,-4.6002,-4.6735,-4.7589,-4.8463,-4.9324,-5.0209,0.0,-5.1161,-5.1163,-5.1202,-5.1202,-5.1194,-5.1208,-5.1189,-5.1205,-5.1206,-5.1254,-5.1306,-5.131,-5.1308,-5.13,-5.13,-5.13,-5.13,-5.13,-5.13,-5.13,-5.13,-5.13,-5.1292,-5.1291,-5.1294,-5.1333,-5.1396,-5.1399,-5.1392,-5.1408,-5.1408,-5.1393,-5.1399,-5.1406,-5.1403,-5.1408,-5.1408,-5.1361,-5.1291,-5.1308,-5.13,-5.13,-5.13,-5.13,-5.13,-5.13,-5.1924,-5.2567,-5.2567,-5.3229,-5.3849,-5.3849,-5.455,-5.5154,-5.5154,-5.584,-5.6429,-5.6468,-5.6468,-5.6468,-5.6507,-5.6448,-5.6429,-5.6429,-5.6429,-5.6429,-5.6468,-5.6487,-5.6479,-5.6412,-5.6407,-5.6375,-5.6302,-5.6291,-5.6291,-5.6291,-5.6272,-5.6253,-5.6253,-5.6233,-5.6214,-5.6214,-5.6214,-5.6194,-5.6121,-5.6124,-5.6099,0.0,0.0,-3.7003,-3.846,-3.9043,-3.9489,-4.0305,-4.0499,-4.0577,-4.0849,-4.0907,-4.116,-4.2039,-4.2447,-4.3102,-4.4559,-4.5025,-4.5394,-4.5924,-4.6754,-4.7628,-4.8502,-4.9382,0.0,0.0,0.0,0.0,-5.12,-5.12,-5.1205,-5.1196,-5.1235,-5.1269,-5.1278,-5.13,-5.1308,-5.1308,-5.1296,-5.13,-5.13,-5.13,-5.13,-5.13,-5.13,-5.13,-5.13,-5.1296,-5.1307,-5.1294,-5.1355,-5.1372,-5.1399,-5.1396,-5.1405,-5.1391,-5.1402,-5.1405,-5.1406,-5.1406,-5.1399,-5.1396,-5.1391,-5.1349,-5.131,-5.1308,-5.13,-5.1417,-5.2002,-5.2158,-5.2294,-5.2879,-5.3249,-5.3463,-5.3463,-5.4121,-5.4764,-5.4764,-5.545,-5.6054,-5.6054,-5.6292,-5.6507,-5.6507,-5.6507,-5.6507,-5.6507,-5.6507,-5.6507,-5.6507,-5.6507,-5.6507,-5.6507,-5.6507,-5.6479,-5.6412,-5.6403,-5.6377,-5.6308,-5.6296,-5.6297,-5.6291,-5.6291,-5.6291,-5.6291,-5.6291,-5.6291,-5.6291,-5.6291,-5.6285,-5.6272,-5.6209,-5.6191,0.0,-3.7139,-3.8363,-3.9781,-4.013,-4.0344,-4.1179,-4.1121,-4.0907,-4.0907,-4.0907,-4.1063,-4.1626,-4.2,-4.268,-4.4093,-4.4598,-4.5084,-4.5885,-4.7026,-4.7978,-4.8522,-4.9629,-5.0578,0.0,0.0,0.0,-5.1206,-5.1211,-5.1215,-5.1225,-5.1282,-5.1291,-5.13,-5.1292,-5.13,-5.13,-5.13,-5.13,-5.13,-5.13,-5.13,-5.13,-5.13,-5.1304,-5.1292,-5.1307,-5.1301,-5.1333,-5.1372,-5.1401,-5.1406,-5.1403,-5.1393,-5.1437,-5.1757,-5.1855,-5.1812,-5.1516,-5.1408,-5.1445,-5.1748,-5.1804,-5.1826,-5.2123,-5.2236,-5.2353,-5.2918,-5.3054,-5.319,-5.3751,-5.4121,-5.4355,-5.4355,-5.5022,-5.5665,-5.5665,-5.6093,-5.6507,-5.6507,-5.6507,-5.6507,-5.6507,-5.6507,-5.6507,-5.6507,-5.6507,-5.6507,-5.6507,-5.6507,-5.6507,-5.6507,-5.6507,-5.6479,-5.6446,-5.6417,-5.6373,-5.6345,-5.6308,-5.6309,-5.6298,-5.6291,-5.6291,-5.6291,-5.6291,-5.6291,-5.6291,-5.6291,-5.6291,-5.6291,-5.6236,-5.6199,-3.6984,-3.8479,-3.9956,-4.0752,-4.0966,-4.1179,-4.2019,-4.1529,-4.0907,-4.0907,-4.0869,-4.0849,0.0,0.0,-4.2364,-4.3297,-4.4151,-4.5025,-4.5827,-4.7473,-4.8599,0.0,0.0,0.0,0.0,0.0,0.0,-5.1211,-5.1211,-5.1225,-5.131,-5.1291,-5.13,-5.13,-5.13,-5.13,-5.13,-5.13,-5.13,-5.13,-5.13,-5.13,-5.13,-5.13,-5.1292,-5.1294,-5.1294,-5.1333,-5.1399,-5.1399,-5.1425,-5.1474,-5.1465,-5.1496,-5.1639,-5.2461,-5.2766,-5.2642,-5.1822,-5.1523,-5.1645,-5.2415,-5.266,-5.282,-5.3654,-5.3907,-5.3907,-5.3946,-5.3966,-5.3985,-5.4028,-5.4647,-5.5271,-5.5271,-5.5899,-5.6507,-5.6507,-5.6507,-5.6507,-5.6507,-5.6507,-5.6507,-5.6507,-5.6507,-5.6507,-5.6507,-5.6507,-5.6507,-5.6507,-5.6507,-5.6507,-5.6507,-5.6507,-5.6507,-5.6507,-5.6446,-5.6398,-5.6391,-5.6339,-5.6309,-5.6298,-5.6291,-5.6291,-5.6291,-5.6291,-5.6291,-5.6291,-5.6291,-5.6291,-5.6291,-5.6275,-5.6257,-3.8615,-3.98,-4.0791,-4.1665,-4.1864,-4.1922,-4.2155,-4.1529,-4.0907,-4.0907,-4.0422,-4.0189,0.0,0.0,0.0,-4.2287,-4.3258,0.0,-4.4986,-4.7123,0.0,-4.8599,0.0,-5.1194,-5.1206,-5.1249,0.0,0.0,-5.1265,-5.1284,-5.1292,-5.1292,-5.1296,-5.13,-5.13,-5.13,-5.13,-5.13,-5.13,-5.13,-5.13,-5.13,-5.13,-5.1296,-5.1307,-5.1294,-5.1358,-5.1372,-5.1399,-5.1408,-5.1789,-5.2365,-5.2371,-5.277,-5.3359,-5.3588,-5.3673,-5.3635,-5.3351,-5.3257,-5.3293,-5.3497,-5.3576,-5.3619,-5.3829,-5.3907,-5.4043,-5.4686,-5.4862,-5.5022,-5.5665,-5.5996,-5.6171,-5.6171,-5.6351,-5.6507,-5.6507,-5.6507,-5.6507,-5.6507,-5.6507,-5.6507,-5.6507,-5.6507,-5.6507,-5.6507,-5.6507,-5.6507,-5.6507,-5.6507,-5.6507,-5.6507,-5.6507,-5.6507,-5.6507,-5.6446,-5.6398,-5.6391,-5.6339,-5.6309,-5.6298,-5.6291,-5.6291,-5.6291,-5.6291,-5.6291,-5.6291,-5.6291,-5.6278,-5.6232,-5.6822,-5.7087,-3.9419,-4.0589,-4.1619,-4.2125,-4.2218,-4.2189,-4.2208,-4.1247,-4.0364,-4.0364,-3.9703,0.0,-3.9723,-3.9742,0.0,0.0,0.0,0.0,-4.4676,-4.6683,-4.8229,0.0,-4.9858,0.0,-5.1205,-5.1282,-5.13,-5.1296,-5.13,-5.13,-5.13,-5.13,-5.13,-5.13,-5.13,-5.13,-5.13,-5.13,-5.13,-5.13,-5.1289,-5.1296,-5.1296,-5.1333,-5.1346,-5.1355,-5.1372,-5.162,-5.196,-5.1966,-5.2482,-5.327,-5.3277,-5.3574,-5.404,-5.4436,-5.4552,-5.4585,-5.4927,-5.5046,-5.4983,-5.459,-5.4465,-5.453,-5.4924,-5.5041,-5.5139,-5.5626,-5.5762,-5.5879,-5.637,-5.6507,-5.6507,-5.6507,-5.6507,-5.6507,-5.6507,-5.6507,-5.6507,-5.6507,-5.6507,-5.6507,-5.6507,-5.6507,-5.6507,-5.6507,-5.6507,-5.6507,-5.6507,-5.6507,-5.6507,-5.6507,-5.6507,-5.6483,-5.645,-5.6417,-5.6393,-5.635,-5.6314,-5.6309,-5.6298,-5.6291,-5.6291,-5.6291,-5.6291,-5.6291,-5.6291,-5.6647,-5.6821,-5.6793,-5.7575,-5.7926,-3.9844,-4.1054,-4.2299,-4.2299,-4.2267,-4.2177,-4.2075,-4.0833,-3.9669,-3.9552,0.0,-3.8259,-3.8376,-3.8916,-3.9649,-4.0586,0.0,-4.3514,-4.4506,-4.6138,-4.7587,-4.8579,-4.9479,-5.0349,-5.1228,-5.1291,-5.13,-5.1296,-5.13,-5.13,-5.13,-5.13,-5.13,-5.13,-5.13,-5.13,-5.13,-5.1304,-5.1304,-5.1304,-5.1307,-5.1317,-5.1317,-5.1372,-5.1405,-5.1401,-5.1403,-5.1884,-5.27,-5.2701,-5.3271,-5.4175,-5.4179,-5.4236,-5.4421,-5.5183,-5.5424,-5.5478,-5.6239,-5.65,-5.639,-5.5626,-5.5372,-5.5509,-5.6273,-5.6507,-5.6507,-5.6507,-5.6507,-5.6507,-5.6507,-5.6507,-5.6507,-5.6507,-5.6507,-5.6507,-5.6507,-5.6507,-5.6507,-5.6507,-5.6507,-5.6507,-5.6507,-5.6507,-5.6507,-5.6507,-5.6507,-5.6507,-5.6507,-5.6507,-5.6507,-5.6507,-5.6507,-5.6479,-5.6412,-5.6407,-5.6363,-5.6308,-5.6302,-5.6303,-5.6291,-5.6291,-5.635,-5.6466,-5.6466,-5.6524,-5.6634,-5.7338,-5.7666,-5.7652,-5.8408,-5.8755,-4.0587,-4.1521,-4.2299,-4.2299,-4.2295,-4.2101,-4.1377,-4.042,0.0,0.0,-3.7926,-3.7557,-3.828,-3.7926,-3.8062,-3.9661,-4.0774,-4.198,-4.3579,-4.5252,-4.6925,0.0,-4.9478,-5.0328,-5.1213,-5.1304,0.0,0.0,-5.13,-5.13,-5.13,-5.13,-5.13,-5.13,-5.13,-5.13,-5.13,-5.13,-5.1307,-5.1307,-5.1362,-5.1372,-5.1372,-5.1389,-5.1401,-5.1392,-5.1402,-5.1899,-5.2707,-5.2691,-5.3631,-5.5078,-5.5075,-5.5475,-5.6081,-5.6249,-5.628,-5.6297,-5.6457,-5.6507,-5.6487,-5.6312,-5.6273,-5.6292,-5.6448,-5.6507,-5.6507,-5.6507,-5.6507,-5.6507,-5.6507,-5.6507,-5.6507,-5.6507,-5.6507,-5.6507,-5.6507,-5.6507,-5.6507,-5.6507,-5.6507,-5.6507,-5.6507,-5.6507,-5.6507,-5.6507,-5.6507,-5.6507,-5.6507,-5.6507,-5.6507,-5.6507,-5.6507,-5.6479,-5.6412,-5.6393,-5.6361,-5.6308,-5.6297,-5.6298,-5.6291,-5.6291,-5.6641,-5.7366,-5.7366,-5.7696,-5.836,-5.8508,-5.851,-5.8427,-5.9211,-5.9591,-4.0811,-4.1668,-4.2194,-4.1785,-4.1641,-4.14,-4.0524,0.0,0.0,0.0,-3.6047,-3.5389,-3.6268,-3.6459,0.0,-3.8754,-4.0147,-4.1614,-4.3351,-4.4682,-4.6283,-4.8483,-4.9118,-4.9882,-5.1167,-5.1292,-5.13,-5.13,-5.13,-5.13,-5.13,-5.13,-5.13,-5.13,-5.1292,-5.1296,-5.1296,-5.1336,-5.1343,-5.1346,-5.1386,-5.1396,-5.1399,-5.1396,-5.1405,-5.1429,-5.1885,-5.2574,-5.3416,-5.3867,-5.4784,-5.5911,-5.5921,-5.6159,-5.6503,-5.6498,-5.6496,-5.65,-5.6511,-5.6507,-5.6507,-5.6507,-5.6507,-5.6507,-5.6507,-5.6507,-5.6507,-5.6507,-5.6507,-5.6507,-5.6507,-5.6507,-5.6507,-5.6507,-5.6507,-5.6507,-5.6507,-5.6507,-5.6507,-5.6507,-5.6507,-5.6507,-5.6507,-5.6507,-5.6507,-5.6507,-5.6507,-5.6507,-5.6507,-5.6507,-5.6483,-5.645,-5.645,-5.6412,-5.6352,-5.6356,-5.6528,-5.6945,-5.6984,-5.7165,-5.7573,-5.7593,-5.7806,-5.8214,-5.822,-5.8413,-5.8799,-5.9157,-5.9293,-5.9249,-6.0036,-6.0392,-4.0643,-4.1419,-4.1848,-4.1029,-4.0789,-4.0429,-3.9163,-3.7339,0.0,0.0,-3.427,-3.3531,-3.4218,-3.5032,-3.6099,0.0,-3.9328,-4.1071,-4.2824,-4.3968,-4.5514,0.0,-4.8573,0.0,-5.0872,-5.1183,0.0,-5.13,-5.13,-5.13,-5.13,-5.1304,-5.1308,-5.1308,-5.1307,-5.1317,-5.1317,-5.1375,-5.1403,-5.1403,-5.139,-5.1402,-5.1405,-5.1396,-5.1401,-5.1441,-5.2323,-5.3183,-5.4061,-5.4937,-5.5769,-5.6497,-5.6502,-5.65,-5.6494,-5.6496,-5.65,-5.6507,-5.6507,-5.6507,-5.6507,-5.6507,-5.6507,-5.6507,-5.6507,-5.6507,-5.6507,-5.6507,-5.6507,-5.6507,-5.6507,-5.6507,-5.6507,-5.6507,-5.6507,-5.6507,-5.6507,-5.6507,-5.6507,-5.6507,-5.6507,-5.6507,-5.6507,-5.6507,-5.6507,-5.6507,-5.6507,-5.6507,-5.6507,-5.6483,-5.645,-5.6403,-5.6407,-5.6368,-5.6308,-5.6477,-5.6873,-5.7561,-5.7755,-5.8137,-5.8778,-5.881,-5.8881,-5.9075,-5.9051,-5.9118,-5.9285,-5.98,-6.0055,-6.0046,-6.0669,-6.088,-3.9902,-4.0542,-4.099,-4.0136,-3.9899,-3.9276,-3.6802,0.0,0.0,-3.3938,-3.349,-3.3412,-3.349,-3.4172,-3.5029,-3.5983,0.0,-3.9334,-4.1088,-4.2705,-4.4403,-4.6215,0.0,0.0,-5.0034,-5.0833,-5.13,-5.13,-5.13,-5.13,-5.13,-5.13,-5.1291,-5.1291,-5.1366,-5.1391,-5.1391,-5.1399,-5.139,-5.1392,-5.139,-5.1399,-5.1404,-5.1404,-5.1406,-5.1444,-5.2323,-5.3198,-5.4066,-5.4935,-5.5762,-5.6509,-5.6498,-5.65,-5.6492,-5.6496,-5.6507,-5.6507,-5.6507,-5.6507,-5.6507,-5.6507,-5.6507,-5.6507,-5.6507,-5.6507,-5.6507,-5.6507,-5.6507,-5.6507,-5.6507,-5.6507,-5.6507,-5.6507,-5.6507,-5.6507,-5.6507,-5.6507,-5.6507,-5.6507,-5.6507,-5.6507,-5.6507,-5.6507,-5.6507,-5.6507,-5.6507,-5.6507,-5.6507,-5.6446,-5.6403,-5.6397,-5.6398,-5.6368,-5.6308,-5.7041,-5.7508,-5.758,-5.8292,-5.8719,-5.8797,-5.8801,-5.9168,-5.9963,-5.9866,-6.0156,-6.0885,-6.0887,-6.0865,-6.0798,-6.0808,-6.0788,-3.887,-3.9279,-3.9454,-3.9104,-3.8227,-3.7175,-3.6142,0.0,-3.3417,-3.2754,-3.2206,-3.1992,-3.2521,-3.2871,-3.3709,0.0,0.0,0.0,-4.0718,-4.2081,-4.3659,-4.5923,-4.7287,0.0,0.0,0.0,-5.0739,-5.1261,-5.13,-5.1323,-5.1353,-5.1314,-5.1317,-5.1366,-5.1389,-5.1401,-5.1401,-5.1402,-5.1393,-5.1397,-5.1403,-5.1406,-5.1406,-5.1404,-5.1401,-5.1475,-5.2832,-5.3623,-5.4045,-5.5455,-5.6218,-5.6494,-5.65,-5.6508,-5.6496,-5.6507,-5.6507,-5.6507,-5.6507,-5.6507,-5.6507,-5.6507,-5.6507,-5.6507,-5.6507,-5.6507,-5.6507,-5.6507,-5.6507,-5.6507,-5.6507,-5.6507,-5.6507,-5.6507,-5.6507,-5.6507,-5.6507,-5.6507,-5.6507,-5.6507,-5.6507,-5.6507,-5.6507,-5.6507,-5.6507,-5.6507,-5.6507,-5.6483,-5.6446,-5.6417,-5.6373,-5.635,-5.6336,-5.6539,-5.7036,-5.7405,-5.804,-5.9037,-5.9399,-5.9793,-6.0277,-6.0301,-6.0445,-6.0757,-6.0678,-6.0741,-6.0992,-6.0918,-6.0827,-6.0717,-6.0655,-6.0546,-3.7564,-3.811,-3.8383,-3.7857,-3.6805,-3.5694,0.0,0.0,-3.1644,-3.139,-3.0843,-3.0606,-3.1213,-3.1741,-3.2774,0.0,0.0,-3.6941,-3.9902,-4.1263,-4.2802,0.0,0.0,-4.7777,-4.9476,-5.0107,-5.066,-5.1281,-5.1323,-5.1355,-5.1405,-5.1366,-5.1347,-5.1408,-5.1396,-5.1407,-5.1407,-5.14,-5.1405,-5.1406,-5.1406,-5.1403,-5.1399,-5.1408,-5.14,-5.1494,-5.3174,-5.3903,-5.4033,-5.5776,-5.6503,-5.6504,-5.6504,-5.65,-5.6507,-5.6507,-5.6507,-5.6507,-5.6507,-5.6507,-5.6507,-5.6507,-5.6507,-5.6507,-5.6507,-5.6507,-5.6507,-5.6507,-5.6507,-5.6507,-5.6507,-5.6507,-5.6507,-5.6507,-5.6507,-5.6507,-5.6507,-5.6507,-5.6507,-5.6507,-5.6507,-5.6507,-5.6507,-5.6507,-5.6507,-5.6507,-5.6507,-5.6479,-5.6412,-5.6403,-5.6363,-5.6308,-5.6296,-5.6653,-5.7522,-5.7813,-5.8564,-6.0001,-6.0332,-6.0718,-6.1283,-6.1279,-6.1223,-6.1146,-6.107,-6.095,-6.0803,-6.0738,-6.0623,-6.048,-6.0439,-6.0309,-3.5928,-3.7194,-3.809,-3.6356,-3.5908,-3.5246,0.0,0.0,-3.0567,-2.9691,-2.9515,-2.9515,-2.9535,-3.094,-3.2384,-3.3281,0.0,0.0,-3.8285,-4.0019,-4.1731,0.0,0.0,-4.6908,-4.8636,-5.0371,-5.1394,-5.1394,-5.1408,-5.1403,-5.1392,-5.1391,-5.1393,-5.1394,-5.1398,-5.1405,-5.1405,-5.1406,-5.1405,-5.1405,-5.1396,-5.1405,-5.1394,-5.1403,-5.1391,-5.1492,-5.3169,-5.3901,-5.404,-5.5775,-5.6504,-5.6507,-5.6507,-5.6507,-5.6507,-5.6507,-5.6507,-5.6507,-5.6507,-5.6507,-5.6507,-5.6507,-5.6507,-5.6507,-5.6507,-5.6507,-5.6507,-5.6507,-5.6507,-5.6507,-5.6507,-5.6507,-5.6507,-5.6507,-5.6507,-5.6507,-5.6507,-5.6507,-5.6507,-5.6507,-5.6507,-5.6507,-5.6507,-5.6507,-5.6507,-5.6507,-5.6507,-5.6479,-5.6412,-5.6407,-5.6375,-5.6308,-5.6297,-5.6641,-5.7522,-5.8331,-5.9166,-6.004,-6.0914,-6.1359,-6.1302,-6.1234,-6.1146,-6.1012,-6.0864,-6.0741,-6.0604,-6.0539,-6.0412,-6.0198,-6.0203,-6.0129,-3.4196,-3.4586,-3.4878,-3.4333,-3.3298,-3.2204,-3.1405,0.0,-2.8931,-2.8678,-2.9087,-2.9496,-2.9496,-3.0431,-3.17,-3.3164,-3.3846,0.0,0.0,0.0,0.0,-4.3331,-4.6186,-4.8187,0.0,0.0,-5.1399,-5.1394,-5.1405,-5.1393,-5.1399,-5.1405,-5.1405,-5.1399,-5.1406,-5.1405,-5.1404,-5.1399,-5.1391,-5.14,-5.1392,-5.1403,-5.1408,-5.1355,-5.1327,-5.1398,-5.2515,-5.3342,-5.3997,-5.5147,-5.5961,-5.6507,-5.6507,-5.6507,-5.6507,-5.6507,-5.6507,-5.6507,-5.6507,-5.6507,-5.6507,-5.6507,-5.6507,-5.6507,-5.6507,-5.6507,-5.6507,-5.6507,-5.6507,-5.6507,-5.6507,-5.6507,-5.6507,-5.6507,-5.6507,-5.6507,-5.6507,-5.6507,-5.6507,-5.6507,-5.6507,-5.6507,-5.6507,-5.6507,-5.6507,-5.6507,-5.6507,-5.6474,-5.6407,-5.6397,-5.637,-5.6317,-5.6829,-5.7515,-5.835,-5.8642,-5.9438,-6.0895,-6.1196,-6.1306,-6.1234,-6.1173,-6.1041,-6.0872,-6.0781,-6.0635,-6.0458,-6.0337,-6.0222,-6.0072,-6.001,-5.9963,0.0,-3.2167,-3.2343,-3.2012,-3.1113,0.0,0.0,0.0,-2.7704,-2.7704,-2.8405,-2.9009,-2.9009,-2.9983,-3.1366,-3.3125,-3.3402,-3.4594,0.0,0.0,0.0,-4.3297,0.0,0.0,0.0,-5.0387,-5.1408,-5.1399,-5.1403,-5.1405,-5.1406,-5.1402,-5.1399,-5.1403,-5.14,-5.1395,-5.1407,-5.1398,-5.1406,-5.1408,-5.1366,-5.1358,-5.1366,-5.133,-5.13,-5.1358,-5.222,-5.3093,0.0,-5.4842,-5.5704,-5.6507,-5.6507,-5.6507,-5.6507,-5.6507,-5.6507,-5.6507,-5.6507,-5.6507,-5.6507,-5.6507,-5.6507,-5.6507,-5.6507,-5.6507,-5.6507,-5.6507,-5.6507,-5.6507,-5.6507,-5.6507,-5.6507,-5.6507,-5.6507,-5.6507,-5.6507,-5.6507,-5.6507,-5.6507,-5.6507,-5.6507,-5.6507,-5.6507,-5.6507,-5.6507,-5.6507,-5.6489,-5.6416,-5.6411,-5.65,-5.677,-5.7289,-5.8066,-5.9186,-5.9283,-5.9878,-6.1281,-6.1302,-6.1239,-6.1164,-6.1061,-6.0899,-6.0729,-6.0623,-6.048,-6.0241,-6.0148,-6.0041,-5.9966,-5.9918,-5.9902,0.0,0.0,0.0,0.0,0.0,0.0,0.0,0.0,0.0,-2.6807,-2.7548,-2.8191,-2.8191,-2.9671,-3.1447,-3.3125,-3.3507,-3.4744,0.0,-3.8714,0.0,0.0,-4.6755,0.0,-4.8803,-5.0388,-5.1406,-5.1406,-5.1405,-5.1402,-5.1397,-5.1402,-5.1408,-5.1396,-5.1386,-5.1386,-5.1396,-5.138,-5.1391,-5.1391,-5.1336,-5.1291,-5.1291,-5.1308,-5.13,-5.1359,-5.2158,-5.2995,-5.3888,-5.4745,-5.5626,-5.6409,-5.6487,-5.6507,-5.6507,-5.6507,-5.6507,-5.6507,-5.6507,-5.6507,-5.6507,-5.6507,-5.6507,-5.6507,-5.6507,-5.6507,-5.6507,-5.6507,-5.6507,-5.6507,-5.6507,-5.6507,-5.6507,-5.6507,-5.6507,-5.6507,-5.6507,-5.6507,-5.6507,-5.6507,-5.6507,-5.6507,-5.6507,-5.6507,-5.6507,-5.6483,-5.6483,-5.6465,-5.6391,-5.6444,-5.6772,-5.7528,-5.7716,-5.8415,-5.9963,-6.0099,-6.0446,-6.1244,-6.1236,-6.115,-6.1089,-6.0901,-6.0731,-6.0591,-6.0444,-6.0241,-5.9979,-5.9934,-5.9902,-5.9902,-5.9902,-5.9902,0.0,0.0,0.0,0.0,0.0,0.0,0.0,0.0,0.0,0.0,0.0,0.0,0.0,-3.017,-3.2145,-3.3236,-3.4515,-3.6124,-3.8218,0.0,0.0,-4.4524,-4.7127,-4.8828,-4.8867,-5.0409,-5.1401,-5.1397,-5.1405,-5.1394,-5.139,-5.1396,-5.1378,-5.1327,-5.133,-5.133,-5.1323,-5.132,-5.131,-5.1316,-5.1308,-5.1308,-5.1308,-5.13,-5.13,-5.132,-5.1515,-5.2099,-5.2976,-5.3849,-5.473,-5.5567,-5.6234,-5.6507,-5.6507,-5.6507,-5.6507,-5.6507,-5.6507,-5.6507,-5.6507,-5.6507,-5.6507,-5.6507,-5.6507,-5.6507,-5.6507,-5.6507,-5.6507,-5.6507,-5.6507,-5.6507,-5.6507,-5.6507,-5.6507,-5.6507,-5.6507,-5.6507,-5.6507,-5.6507,-5.6507,-5.6507,-5.6507,-5.6507,-5.6479,-5.6422,-5.6422,-5.6403,-5.6325,-5.6916,-5.7385,-5.758,-5.8746,-5.9671,-6.006,-6.0109,-6.0437,-6.1244,-6.1197,-6.107,-6.0953,-6.0853,-6.0697,-6.0444,-6.0212,-6.0045,-5.9918,-5.9902,-5.9902,-5.9902,-5.9902,-5.9902,-2.571,-2.636,-2.7049,0.0,0.0,0.0,0.0,0.0,0.0,0.0,0.0,0.0,0.0,0.0,-3.2647,-3.433,-3.5373,0.0,0.0,0.0,-4.4023,-4.4902,-4.7244,-4.8803,0.0,-5.0391,-5.14,-5.141,-5.1396,-5.1386,-5.1361,-5.1349,-5.1336,-5.13,-5.13,-5.13,-5.13,-5.13,-5.1292,-5.13,-5.13,-5.13,-5.13,-5.13,-5.13,-5.13,-5.13,-5.1787,-5.2645,-5.3112,-5.4043,-5.5251,-5.5723,-5.6152,-5.6507,-5.6507,-5.6507,-5.6507,-5.6507,-5.6507,-5.6507,-5.6507,-5.6507,-5.6507,-5.6507,-5.6507,-5.6507,-5.6507,-5.6507,-5.6507,-5.6507,-5.6507,-5.6507,-5.6507,-5.6507,-5.6507,-5.6507,-5.6507,-5.6507,-5.6507,-5.6507,-5.6507,-5.6507,-5.6479,-5.6446,-5.6412,-5.6403,-5.6513,-5.6852,-5.7307,-5.7878,-5.8668,-5.9555,-6.0247,-6.0621,-6.0655,-6.0817,-6.122,-6.1108,-6.0962,-6.0856,-6.069,-6.0493,-6.0226,-6.0045,-5.9934,-5.9902,-5.9902,-5.9902,-5.9902,-5.9902,-5.9902,-2.5694,-2.5803,-2.5871,-2.5735,-2.5808,0.0,0.0,0.0,0.0,0.0,0.0,0.0,0.0,-3.1739,0.0,0.0,0.0,0.0,-4.1054,-4.289,-4.4213,-4.5086,-4.7325,0.0,-4.8796,-5.0377,-5.1386,-5.1372,-5.1388,-5.1362,-5.131,-5.1307,-5.13,-5.13,-5.13,-5.13,-5.13,-5.13,-5.13,-5.13,-5.13,-5.13,-5.13,-5.13,-5.13,-5.13,-5.13,-5.1729,-5.2411,-5.2547,-5.3463,-5.4823,-5.5095,-5.5645,-5.6312,-5.6448,-5.6507,-5.6507,-5.6507,-5.6507,-5.6507,-5.6507,-5.6507,-5.6507,-5.6507,-5.6507,-5.6507,-5.6507,-5.6507,-5.6507,-5.6507,-5.6507,-5.6507,-5.6507,-5.6507,-5.6507,-5.6507,-5.6507,-5.6507,-5.6507,-5.6507,-5.6507,-5.6507,-5.6446,-5.6407,-5.6407,-5.6499,-5.6836,-5.7501,-5.7826,-5.8538,-5.995,-6.0215,-6.057,-6.1244,-6.1294,-6.1245,-6.1155,-6.0982,-6.0853,-6.0734,-6.048,-6.0226,-5.9994,-5.9934,-5.9902,-5.9902,-5.9902,-5.9902,-5.9902,-5.9902,-5.9902,-2.5691,-2.6249,-2.6629,-2.5884,-2.6251,-2.6796,0.0,0.0,0.0,0.0,0.0,0.0,0.0,-3.2713,-3.4672,0.0,0.0,-4.1015,0.0,0.0,-4.5091,-4.5921,0.0,-4.8806,-4.8803,-5.0332,-5.132,-5.1317,-5.1319,-5.1308,-5.1304,-5.1304,-5.1304,-5.13,-5.13,-5.13,-5.13,-5.13,-5.13,-5.13,-5.13,-5.13,-5.13,-5.13,-5.13,-5.13,-5.13,-5.1378,-5.1554,-5.2294,-5.2762,-5.3151,-5.4628,-5.5271,-5.5489,-5.6234,-5.6507,-5.6507,-5.6507,-5.6507,-5.6507,-5.6507,-5.6507,-5.6507,-5.6507,-5.6507,-5.6507,-5.6507,-5.6507,-5.6507,-5.6507,-5.6507,-5.6507,-5.6507,-5.6507,-5.6507,-5.6507,-5.6507,-5.6507,-5.6507,-5.6507,-5.6507,-5.6507,-5.6446,-5.6403,-5.6397,-5.6986,-5.7462,-5.7586,-5.8849,-5.9814,-6.006,-6.0759,-6.1223,-6.1283,-6.125,-6.1146,-6.0953,-6.0927,-6.0757,-6.0472,-6.0193,-6.0041,-5.9994,-5.9934,-5.9902,-5.9902,-5.9902,-5.9902,-5.9902,-5.9902,-5.9902,-2.5698,-2.6339,-2.6903,-2.6491,-2.7069,-2.7704,-2.7704,-2.8707,0.0,0.0,0.0,0.0,0.0,0.0,-3.6131,-3.8398,0.0,-4.239,-4.4118,-4.469,-4.5438,0.0,-4.8031,-4.8977,-4.9416,-5.0579,-5.1296,-5.1296,-5.1304,-5.13,-5.13,-5.13,-5.13,-5.13,-5.13,-5.13,-5.13,-5.13,-5.13,-5.13,-5.13,-5.13,-5.13,-5.13,-5.13,-5.13,-5.13,-5.13,-5.1339,-5.1729,-5.2177,-5.2723,-5.4004,-5.4784,-5.531,-5.6171,-5.6507,-5.6507,-5.6507,-5.6507,-5.6507,-5.6507,-5.6507,-5.6507,-5.6507,-5.6507,-5.6507,-5.6507,-5.6507,-5.6507,-5.6507,-5.6507,-5.6507,-5.6507,-5.6507,-5.6507,-5.6507,-5.6507,-5.6507,-5.6507,-5.6507,-5.6483,-5.645,-5.6427,-5.6397,-5.635,-5.7054,-5.7768,-5.8202,-5.9322,-6.0273,-6.0759,-6.1126,-6.1322,-6.1259,-6.1191,-6.1041,-6.0819,-6.0697,-6.0506,-6.0256,-6.0087,-5.9979,-5.995,-5.9918,-5.9902,-5.9902,-5.9902,-5.9902,-5.9902,-5.9902,-5.9902,-2.5956,-2.6639,-2.7342,-2.7557,0.0,-2.8907,-2.8907,-3.0204,0.0,0.0,0.0,0.0,0.0,-3.6484,0.0,-4.0632,-4.2009,-4.3226,-4.4694,-4.5075,-4.5786,-4.733,-4.8263,-4.9113,-4.9917,-5.0794,-5.13,-5.13,-5.13,-5.13,-5.13,-5.13,-5.13,-5.13,-5.13,-5.13,-5.13,-5.13,-5.13,-5.13,-5.13,-5.13,-5.13,-5.13,-5.13,-5.13,-5.13,-5.13,-5.13,-5.13,-5.169,-5.2372,-5.3268,-5.4258,-5.531,-5.6171,-5.6507,-5.6507,-5.6507,-5.6507,-5.6507,-5.6507,-5.6507,-5.6507,-5.6507,-5.6507,-5.6507,-5.6507,-5.6507,-5.6507,-5.6507,-5.6507,-5.6507,-5.6507,-5.6507,-5.6507,-5.6507,-5.6507,-5.6503,-5.6479,-5.6479,-5.645,-5.6407,-5.6397,-5.6428,-5.658,-5.7327,-5.8176,-5.8991,-5.9865,-6.0655,-6.1308,-6.1337,-6.1255,-6.1146,-6.1051,-6.0897,-6.0648,-6.0453,-6.027,-6.0068,-6.001,-5.995,-5.9902,-5.9902,-5.9902,-5.9902,-5.9902,-5.9902,-5.9902,-5.9902,-5.9902,-2.6698,-2.7539,-2.8398,-2.9219,-3.0077,0.0,-3.0718,-3.2009,0.0,-3.3202,0.0,0.0,0.0,-3.7923,-3.9865,-4.0939,-4.2518,-4.3916,-4.4785,-4.5601,-4.6453,-4.7391,-4.8265,-4.9122,-4.9917,-5.0794,-5.13,-5.13,-5.13,-5.13,-5.13,-5.13,-5.13,-5.13,-5.13,-5.13,-5.13,-5.13,-5.13,-5.13,-5.13,-5.13,-5.13,-5.13,-5.13,-5.13,-5.13,-5.13,-5.13,-5.13,-5.1339,-5.1476,-5.2353,-5.3712,-5.531,-5.6171,-5.6507,-5.6507,-5.6507,-5.6507,-5.6507,-5.6507,-5.6507,-5.6507,-5.6507,-5.6507,-5.6507,-5.6507,-5.6507,-5.6507,-5.6507,-5.6507,-5.6507,-5.6507,-5.6507,-5.6507,-5.6507,-5.6507,-5.6479,-5.6417,-5.6412,-5.6407,-5.6397,-5.635,-5.658,-5.7385,-5.8195,-5.903,-5.9885,-6.0778,-6.1308,-6.131,-6.1302,-6.1195,-6.0932,-6.0808,-6.0635,-6.0431,-6.0294,-6.0144,-6.001,-5.995,-5.9902,-5.9902,-5.9902,-5.9902,-5.9902,-5.9902,-5.9902,-5.9902,-5.9902,-5.9902,-2.6752,-2.7633,-2.8631,-3.0056,-3.1443,0.0,0.0,-3.3398,-3.5017,-3.5015,-3.6399,0.0,0.0,0.0,-4.1694,-4.2515,-4.3663,-4.4749,-4.5586,-4.5992,-4.6518,-4.7407,-4.8261,-4.9118,-4.9917,-5.0794,-5.13,-5.13,-5.13,-5.13,-5.13,-5.13,-5.13,-5.13,-5.13,-5.13,-5.13,-5.13,-5.13,-5.13,-5.13,-5.13,-5.13,-5.13,-5.13,-5.13,-5.13,-5.13,-5.13,-5.13,-5.13,-5.1437,-5.2859,-5.4141,-5.531,-5.6171,-5.6507,-5.6507,-5.6507,-5.6507,-5.6507,-5.6507,-5.6507,-5.6507,-5.6507,-5.6507,-5.6507,-5.6507,-5.6507,-5.6507,-5.6507,-5.6507,-5.6507,-5.6507,-5.6474,-5.6446,-5.6446,-5.6432,-5.6437,-5.6407,-5.6407,-5.6397,-5.6345,-5.6314,-5.6607,-5.7463,-5.8279,-5.9108,-5.9982,-6.0856,-6.1359,-6.1302,-6.1141,-6.0993,-6.0842,-6.0648,-6.0453,-6.028,-6.0188,-6.0103,-5.9994,-5.9934,-5.9902,-5.9902,-5.9902,-5.9902,-5.9902,-5.9902,-5.9902,-5.9902,-5.9902,-5.9902,-2.717,-2.8227,-2.9439,0.0,0.0,0.0,-3.3465,-3.491,-3.6468,-3.6738,-3.818,-3.9637,-4.0478,0.0,0.0,0.0,-4.4517,-4.5196,-4.6082,-4.6199,-4.653,-4.7404,-4.8027,-4.8806,-4.9898,-5.0541,-5.1008,-5.1281,-5.13,-5.13,-5.13,-5.13,-5.13,-5.13,-5.13,-5.13,-5.13,-5.13,-5.13,-5.13,-5.13,-5.13,-5.13,-5.13,-5.13,-5.13,-5.13,-5.13,-5.13,-5.13,-5.13,-5.1456,-5.2918,-5.4,-5.4853,-5.5734,-5.6236,-5.6465,-5.6465,-5.6465,-5.6465,-5.6465,-5.6465,-5.6465,-5.6465,-5.6465,-5.6465,-5.6465,-5.6465,-5.6465,-5.6465,-5.6474,-5.6483,-5.6479,-5.6422,-5.6407,-5.6398,-5.6402,-5.6386,-5.6375,-5.6375,-5.6345,-5.6315,-5.6309,-5.6692,-5.7813,-5.8447,-5.9205,-6.0351,-6.1017,-6.1337,-6.1247,-6.1041,-6.0864,-6.0753,-6.0539,-6.0328,-6.0144,-6.0084,-6.0041,-5.9963,-5.9918,-5.9902,-5.9902,-5.9902,-5.9902,-5.9902,-5.9902,-5.9902,-5.9902,-5.9902,-5.9902,-2.8067,-2.9526,-3.1008,0.0,0.0,0.0,-3.6025,-3.6655,-3.7461,-3.836,-3.9913,-4.1381,-4.2248,-4.3061,0.0,-4.4757,-4.4913,-4.5205,-4.6082,-4.6199,-4.653,-4.7384,-4.7482,-4.8144,-4.982,-4.9995,-5.0365,-5.1222,-5.13,-5.13,-5.13,-5.13,-5.13,-5.13,-5.13,-5.13,-5.13,-5.13,-5.13,-5.13,-5.13,-5.13,-5.13,-5.13,-5.13,-5.13,-5.13,-5.13,-5.13,-5.13,-5.13,-5.1398,-5.2255,-5.3096,-5.3911,-5.4772,-5.5653,-5.6411,-5.6411,-5.6411,-5.6411,-5.6411,-5.6411,-5.6411,-5.6411,-5.6411,-5.6411,-5.6411,-5.6411,-5.6411,-5.6411,-5.6451,-5.6479,-5.6417,-5.6393,-5.6403,-5.6397,-5.6406,-5.6381,-5.6308,-5.6302,-5.6296,-5.6298,-5.6311,-5.6874,-5.8545,-5.8817,-5.9438,-6.1179,-6.1344,-6.1247,-6.1108,-6.0969,-6.0812,-6.0617,-6.0472,-6.027,-6.001,-5.9994,-5.9982,-5.9902,-5.9902,-5.9902,-5.9902,-5.9902,-5.9902,-5.9902,-5.9902,-5.9902,-5.9902,-5.9902,-5.9902,-2.8019,-2.9484,0.0,-3.2631,0.0,0.0,0.0,-3.8419,0.0,0.0,-4.1621,-4.2211,-4.3085,-4.3942,0.0,-4.4855,-4.542,-4.5907,-4.616,-4.6199,-4.6297,-4.655,-4.7131,-4.7696,-4.8183,-4.9313,-5.0112,-5.0365,-5.095,-5.13,-5.13,-5.13,-5.13,-5.13,-5.1308,-5.13,-5.13,-5.1243,-5.123,-5.123,-5.123,-5.1243,-5.13,-5.13,-5.1267,-5.123,-5.123,-5.123,-5.123,-5.123,-5.123,-5.1327,-5.2188,-5.3059,-5.3906,-5.4787,-5.5657,-5.6411,-5.6411,-5.6411,-5.6411,-5.6411,-5.6411,-5.6411,-5.6411,-5.6411,-5.6411,-5.6411,-5.6411,-5.6411,-5.6411,-5.6402,-5.6412,-5.6402,-5.6367,-5.6331,-5.6339,-5.6321,-5.6323,-5.6291,-5.631,-5.6304,-5.6298,-5.6822,-5.7573,-5.8642,-5.9322,-6.0111,-6.1189,-6.1275,-6.1154,-6.0982,-6.0796,-6.0629,-6.0472,-6.0256,-6.0072,-5.9994,-5.9966,-5.9918,-5.9902,-5.9902,-5.9902,-5.9902,-5.9902,-5.9902,-5.9902,-5.9902,-5.9902,-5.9902,-5.9902,-5.9902,-2.8903,-3.0505,0.0,-3.3964,-3.5673,-3.7381,-3.9135,0.0,0.0,0.0,-4.289,-4.3487,-4.4014,-4.4832,0.0,-4.542,-4.5868,-4.6199,-4.6199,-4.6199,-4.6199,-4.6199,-4.6667,-4.7111,-4.7462,-4.8417,-4.9274,-4.9956,-5.0482,-5.093,-5.1281,-5.1292,-5.1308,-5.1308,-5.1267,-5.1254,-5.1254,-5.1215,-5.1211,-5.1211,-5.1211,-5.1215,-5.1259,-5.1269,-5.1244,-5.1211,-5.1211,-5.1211,-5.1211,-5.1211,-5.1211,-5.1249,-5.1775,-5.2523,-5.3394,-5.4269,-5.5119,-5.5886,-5.6236,-5.6353,-5.6353,-5.6353,-5.6353,-5.6353,-5.6353,-5.6353,-5.6353,-5.6353,-5.6353,-5.6353,-5.6353,-5.6353,-5.6358,-5.637,-5.6339,-5.6302,-5.6309,-5.631,-5.6291,-5.6291,-5.6291,-5.6291,-5.6291,-5.7017,-5.7871,-5.8681,-5.9813,-6.0735,-6.1197,-6.1208,-6.107,-6.0886,-6.071,-6.052,-6.0342,-6.0118,-5.9979,-5.9966,-5.9918,-5.9902,-5.9902,-5.9902,-5.9902,-5.9902,-5.9902,-5.9902,-5.9902,-5.9902,-5.9902,-5.9902,-5.9902,-5.9902,-3.0236,0.0,0.0,-3.548,-3.7272,0.0,-4.0718,-4.1711,-4.2315,-4.2393,0.0,-4.4913,-4.4991,-4.5673,-4.6199,-4.6199,-4.6199,-4.6199,-4.6199,-4.6199,-4.6199,-4.6199,-4.6199,-4.6511,-4.7306,-4.7443,-4.8125,-4.9664,-4.9917,-5.0346,-5.1145,-5.1261,-5.131,-5.131,-5.122,-5.1206,-5.1206,-5.1201,-5.1201,-5.1201,-5.1201,-5.121,-5.1208,-5.1196,-5.1206,-5.1201,-5.1201,-5.1201,-5.1201,-5.1201,-5.1201,-5.1201,-5.1201,-5.173,-5.2603,-5.3477,-5.4296,-5.5126,-5.6,-5.6291,-5.6291,-5.6291,-5.6291,-5.6291,-5.6291,-5.6291,-5.6291,-5.6291,-5.6291,-5.6291,-5.6291,-5.6291,-5.6304,-5.629,-5.6302,-5.629,-5.6298,-5.6291,-5.6291,-5.6291,-5.6291,-5.6291,-5.6291,-5.7075,-5.8001,-5.8887,-6.0316,-6.1271,-6.1191,-6.1137,-6.1001,-6.0793,-6.0655,-6.0466,-6.0203,-6.0053,-5.9947,-5.9902,-5.9902,-5.9902,-5.9902,-5.9902,-5.9902,-5.9902,-5.9902,-5.9902,-5.9902,-5.9902,-5.9902,-5.9902,-5.9902,-5.9902,0.0,-3.1544,0.0,0.0,-3.772,-3.9805,-4.0854,-4.1711,-4.2491,-4.3172,-4.4169,-4.5108,-4.579,-4.6063,-4.6199,-4.6199,-4.6199,-4.6199,-4.6199,-4.6199,-4.6199,-4.6199,-4.6199,-4.6277,-4.6452,-4.7092,-4.7657,-4.8008,-4.9255,-5.0073,-5.0268,-5.0929,-5.131,-5.131,-5.1225,-5.12,-5.12,-5.1192,-5.12,-5.12,-5.12,-5.12,-5.1194,-5.1203,-5.1208,-5.12,-5.12,-5.12,-5.12,-5.12,-5.12,-5.12,-5.12,-5.1705,-5.2535,-5.339,-5.4258,-5.5126,-5.6,-5.6291,-5.6291,-5.6291,-5.6291,-5.6291,-5.6291,-5.6291,-5.6291,-5.6291,-5.6291,-5.6291,-5.6291,-5.6291,-5.6298,-5.6304,-5.6304,-5.6304,-5.6298,-5.6291,-5.6291,-5.6291,-5.6291,-5.6291,-5.6291,-5.7554,-5.9055,-6.0541,-6.107,-6.1255,-6.1146,-6.1022,-6.0877,-6.066,-6.0433,-6.0217,-6.0057,-5.9982,-5.9918,-5.9902,-5.9902,-5.9902,-5.9902,-5.9902,-5.9902,-5.9902,-5.9902,-5.9902,-5.9902,-5.9902,-5.9902,-5.9902,-5.9902,-5.9902,0.0,0.0,0.0,-3.6512,0.0,-4.0039,-4.0893,-4.1711,-4.2432,-4.288,-4.3994,-4.5166,-4.6043,-4.6199,-4.6199,-4.6199,-4.6199,-4.6199,-4.6199,-4.6199,-4.6199,-4.6199,-4.6199,-4.6199,-4.6199,-4.6608,-4.7053,-4.7462,-4.83,-4.9157,-4.9956,-5.0434,-5.084,-5.123,-5.1219,-5.1206,-5.1206,-5.1208,-5.1202,-5.1202,-5.1202,-5.1202,-5.1202,-5.12,-5.12,-5.1202,-5.1202,-5.1202,-5.1202,-5.1202,-5.1202,-5.1202,-5.1202,-5.1455,-5.1921,-5.2776,-5.363,-5.4504,-5.5378,-5.5942,-5.6291,-5.6291,-5.6291,-5.6291,-5.6291,-5.6291,-5.6291,-5.6291,-5.6291,-5.6291,-5.6291,-5.6291,-5.6291,-5.6291,-5.6291,-5.6291,-5.6291,-5.6291,-5.6291,-5.6291,-5.6291,-5.6427,-5.6861,-5.8317,-5.985,-6.1108,-6.1247,-6.1171,-6.108,-6.095,-6.0773,-6.0559,-6.0351,-6.0144,-6.001,-5.9934,-5.9902,-5.9902,-5.9902,-5.9902,-5.9902,-5.9902,-5.9902,-5.9902,-5.9902,-5.9902,-5.9902,-5.9902,-5.9902,-5.9902,-5.9902,-5.9902,0.0,0.0,-3.4508,-3.7331,-3.8928,0.0,-4.0718,-4.1516,-4.214,-4.2273,-4.3682,-4.5127,-4.5848,-4.6102,-4.6199,-4.6199,-4.6199,-4.6199,-4.6199,-4.6199,-4.6199,-4.6199,-4.6199,-4.6199,-4.6199,-4.6199,-4.6511,-4.7209,-4.7404,-4.8105,-4.9488,-4.9833,-5.0315,-5.0977,-5.1134,-5.1202,-5.1202,-5.1202,-5.1202,-5.1202,-5.1202,-5.1202,-5.1202,-5.1202,-5.1202,-5.1202,-5.1202,-5.1202,-5.1202,-5.1202,-5.1202,-5.1202,-5.1202,-5.1202,-5.1299,-5.2096,-5.295,-5.3831,-5.4699,-5.5573,-5.6291,-5.6291,-5.6291,-5.6291,-5.6291,-5.6291,-5.6291,-5.6291,-5.6291,-5.6291,-5.6291,-5.6291,-5.6291,-5.6291,-5.6291,-5.6291,-5.6291,-5.6291,-5.6291,-5.6291,-5.6427,-5.6796,-5.7664,-5.9073,-6.0363,-6.1163,-6.118,-6.107,-6.0982,-6.0861,-6.0673,-6.0466,-6.028,-6.0114,-5.9994,-5.9934,-5.9902,-5.9902,-5.9902,-5.9902,-5.9902,-5.9902,-5.9902,-5.9902,-5.9902,-5.9902,-5.9902,-5.9902,-5.9902,-5.9902,-5.9902,-5.9902,0.0,0.0,-3.5675,0.0,-3.8032,-3.9825,0.0,0.0,-4.1455,0.0,-4.3692,-4.4933,-4.505,-4.5693,-4.6199,-4.6199,-4.6199,-4.6199,-4.6199,-4.6199,-4.6199,-4.6199,-4.6199,-4.6199,-4.6199,-4.6199,-4.6258,-4.6355,-4.7072,-4.7599,-4.7813,-4.921,-5.0043,-5.016,-5.0842,-5.1202,-5.1202,-5.1202,-5.1202,-5.1202,-5.1202,-5.1202,-5.1202,-5.1202,-5.1202,-5.1202,-5.1202,-5.1202,-5.1202,-5.1202,-5.1202,-5.1202,-5.1202,-5.1202,-5.1299,-5.2096,-5.295,-5.3831,-5.4699,-5.5573,-5.6291,-5.6291,-5.6291,-5.6291,-5.6291,-5.6291,-5.6291,-5.6291,-5.6291,-5.6291,-5.6291,-5.6291,-5.6291,-5.6291,-5.6291,-5.6291,-5.6291,-5.6291,-5.6291,-5.6291,-5.6919,-5.7683,-5.8503,-5.9459,-6.034,-6.11,-6.1155,-6.1051,-6.0935,-6.0753,-6.0533,-6.0261,-6.0099,-5.9994,-5.9918,-5.9902,-5.9902,-5.9902,-5.9902,-5.9902,-5.9902,-5.9902,-5.9902,-5.9902,-5.9902,-5.9902,-5.9902,-5.9902,-5.9902,-5.9902,-5.9902,-5.9902,-2.9613,-3.2296,-3.4689,0.0,-3.7137,-3.8592,-3.9523,0.0,-4.0551,-4.14,-4.2576,-4.3596,-4.4082,-4.4842,-4.5426,-4.5426,-4.5835,-4.6146,-4.6146,-4.6146,-4.6146,-4.6146,-4.6146,-4.6146,-4.6146,-4.6174,-4.6201,-4.6201,-4.6562,-4.6971,-4.7428,-4.8135,-4.8964,-4.9902,-5.0292,-5.0717,-5.1202,-5.1202,-5.1202,-5.1202,-5.1202,-5.1202,-5.1202,-5.1202,-5.1202,-5.1202,-5.1202,-5.1202,-5.1202,-5.1202,-5.1202,-5.1202,-5.1202,-5.1202,-5.1241,-5.161,-5.2251,-5.3106,-5.396,-5.4835,-5.565,-5.6136,-5.6291,-5.6291,-5.6291,-5.6291,-5.6291,-5.6291,-5.6291,-5.6291,-5.6291,-5.6291,-5.6291,-5.6291,-5.6291,-5.6291,-5.6291,-5.6291,-5.6447,-5.6939,-5.7696,-5.8549,-5.9381,-6.0189,-6.0818,-6.1097,-6.106,-6.0948,-6.0858,-6.0642,-6.0412,-6.0217,-6.0087,-5.9963,-5.9902,-5.9902,-5.9902,-5.9902,-5.9902,-5.9902,-5.9902,-5.9902,-5.9902,-5.9902,-5.9902,-5.9902,-5.9902,-5.9902,-5.9902,-5.9902,-5.9902,-5.9902,0.0,0.0,-3.3084,-3.4817,-3.6051,-3.7263,0.0,0.0,-3.9883,0.0,-4.1357,-4.2155,-4.2793,-4.3774,-4.4498,-4.4498,-4.5198,-4.5767,-4.5767,-4.5962,-4.6098,-4.6098,-4.6098,-4.6098,-4.6098,-4.6149,-4.6162,-4.6162,-4.6174,-4.645,-4.7038,-4.7285,-4.8074,-4.9517,-4.9782,-5.0309,-5.1183,-5.1202,-5.1202,-5.1202,-5.1202,-5.1202,-5.1202,-5.1202,-5.1196,-5.1171,-5.1196,-5.1202,-5.1202,-5.1202,-5.1202,-5.1202,-5.1202,-5.1202,-5.1202,-5.1202,-5.1701,-5.2511,-5.3404,-5.4252,-5.512,-5.5993,-5.6265,-5.6265,-5.6265,-5.6265,-5.6265,-5.6265,-5.6265,-5.6265,-5.6265,-5.6265,-5.6265,-5.6265,-5.6265,-5.6272,-5.6311,-5.6285,-5.6531,-5.7405,-5.8212,-5.9048,-5.9894,-6.0683,-6.1155,-6.1089,-6.0959,-6.0835,-6.0765,-6.052,-6.0299,-6.0159,-6.0041,-5.9966,-5.9902,-5.9902,-5.9902,-5.9902,-5.9902,-5.9902,-5.9902,-5.9902,-5.9902,-5.9902,-5.9902,-5.9902,-5.9902,-5.9902,-5.9902,-5.9902,-5.9902,-5.9902,0.0,-2.9606,0.0,-3.3026,-3.4708,0.0,0.0,0.0,-3.9704,-3.9766,-4.0462,-4.106,-4.1033,-4.2488,-4.3661,-4.3661,-4.4342,-4.4868,-4.4868,-4.5572,-4.6098,-4.6098,-4.6098,-4.6098,-4.6098,-4.6098,-4.6117,-4.6117,-4.6117,-4.6117,-4.6176,-4.6946,-4.7787,-4.8642,-4.9471,-5.0309,-5.1183,-5.1202,-5.1202,-5.1202,-5.1202,-5.1202,-5.1202,-5.1202,-5.1165,-5.1101,-5.1171,-5.1202,-5.1202,-5.1202,-5.1202,-5.1202,-5.1202,-5.1202,-5.1202,-5.1202,-5.1702,-5.2512,-5.3411,-5.4225,-5.5043,-5.5916,-5.6206,-5.6206,-5.6206,-5.6206,-5.6206,-5.6206,-5.6206,-5.6206,-5.6206,-5.6206,-5.6206,-5.6206,-5.6206,-5.6228,-5.6298,-5.6246,-5.6451,-5.7344,-5.8149,-5.8963,-5.9766,-6.0574,-6.108,-6.1012,-6.0886,-6.0765,-6.0629,-6.0379,-6.0159,-6.0026,-5.995,-5.9902,-5.9902,-5.9902,-5.9902,-5.9902,-5.9902,-5.9902,-5.9902,-5.9902,-5.9902,-5.9902,-5.9902,-5.9902,-5.9902,-5.9902,-5.9902,-5.9902,-5.9902,-5.9902,0.0,0.0,0.0,-3.1472,-3.3329,-3.5224,-3.6095,-3.7203,-3.8345,-3.9464,-3.995,-4.0314,-4.081,-4.1897,-4.2703,-4.2703,-4.3403,-4.3967,-4.3967,-4.4725,-4.5269,-4.5269,-4.5716,-4.6047,-4.6047,-4.6066,-4.6095,-4.6095,-4.6108,-4.6108,-4.6095,-4.6392,-4.6921,-4.7741,-4.8605,-4.9745,-5.1183,-5.1202,-5.1202,-5.1202,-5.1202,-5.1171,-5.1133,-5.1133,-5.1114,-5.1101,-5.1134,-5.1134,-5.1134,-5.1134,-5.1134,-5.1134,-5.1134,-5.1134,-5.1134,-5.1134,-5.1321,-5.1754,-5.3157,-5.3829,-5.4299,-5.5734,-5.6199,-5.6199,-5.6199,-5.6199,-5.6199,-5.6199,-5.6199,-5.6199,-5.6199,-5.6199,-5.6199,-5.6199,-5.6199,-5.6206,-5.6236,-5.6209,-5.6609,-5.8005,-5.8479,-5.9069,-6.0439,-6.0867,-6.0992,-6.0886,-6.0793,-6.066,-6.0499,-6.028,-6.0099,-6.001,-5.995,-5.9902,-5.9902,-5.9902,-5.9902,-5.9902,-5.9902,-5.9902,-5.9902,-5.9902,-5.9902,-5.9902,-5.9902,-5.9902,-5.9902,-5.9902,-5.9902,-5.9902,-5.9902,-5.9902,-2.6817,0.0,0.0,0.0,0.0,-3.3604,-3.5041,-3.6032,-3.7081,-3.8538,-3.9291,-3.9854,-4.0402,-4.1199,-4.1767,-4.1767,-4.2481,-4.3063,-4.3063,-4.3802,-4.4462,-4.4773,-4.5258,-4.571,-4.5963,-4.6037,-4.6066,-4.6066,-4.6061,-4.6066,-4.6066,-4.6066,-4.6581,-4.7706,-4.858,-4.9726,-5.1183,-5.1202,-5.1202,-5.1202,-5.1171,-5.1139,-5.1095,-5.1102,-5.1095,-5.106,-5.106,-5.1087,-5.1101,-5.1101,-5.1101,-5.1101,-5.1101,-5.1101,-5.1101,-5.1101,-5.1094,-5.1312,-5.2998,-5.3572,-5.3855,-5.5571,-5.6133,-5.6133,-5.6133,-5.6133,-5.6133,-5.6133,-5.6133,-5.6133,-5.6133,-5.6133,-5.6133,-5.6133,-5.6133,-5.6133,-5.6133,-5.6149,-5.666,-5.8327,-5.8615,-5.9096,-6.079,-6.0982,-6.0908,-6.0804,-6.0692,-6.0533,-6.0356,-6.0178,-6.0041,-5.9963,-5.9918,-5.9902,-5.9902,-5.9902,-5.9902,-5.9902,-5.9902,-5.9902,-5.9902,-5.9902,-5.9902,-5.9902,-5.9902,-5.9902,-5.9902,-5.9902,-5.9902,-5.9902,-5.9902,-5.9902,0.0,0.0,0.0,0.0,0.0,0.0,-3.3821,0.0,-3.6008,-3.6887,-3.8441,-3.9621,-3.966,-4.0305,-4.083,-4.0869,-4.1587,-4.2155,-4.2155,-4.2908,-4.3782,-4.4617,-4.4753,-4.5084,-4.5885,-4.5963,-4.5963,-4.6002,-4.6002,-4.6002,-4.6002,-4.6002,-4.6798,-4.8502,-4.9421,-5.027,-5.1144,-5.1183,-5.1202,-5.1202,-5.1133,-5.1095,-5.1095,-5.1095,-5.106,-5.1005,-5.1005,-5.1027,-5.1094,-5.1094,-5.1094,-5.1094,-5.1094,-5.1094,-5.1094,-5.1094,-5.1053,-5.1237,-5.2895,-5.3472,-5.3768,-5.5432,-5.5993,-5.6012,-5.6012,-5.6012,-5.6012,-5.6012,-5.6012,-5.6012,-5.6012,-5.6012,-5.6012,-5.6012,-5.6012,-5.6012,-5.6012,-5.6046,-5.6593,-5.8267,-5.8556,-5.9022,-6.0712,-6.0886,-6.08,-6.0788,-6.0578,-6.0342,-6.0217,-6.0087,-5.9963,-5.9902,-5.9902,-5.9902,-5.9902,-5.9902,-5.9902,-5.9902,-5.9902,-5.9902,-5.9902,-5.9902,-5.9902,-5.9902,-5.9902,-5.9902,-5.9902,-5.9902,-5.9902,-5.9902,-5.9902,-5.9902,-2.5887,0.0,0.0,0.0,0.0,0.0,0.0,0.0,-3.5119,-3.5969,-3.7042,-3.8013,-3.8635,-3.895,-3.9295,-3.9936,-4.0713,-4.1257,-4.1257,-4.2015,-4.2656,-4.2894,-4.3471,-4.419,-4.5045,-4.5122,-4.5375,0.0,-4.6002,-4.6002,-4.6002,-4.6002,-4.6502,-4.7628,-4.8502,-4.9376,-5.025,-5.0872,-5.1202,-5.1202,-5.1133,-5.1102,-5.1095,-5.106,-5.0998,-5.0941,-5.0941,-5.0941,-5.0956,-5.0956,-5.0956,-5.0956,-5.0956,-5.0956,-5.0956,-5.0956,-5.0948,-5.1076,-5.2179,-5.2964,-5.3672,-5.4774,-5.5528,-5.6012,-5.6012,-5.6012,-5.6012,-5.6012,-5.6012,-5.6012,-5.6012,-5.6012,-5.6012,-5.6012,-5.6012,-5.6012,-5.6012,-5.6014,-5.6527,-5.8273,-5.8548,-5.9022,-6.0648,-6.0869,-6.0722,-6.0552,-6.0444,-6.0332,-6.0087,-6.0026,-5.9963,-5.9902,-5.9902,-5.9902,-5.9902,-5.9902,-5.9902,-5.9902,-5.9902,-5.9902,-5.9902,-5.9902,-5.9902,-5.9902,-5.9902,-5.9902,-5.9902,-5.9902,-5.9902,-5.9902,-5.9902,-5.9902,0.0,0.0,0.0,0.0,0.0,0.0,-3.0461,-3.1859,-3.3274,-3.4497,-3.5721,-3.6712,-3.7217,-3.792,-3.8581,-3.9082,-3.9548,-4.0092,-4.0791,-4.1335,-4.1786,-4.2155,-4.2656,-4.3297,-4.4171,-4.4598,-4.4986,-4.5453,-4.5808,-4.6002,-4.6002,-4.6002,-4.6404,-4.7273,-4.8153,-4.9027,-4.9887,-5.0755,-5.1196,-5.1165,-5.1128,-5.1095,-5.1053,-5.0998,-5.0948,-5.0898,-5.0898,-5.0898,-5.0898,-5.0898,-5.0898,-5.0898,-5.0898,-5.0898,-5.0898,-5.0898,-5.0898,-5.1014,-5.1892,-5.2763,-5.3633,-5.4523,-5.5335,-5.6012,-5.6012,-5.6012,-5.6012,-5.6012,-5.5995,-5.5996,-5.5996,-5.5979,-5.5969,-5.5969,-5.5969,-5.5969,-5.5969,-5.5961,-5.6463,-5.8219,-5.8472,-5.8932,-6.058,-6.0765,-6.0597,-6.0431,-6.0299,-6.0182,-6.001,-5.9982,-5.995,-5.9902,-5.9902,-5.9902,-5.9902,-5.9902,-5.9902,-5.9902,-5.9902,-5.9902,-5.9902,-5.9902,-5.9902,-5.9902,-5.9902,-5.9902,-5.9902,-5.9902,-5.9902,-5.9902,-5.9902,-5.9902,0.0,0.0,0.0,0.0,0.0,0.0,-2.9761,-3.0499,-3.1141,-3.2691,-3.4342,-3.5523,-3.5523,-3.6789,-3.7862,-3.7959,-3.8056,-3.8697,-4.0383,-4.0713,-4.1043,-4.1825,-4.2,-4.2403,-4.3277,-4.4054,-4.4598,-4.4792,-4.5555,-4.6002,-4.6002,-4.6002,-4.6366,-4.7123,-4.7992,-4.8866,-4.9745,-5.0614,-5.1062,-5.1089,-5.1095,-5.1053,-5.1005,-5.0921,-5.0898,-5.0898,-5.0898,-5.0898,-5.089,-5.089,-5.0898,-5.0898,-5.0898,-5.0898,-5.0898,-5.0898,-5.0898,-5.1014,-5.1796,-5.2685,-5.3633,-5.4407,-5.5277,-5.6012,-5.6012,-5.6003,-5.6003,-5.5995,-5.5979,-5.599,-5.599,-5.5953,-5.5895,-5.5895,-5.5885,-5.5885,-5.5885,-5.5875,-5.6348,-5.7998,-5.8305,-5.8817,-6.0481,-6.0629,-6.0458,-6.0375,-6.0152,-5.9994,-5.9979,-5.9934,-5.9902,-5.9902,-5.9902,-5.9902,-5.9902,-5.9902,-5.9902,-5.9902,-5.9902,-5.9902,-5.9902,-5.9902,-5.9902,-5.9902,-5.9902,-5.9902,-5.9902,-5.9902,-5.9902,-5.9902,-5.9902,-5.9902,0.0,0.0,0.0,0.0,0.0,0.0,-2.7527,-2.9237,-3.081,-3.1141,-3.2574,-3.3798,-3.3798,-3.407,-3.4517,-3.5162,-3.5857,-3.6906,-3.8639,-3.9489,-3.9994,-4.0169,-4.0752,-4.149,-4.2364,-4.2622,-4.3302,-4.4695,-4.5555,-4.6002,-4.6002,-4.6002,-4.6079,-4.6249,-4.7101,-4.7957,-4.8772,-4.964,-5.0423,-5.1107,-5.1053,-5.1012,-5.1005,-5.0921,-5.0898,-5.0898,-5.0898,-5.0901,-5.0888,-5.0888,-5.0893,-5.0898,-5.0898,-5.0898,-5.0898,-5.0898,-5.0898,-5.0917,-5.1091,-5.2182,-5.3536,-5.3691,-5.4774,-5.6012,-5.6012,-5.6005,-5.598,-5.5923,-5.5924,-5.5914,-5.5914,-5.5875,-5.5826,-5.5826,-5.5776,-5.5735,-5.5735,-5.5703,-5.5959,-5.7008,-5.7761,-5.8739,-6.0348,-6.0512,-6.0347,-6.0103,-6.0026,-5.9979,-5.9918,-5.9902,-5.9902,-5.9902,-5.9902,-5.9902,-5.9902,-5.9902,-5.9902,-5.9902,-5.9902,-5.9902,-5.9902,-5.9902,-5.9902,-5.9902,-5.9902,-5.9902,-5.9902,-5.9902,-5.9902,-5.9902,-5.9902,-5.9902,0.0,0.0,0.0,-2.5718,0.0,0.0,0.0,-2.7896,-2.8926,-2.9311,-3.0438,-3.1487,-3.1914,-3.2361,-3.2924,-3.3759,-3.4264,-3.4866,-3.5721,-3.7702,-3.9043,-3.9043,-3.9412,-3.9994,-4.0869,-4.1315,-4.2437,-4.4597,-4.5121,-4.5523,-4.5939,-4.5958,-4.5958,-4.5958,-4.6795,-4.7656,-4.8483,-4.9362,-5.0221,-5.1053,-5.1012,-5.0983,-5.0945,-5.0921,-5.0877,-5.0841,-5.0841,-5.0852,-5.0846,-5.0846,-5.0827,-5.0808,-5.0833,-5.0841,-5.0841,-5.0841,-5.0877,-5.0893,-5.0893,-5.205,-5.3498,-5.3453,-5.4605,-5.5987,-5.596,-5.5961,-5.5943,-5.5875,-5.5826,-5.5796,-5.5765,-5.5703,-5.564,-5.564,-5.5618,-5.5596,-5.5596,-5.5573,-5.5788,-5.6647,-5.744,-5.8393,-5.9651,-6.0069,-6.0178,-6.0026,-5.9963,-5.9934,-5.9902,-5.9902,-5.9902,-5.9902,-5.9902,-5.9902,-5.9902,-5.9902,-5.9902,-5.9902,-5.9902,-5.9902,-5.9902,-5.9902,-5.9902,-5.9902,-5.9902,-5.9902,-5.9902,-5.9902,-5.9902,-5.9902,-5.9902,-5.9902,0.0,0.0,0.0,0.0,0.0,-2.5961,0.0,0.0,0.0,-2.7725,0.0,0.0,0.0,0.0,0.0,-3.2175,0.0,0.0,0.0,-3.5305,0.0,-3.7838,-3.8052,-3.8494,-3.9344,-4.0311,-4.1796,-4.4026,-4.4505,-4.4985,-4.564,-4.5828,-4.5899,-4.5899,-4.6565,-4.7424,-4.845,-4.916,-4.9998,-5.0956,-5.0956,-5.0937,-5.0891,-5.0891,-5.0846,-5.0784,-5.0784,-5.0775,-5.0757,-5.0757,-5.072,-5.0664,-5.0757,-5.0784,-5.0784,-5.0784,-5.081,-5.0891,-5.0891,-5.2017,-5.3453,-5.3411,-5.4552,-5.5962,-5.5885,-5.5846,-5.5826,-5.5756,-5.5684,-5.5629,-5.5573,-5.5504,-5.5444,-5.5444,-5.5444,-5.5432,-5.5432,-5.5432,-5.5631,-5.6269,-5.6994,-5.7851,-5.8882,-5.9625,-6.0057,-5.9979,-5.9934,-5.9902,-5.9902,-5.9902,-5.9902,-5.9902,-5.9902,-5.9902,-5.9902,-5.9902,-5.9902,-5.9902,-5.9902,-5.9902,-5.9902,-5.9902,-5.9902,-5.9902,-5.9902,-5.9902,-5.9902,-5.9902,-5.9902,-5.9902,-5.9902,-5.9902,0.0,0.0,0.0,0.0,-2.6659,0.0,0.0,0.0,-2.6837,-2.693,0.0,0.0,0.0,0.0,0.0,0.0,0.0,0.0,-3.082,-3.1902,-3.3505,-3.581,-3.6772,-3.7579,-3.8374,-3.9883,-4.1244,-4.2311,-4.3837,-4.4742,-4.4839,-4.5512,-4.5906,-4.5906,-4.5935,-4.6711,-4.8315,-4.8419,-4.9264,-5.0819,-5.0819,-5.0819,-5.081,-5.081,-5.0775,-5.071,-5.071,-5.0673,-5.0623,-5.0623,-5.0573,-5.0542,-5.0654,-5.071,-5.071,-5.071,-5.0747,-5.081,-5.081,-5.191,-5.3319,-5.3319,-5.4458,-5.5816,-5.5745,-5.5692,-5.5618,-5.5551,-5.5492,-5.5432,-5.5432,-5.5333,-5.5223,-5.5223,-5.5189,-5.5149,-5.5149,-5.5149,-5.5168,-5.5249,-5.5936,-5.6977,-5.8648,-5.954,-5.9979,-5.9918,-5.9902,-5.9902,-5.9902,-5.9902,-5.9902,-5.9902,-5.9902,-5.9902,-5.9902,-5.9902,-5.9902,-5.9902,-5.9902,-5.9902,-5.9902,-5.9902,-5.9902,-5.9902,-5.9902,-5.9902,-5.9902,-5.9902,-5.9902,-5.9902,-5.9902,-5.9902,0.0,0.0,0.0,0.0,0.0,0.0,-2.6451,0.0,-2.6656,0.0,0.0,0.0,0.0,0.0,0.0,0.0,-2.8407,0.0,0.0,0.0,-3.0835,-3.3936,0.0,0.0,-3.6663,-3.8806,-4.0427,-4.1226,-4.2905,-4.4086,-4.4568,-4.5346,-4.5783,-4.5783,-4.5773,-4.6302,-4.7475,-4.799,-4.8831,-4.9979,-5.0461,-5.0673,-5.0683,-5.0683,-5.0654,-5.0585,-5.0544,-5.0502,-5.0478,-5.0446,-5.0382,-5.0337,-5.0396,-5.0483,-5.0585,-5.0585,-5.0625,-5.0683,-5.0683,-5.1799,-5.3398,-5.433,-5.5077,-5.5607,-5.5551,-5.5504,-5.5468,-5.5371,-5.532,-5.5262,-5.5242,-5.5189,-5.5149,-5.5149,-5.5121,-5.5094,-5.5094,-5.5094,-5.508,-5.5038,-5.5731,-5.6519,-5.7207,-5.8391,-5.9232,-5.9219,-5.9601,-5.9902,-5.9902,-5.9902,-5.9902,-5.9902,-5.9902,-5.9902,-5.9902,-5.9902,-5.9902,-5.9902,-5.9902,-5.9902,-5.9902,-5.9902,-5.9902,-5.9902,-5.9902,-5.9902,-5.9902,-5.9902,-5.9902,-5.9902,-5.9902,-5.9902,-3.221,0.0,0.0,0.0,0.0,0.0,0.0,0.0,0.0,0.0,0.0,0.0,0.0,0.0,0.0,0.0,0.0,-2.7443,0.0,-2.7714,0.0,0.0,0.0,0.0,0.0,-3.7389,-3.9013,-4.0249,-4.1725,-4.3031,-4.4052,-4.4858,-4.5401,-4.5632,-4.5624,-4.6003,-4.6835,-4.7711,-4.8538,-4.9356,-5.0182,-5.0556,-5.0551,-5.0551,-5.05,-5.0416,-5.0359,-5.0325,-5.0302,-5.0267,-5.0219,-5.0163,-5.0163,-5.0267,-5.0393,-5.0404,-5.0478,-5.0551,-5.0551,-5.1677,-5.3349,-5.4745,-5.5289,-5.542,-5.5371,-5.5333,-5.5307,-5.5203,-5.5162,-5.5135,-5.508,-5.5071,-5.5057,-5.5057,-5.5057,-5.5057,-5.5057,-5.5057,-5.5042,-5.4985,-5.5483,-5.5905,-5.5864,-5.7232,-5.8331,-5.8331,-5.8824,-5.9298,-5.9541,-5.9563,-5.9674,-5.9883,-5.9902,-5.9902,-5.9902,-5.9902,-5.9902,-5.9902,-5.9902,-5.9902,-5.9902,-5.9902,-5.9902,-5.9902,-5.9902,-5.9902,-5.9902,-5.9902,-5.9902,-5.9902,-5.9902,-5.9902,0.0,0.0,0.0,-3.083,0.0,0.0,0.0,0.0,-2.786,0.0,0.0,0.0,0.0,0.0,0.0,0.0,0.0,0.0,0.0,0.0,0.0,0.0,0.0,0.0,0.0,-3.5684,-3.6754,-3.9251,-4.02,-4.1412,-4.3061,-4.3838,-4.4639,-4.5485,-4.5438,-4.5832,-4.6704,-4.7577,-4.8401,-4.9217,-5.0089,-5.0478,-5.0412,-5.0412,-5.0325,-5.02,-5.02,-5.0182,-5.0108,-5.0108,-5.0108,-5.0108,-5.0108,-5.0108,-5.012,-5.0194,-5.029,-5.0412,-5.0412,-5.1503,-5.3054,-5.3886,-5.4632,-5.5216,-5.5216,-5.5162,-5.5107,-5.5107,-5.5071,-5.5014,-5.5,-5.496,-5.4901,-5.4901,-5.4901,-5.4901,-5.4901,-5.4901,-5.4901,-5.4901,-5.492,-5.4939,-5.4939,-5.6323,-5.7441,-5.7441,-5.746,-5.7782,-5.8631,-5.8745,-5.9049,-5.9826,-5.9902,-5.9902,-5.9902,-5.9902,-5.9902,-5.9902,-5.9902,-5.9902,-5.9902,-5.9902,-5.9902,-5.9902,-5.9902,-5.9902,-5.9902,-5.9902,-5.9902,-5.9902,-5.9902,-5.9902,0.0,0.0,-3.4307,-3.316,0.0,0.0,0.0,0.0,0.0,0.0,0.0,0.0,0.0,0.0,0.0,0.0,0.0,0.0,0.0,0.0,0.0,0.0,0.0,0.0,0.0,0.0,-3.6164,-3.7511,-3.943,-4.1231,-4.2829,-4.3685,-4.4518,-4.5351,-4.535,-4.5453,-4.5698,-4.7092,-4.7911,-4.8163,-4.9556,-5.0219,-5.0194,-5.0194,-5.0182,-5.0133,-5.0095,-5.0038,-5.0031,-4.9992,-4.9978,-4.9978,-4.9978,-4.9978,-4.9992,-5.0076,-5.017,-5.0283,-5.0855,-5.177,-5.2838,-5.3683,-5.4495,-5.5121,-5.508,-5.5038,-5.5028,-5.4971,-5.4941,-5.4927,-5.4927,-5.4916,-5.4901,-5.4901,-5.4901,-5.4901,-5.4901,-5.4901,-5.4901,-5.4901,-5.4901,-5.4901,-5.4901,-5.5375,-5.5943,-5.6512,-5.7062,-5.7497,-5.7801,-5.7839,-5.8161,-5.903,-5.9124,-5.9317,-5.9847,-5.9902,-5.9902,-5.9902,-5.9902,-5.9902,-5.9902,-5.9902,-5.9902,-5.9902,-5.9902,-5.9902,-5.9902,-5.9902,-5.9902,-5.9902,-5.9902,-5.9902,-3.7578,-3.678,0.0,-3.5132,-3.4311,0.0,-3.2617,0.0,-3.0974,0.0,0.0,0.0,0.0,0.0,0.0,0.0,0.0,0.0,0.0,-2.5327,0.0,0.0,0.0,0.0,0.0,-3.3004,-3.5078,-3.6164,-3.8266,-4.0204,-4.18,-4.2938,-4.3958,-4.4785,-4.5091,-4.5203,-4.517,-4.6835,-4.7631,-4.7615,-4.9308,-5.0095,-5.007,-5.007,-5.0057,-5.0031,-4.9992,-4.9946,-4.9965,-4.9925,-4.9912,-4.9912,-4.9912,-4.9912,-4.9912,-5.0005,-5.0044,-5.0146,-5.071,-5.1623,-5.2637,-5.318,-5.413,-5.5028,-5.4971,-5.4956,-5.496,-5.4916,-5.4901,-5.4901,-5.4901,-5.4901,-5.4901,-5.4901,-5.4901,-5.4901,-5.4901,-5.4901,-5.4901,-5.4901,-5.4901,-5.4901,-5.4901,-5.4901,-5.5091,-5.564,-5.6171,-5.6626,-5.6929,-5.6967,-5.7289,-5.8142,-5.8521,-5.903,-5.9845,-5.9902,-5.9902,-5.9902,-5.9902,-5.9902,-5.9902,-5.9902,-5.9902,-5.9902,-5.9902,-5.9902,-5.9902,-5.9902,-5.9902,-5.9902,-5.9902,-5.9902]},{"header":{"parameterUnit":"m.s-1","parameterCategory":1,"la1":30.6,"la2":29.2853,"lo1":-89.7004,"lo2":-87.6739,"dy":0.0162,"dx":0.0183,"nx":112,"ny":82,"refTime":"2023-03-06T18:00:00:Z","depth":0,"parameterNumber":3,"parameterNumberName":"V-component_of_WINDS"},"data":[0.0,0.0,0.0,0.0,0.0,0.0,0.0,0.0,0.0,0.0,0.0,0.0,0.0,0.0,0.0,0.0,0.0,0.0,0.0,0.0,0.0,0.0,0.0,0.0,0.0,0.0,0.0,0.0,0.0,0.0,0.0,0.0,0.0,0.0,0.0,0.0,0.0,0.0,0.0,0.0,0.0,0.0,0.0,0.0,0.0,0.0,0.0,0.0,0.0,0.0,0.0,0.0,0.0,0.0,0.0,0.0,0.0,0.0,0.0,0.0,0.0,0.0,0.0,0.0,0.0,0.0,0.0,0.0,0.0,0.0,0.0,0.0,0.0,0.0,0.0,0.0,0.0,0.0,0.0,0.0,0.0,0.0,0.0,0.0,0.0,0.0,0.0,0.0,0.0,0.0,0.431,0.4338,0.4835,0.5266,0.5501,0.5714,0.5837,0.5723,0.0,0.0,0.0,0.0,0.0,0.0,0.0,0.0,0.0,0.0,0.0,0.0,0.0,0.0,0.0,0.0,0.0,0.0,0.0,0.0,0.0,0.0,0.0,0.0,0.0,0.0,0.0,0.0,0.0,0.0,0.0,0.0,0.0,0.0,0.0,0.0,0.0,0.0,0.0,0.0,0.0,0.0,0.0,0.0,0.0,0.0,0.0,0.0,0.0,0.0,0.0,0.0,0.0,0.0,0.0,0.0,0.0,0.0,0.0,0.0,0.0,0.0,0.0,0.0,0.0,0.0,0.0,0.0,0.0,0.0,0.0,0.0,0.0,0.0,0.0,0.0,0.0,0.0,0.0,0.0,0.0,0.0,0.0,0.0,0.0,0.0,0.0,0.0,0.0,0.0,0.0,0.0,0.0,0.0,0.0,0.0,0.0,0.0,0.0,0.0,0.0,0.0,0.0,0.0,0.4359,0.4514,0.4897,0.5243,0.549,0.5646,0.5777,0.5885,0.0,0.0,0.0,0.0,0.0,0.0,0.0,0.0,0.0,0.0,0.0,0.0,0.0,0.0,0.0,0.0,0.0,0.0,0.0,0.0,0.0,0.0,0.0,0.0,0.0,0.0,0.0,0.0,0.0,0.0,0.0,0.0,0.0,0.0,0.0,0.0,0.0,0.0,0.0,0.0,0.0,0.0,0.0,0.0,0.0,0.0,0.0,0.0,0.0,0.0,0.0,0.0,0.0,0.0,0.0,0.0,0.0,0.0,0.0,0.0,0.0,0.0,0.0,0.0,0.0,0.0,0.0,0.0,0.0,0.0,0.0,0.0,0.0,0.0,0.0,0.0,0.0,0.0,0.0,0.0,0.0,0.0,0.0,0.0,0.0,0.0,0.0,0.0,0.0,0.0,0.0,0.0,0.0,0.0,0.0,0.0,0.0,0.0,0.0,0.0,0.0,0.0,0.0,0.4291,0.4424,0.4604,0.4892,0.5143,0.5291,0.5391,0.5472,0.545,0.5613,0.0,0.0,0.0,0.0,0.0,0.0,0.0,0.0,0.0,0.0,0.0,0.0,0.0,0.0,0.0,0.0,0.0,0.0,0.0,0.0,0.0,0.0,0.0,0.0,0.0,0.0,0.0,0.0,0.0,0.0,0.0,0.0,0.0,0.0,0.0,0.0,0.0,0.0,0.0,0.0,0.0,0.0,0.0,0.0,0.0,0.0,0.0,0.0,0.0,0.0,0.0,0.0,0.0,0.0,0.0,0.0,0.0,0.0,0.0,0.0,0.0,0.0,0.0,0.0,0.0,0.0,0.0,0.0,0.0,0.0,0.0,0.0,0.0,0.0,0.0,0.0,0.0,0.0,0.0,0.0,0.0,0.0,0.0,0.0,0.0,0.0,0.0,0.0,0.0,0.0,0.0,0.0,0.0,0.0,0.0,0.0,0.0,0.0,0.0,0.0,0.0,0.0,0.4412,0.4502,0.4594,0.4878,0.5078,0.5127,0.5161,0.52,0.5164,0.5267,0.0,0.0,0.0,0.0,0.0,0.0,0.0,0.0,0.0,0.0,0.0,0.0,0.0,0.0,0.0,0.0,0.0,0.0,0.0,0.0,0.0,0.0,0.0,0.0,0.0,0.0,0.0,0.0,0.0,0.0,0.0,0.0,0.0,0.0,0.0,0.0,0.0,0.0,0.0,0.0,0.0,0.0,0.0,0.0,0.0,0.0,0.0,0.0,0.0,0.0,0.0,0.0,0.0,0.0,0.0,0.0,0.0,0.0,0.0,0.0,0.0,0.0,0.0,0.0,0.0,0.0,0.0,0.0,0.0,0.0,0.0,0.0,0.0,0.0,0.0,0.0,0.0,0.0,0.0,0.0,0.0,0.0,0.0,0.0,0.0,0.0,0.0,0.0,0.0,0.0,0.0,0.0,0.0,0.0,0.0,0.0,0.0,0.0,0.0,0.0,0.0,0.0,0.4506,0.4598,0.4689,0.4775,0.4926,0.5179,0.5006,0.5036,0.527,0.5125,0.0,0.0,0.0,0.0,0.0,0.0,0.0,0.0,0.0,0.0,0.0,0.0,0.0,0.0,0.0,0.0,0.0,0.0,0.0,0.0,0.0,0.0,0.0,0.0,0.0,0.0,0.0,0.0,0.0,0.0,0.0,0.0,0.0,0.0,0.0,0.0,0.0,0.0,0.0,0.0,0.0,0.0,0.0,0.0,0.0,0.0,0.0,0.0,0.0,0.0,0.0,0.0,0.0,0.0,0.0,0.0,0.0,0.0,0.0,0.0,0.0,0.0,0.0,0.0,0.0,0.0,0.0,0.0,0.0,0.0,0.0,0.0,0.0,0.0,0.0,0.0,0.0,0.0,0.0,0.0,0.0,0.0,0.0,0.0,0.0,0.0,0.0,0.0,0.0,0.0,0.0,0.0,0.0,0.0,0.0,0.0,0.0,0.0,0.0,0.0,0.0,0.0,0.4516,0.4608,0.47,0.4783,0.4834,0.4937,0.4822,0.4822,0.486,0.0,0.0,0.0,0.0,0.0,0.0,0.0,0.0,0.0,0.0,0.0,0.0,0.0,0.0,0.0,0.0,0.0,0.0,0.0,0.0,0.0,0.0,0.0,0.0,0.0,0.0,0.0,0.0,0.0,0.0,0.0,0.0,0.0,0.0,0.0,0.0,0.0,0.0,0.0,0.0,0.0,0.0,0.0,0.0,0.0,0.0,0.0,0.0,0.0,0.0,0.0,0.0,0.0,0.0,0.0,0.0,0.0,0.0,0.0,0.0,0.0,0.0,0.0,0.0,0.0,0.0,0.0,0.0,0.0,0.0,0.0,0.0,0.0,0.0,0.0,0.0,0.0,0.0,0.0,0.0,0.0,0.0,0.0,0.0,0.0,0.0,0.0,0.0,0.0,0.0,0.0,0.0,0.0,0.0,0.0,0.0,0.0,0.0,0.0,0.0,0.0,0.0,0.444,0.4532,0.4618,0.4736,0.475,0.4784,0.4784,0.4757,0.4669,0.4627,0.0,0.0,0.0,0.0,0.0,0.0,0.0,0.0,0.0,0.0,0.0,0.0,0.0,0.0,0.0,0.0,0.0,0.0,0.0,0.0,0.0,0.0,0.0,0.0,0.0,0.0,0.0,0.0,0.0,0.0,0.0,0.0,0.0,0.0,0.0,0.0,0.0,0.0,0.0,0.0,0.0,0.0,0.0,0.0,0.0,0.0,0.0,0.0,0.0,0.0,0.0,0.0,0.0,0.0,0.0,0.0,0.0,0.0,0.0,0.0,0.0,0.0,0.0,0.0,0.0,0.0,0.0,0.0,0.0,0.0,0.0,0.0,0.0,0.0,0.0,0.0,0.0,0.0,0.0,0.0,0.0,0.0,0.0,0.0,0.0,0.0,0.0,0.0,0.0,0.0,0.0,0.0,0.0,0.0,0.0,0.0,0.0,0.0,0.0,0.0,0.0,0.0,0.4526,0.4621,0.464,0.4766,0.4784,0.4784,0.4784,0.4757,0.4671,0.0,0.0,0.0,0.0,0.0,0.0,0.0,0.0,0.0,0.0,0.0,0.0,0.0,0.0,0.0,0.0,0.0,0.0,0.0,0.0,0.0,0.0,0.0,0.0,0.0,0.0,0.0,0.0,0.0,0.0,0.0,0.0,0.0,0.0,0.0,0.0,0.0,0.0,0.0,0.0,0.0,0.0,0.0,0.0,0.0,0.0,0.0,0.0,0.0,0.0,0.0,0.0,0.0,0.0,0.0,0.0,0.0,0.0,0.0,0.0,0.0,0.0,0.0,0.0,0.0,0.0,0.0,0.0,0.0,0.0,0.0,0.0,0.0,0.0,0.0,0.0,0.0,0.0,0.0,0.0,0.0,0.0,0.0,0.0,0.0,0.0,0.0,0.0,0.0,0.0,0.0,0.0,0.0,0.0,0.0,0.0,0.0,0.0,0.0,0.0,0.0,0.0,0.0,0.459,0.4628,0.471,0.4772,0.4784,0.4784,0.4784,0.4762,0.4761,0.4673,0.0,0.0,0.0,0.0,0.0,0.0,0.0,0.0,0.0,0.0,0.0,0.0,0.0,0.0,0.0,0.0,0.0,0.0,0.0,0.0,0.0,0.0,0.0,0.0,0.0,0.0,0.0,0.0,0.0,0.0,0.0,0.0,0.0,0.0,0.0,0.0,0.0,0.0,0.0,0.0,0.0,0.0,0.0,0.0,0.0,0.0,0.0,0.0,0.0,0.0,0.0,0.0,0.0,0.0,0.0,0.0,0.0,0.0,0.0,0.0,0.0,0.0,0.0,0.0,0.0,0.0,0.0,0.0,0.0,0.0,0.0,0.0,0.0,0.0,0.0,0.0,0.0,0.0,0.0,0.0,0.0,0.0,0.0,0.0,0.0,0.0,0.0,0.0,0.0,0.0,0.0,0.0,0.0,0.0,0.0,0.0,0.0,0.0,0.0,0.0,0.0,0.0,0.4596,0.4681,0.4792,0.4879,0.4922,0.4945,0.4945,0.491,0.4851,0.4765,0.0,0.0,0.0,0.0,0.0,0.0,0.0,0.0,0.0,0.0,0.0,0.0,0.0,0.0,0.0,0.0,0.0,0.0,0.0,0.0,0.0,0.0,0.0,0.0,0.0,0.0,0.0,0.0,0.0,0.0,0.0,0.0,0.0,0.0,0.0,0.0,0.0,0.0,0.0,0.0,0.0,0.0,0.0,0.0,0.0,0.0,0.0,0.0,0.0,0.0,0.0,0.0,0.0,0.0,0.0,0.0,0.0,0.0,0.0,0.0,0.0,0.0,0.0,0.0,0.0,0.0,0.0,0.0,0.0,0.0,0.0,0.0,0.0,0.0,0.0,0.0,0.0,0.0,0.0,0.0,0.0,0.0,0.0,0.0,0.0,0.0,0.0,0.0,0.0,0.0,0.0,0.0,0.0,0.0,0.0,0.0,0.0,0.0,0.0,0.0,0.0,0.0,0.4563,0.4738,0.4879,0.4963,0.5053,0.5108,0.5108,0.5032,0.4945,0.4802,0.0,0.0,0.0,0.0,0.0,0.0,0.0,0.0,0.0,0.0,0.0,0.0,0.0,0.0,0.0,0.0,0.0,0.0,0.0,0.0,0.0,0.0,0.0,0.0,0.0,0.0,0.0,0.0,0.0,0.0,0.0,0.0,0.0,0.0,0.0,0.0,0.0,0.0,0.0,0.0,0.0,0.0,0.0,0.0,0.0,0.0,0.0,0.0,0.0,0.0,0.0,0.0,0.0,0.0,0.0,0.0,0.0,0.0,0.0,0.0,-0.2616,-0.2589,0.0,0.0,0.0,0.0,0.0,0.0,0.0,0.0,0.0,0.0,0.0,0.0,0.0,0.0,0.0,0.0,0.0,0.0,0.0,0.0,0.0,0.0,0.0,0.0,0.0,0.0,0.0,0.0,0.0,0.0,0.0,0.0,0.0,0.0,0.0,0.0,0.0,0.0,0.0,0.0,0.4372,0.4732,0.4949,0.5021,0.5053,0.5108,0.5108,0.509,0.5041,0.4949,0.4857,0.0,0.0,0.0,0.0,0.0,0.0,0.0,0.0,0.0,0.0,0.0,0.0,0.0,0.0,0.0,0.0,0.0,0.0,0.0,0.0,0.0,0.0,0.0,0.0,0.0,0.0,0.0,0.0,0.0,0.0,0.0,0.0,0.0,0.0,0.0,0.0,0.0,0.0,0.0,0.0,0.0,0.0,0.0,0.0,0.0,0.0,0.0,0.0,0.0,0.0,0.0,0.0,0.0,0.0,0.0,0.0,0.0,0.0,0.0,-0.2729,-0.2674,0.0,0.0,0.0,0.0,0.0,0.0,0.0,0.0,0.0,0.0,0.0,0.0,0.0,0.0,0.0,0.0,0.0,0.0,0.0,0.0,0.0,0.0,0.0,0.0,0.0,0.0,0.0,0.0,0.0,0.0,0.0,0.0,0.0,0.0,0.0,0.0,0.0,0.0,0.0,0.0,0.4159,0.4566,0.4843,0.4884,0.513,0.5239,0.5239,0.52,0.5153,0.5106,0.4975,0.0,0.0,0.0,0.0,0.0,0.0,0.0,0.0,0.0,0.0,0.0,0.0,0.0,0.0,0.0,0.0,0.0,0.0,0.0,0.0,0.0,0.0,0.0,0.0,0.0,0.0,0.0,0.0,0.0,0.0,0.0,0.0,0.0,0.0,0.0,0.0,0.0,0.0,0.0,0.0,0.0,0.0,0.0,0.0,0.0,0.0,0.0,0.0,0.0,0.0,0.0,0.0,0.0,-0.2946,-0.2771,-0.2874,-0.2874,-0.2928,-0.3012,-0.2861,-0.2743,-0.2723,-0.2713,0.0,0.0,0.0,0.0,0.0,0.0,0.0,0.0,0.0,0.0,0.0,0.0,0.0,0.0,0.0,0.0,0.0,0.0,0.0,0.0,0.0,0.0,0.2975,0.3073,0.3097,0.3041,0.2797,0.0,0.0,0.0,0.0,0.0,0.0,0.0,0.0,0.0,0.0,0.0,0.3934,0.4391,0.4729,0.4798,0.5159,0.5382,0.5382,0.5312,0.5207,0.519,0.5102,0.4971,0.0,0.0,0.0,0.0,0.0,0.0,0.0,0.0,0.0,0.0,0.0,0.0,0.0,0.0,0.0,0.0,0.0,0.0,0.0,0.0,0.0,0.0,0.0,0.0,0.0,0.0,0.0,0.0,0.0,0.0,0.0,0.0,-0.3626,-0.3756,0.0,0.0,0.0,0.0,0.0,0.0,0.0,0.0,0.0,0.0,0.0,0.0,0.0,-0.3958,-0.3958,-0.3631,-0.3491,-0.3469,-0.3124,-0.3001,-0.3061,-0.3061,-0.3069,-0.3083,-0.3059,0.0,-0.2891,-0.2793,0.0,0.0,0.0,0.0,0.0,0.0,0.0,0.0,0.0,0.0,0.0,0.0,0.0,0.0,0.0,0.0,0.0,0.0,0.0,0.0,0.0,0.0,0.3077,0.3093,0.3097,0.3088,0.3057,0.305,0.305,0.305,0.305,0.3051,0.0,0.0,0.0,0.0,0.0,0.0,0.3708,0.4367,0.4792,0.4804,0.5159,0.5382,0.5382,0.5369,0.5331,0.5194,0.5166,0.5132,0.4961,0.4867,0.0,0.0,0.0,0.0,0.0,0.0,0.0,0.0,0.0,0.0,0.0,0.0,0.0,0.0,0.0,0.0,0.0,0.0,0.0,0.0,0.0,0.0,0.0,0.0,0.0,0.0,0.0,0.0,0.0,-0.3591,-0.3718,-0.3798,-0.3802,-0.3802,0.0,0.0,0.0,0.0,0.0,0.0,0.0,0.0,0.0,-0.3992,-0.4132,-0.4183,-0.4183,-0.383,-0.3682,-0.367,-0.3231,-0.307,-0.3097,-0.3097,-0.3116,-0.3098,-0.3112,-0.3087,-0.3019,-0.2958,-0.2962,-0.2892,0.0,0.0,0.0,0.0,-0.1672,-0.1311,-0.0768,-0.0316,0.0045,0.0362,0.0,0.0,0.0,0.0,0.0,0.0,0.0,0.2292,0.2502,0.2882,0.3159,0.3195,0.3229,0.3253,0.3253,0.3253,0.3213,0.3123,0.3097,0.3097,0.3097,0.3097,0.0,0.0,0.0,0.343,0.3561,0.4005,0.4332,0.4319,0.4797,0.51,0.51,0.5268,0.5365,0.5324,0.5219,0.5154,0.5128,0.4988,0.4894,0.0,0.0,0.0,0.0,0.0,0.0,0.0,0.0,0.0,0.0,0.0,0.0,0.0,0.0,0.0,0.0,0.0,0.0,0.0,0.0,0.0,0.0,0.0,0.0,0.0,0.0,0.0,0.0,-0.3665,-0.381,-0.3835,-0.3837,-0.3847,0.0,0.0,0.0,0.0,0.0,0.0,-0.4059,-0.4061,-0.4081,-0.4171,-0.43,-0.4369,-0.4369,-0.4083,-0.3919,-0.3938,-0.3503,-0.3319,-0.3335,-0.3335,-0.3315,-0.321,-0.3213,-0.317,-0.3108,-0.3129,-0.3097,-0.3049,-0.2715,-0.2525,-0.2334,-0.1716,-0.1335,-0.1001,-0.0238,0.0143,0.0381,0.0763,0.0906,0.0906,0.0906,0.0,0.0,0.0,0.0,0.2531,0.2791,0.304,0.3289,0.3334,0.3379,0.3413,0.3413,0.3413,0.3358,0.3227,0.3191,0.3191,0.3191,0.3191,0.0,0.3263,0.3289,0.3346,0.348,0.373,0.3926,0.3976,0.4482,0.4817,0.4817,0.5098,0.5268,0.5268,0.5261,0.5215,0.519,0.5114,0.502,0.5025,0.0,0.0,0.0,0.0,0.0,0.0,0.0,0.0,0.0,0.0,0.0,0.0,0.0,0.0,0.0,0.0,0.0,0.0,0.0,0.0,0.0,0.0,0.0,0.0,0.0,0.0,0.0,0.0,0.0,-0.3883,-0.3891,0.0,0.0,0.0,0.0,-0.3986,-0.3992,-0.4065,-0.4277,-0.4285,-0.4365,-0.4588,-0.4602,-0.4606,-0.4606,-0.4328,-0.4229,-0.4259,-0.4013,-0.3902,-0.3971,-0.3971,-0.3825,-0.358,-0.3577,-0.3425,-0.3167,-0.3146,-0.3097,-0.3049,-0.2715,-0.2335,-0.1908,-0.1622,-0.0906,-0.0048,0.0,0.0477,0.1144,0.1192,0.1192,0.1192,0.1192,0.1383,0.0,0.0,0.2465,0.2892,0.2945,0.3188,0.3403,0.3407,0.341,0.3413,0.3413,0.3413,0.3409,0.3397,0.3394,0.3394,0.3394,0.0,0.3397,0.3402,0.3448,0.3486,0.3495,0.3769,0.3977,0.3982,0.4314,0.4536,0.4536,0.4761,0.4931,0.4931,0.5208,0.5335,0.5192,0.5182,0.5149,0.5027,0.5015,0.0,0.0,0.0,0.0,0.0,0.0,0.0,0.0,0.0,0.0,0.0,0.0,0.0,0.0,0.0,0.0,0.0,0.0,0.0,0.0,0.0,0.0,0.0,0.0,0.0,0.0,0.0,0.0,-0.3975,-0.3946,0.0,-0.399,-0.4095,-0.4206,-0.4206,-0.4314,-0.4408,-0.4471,-0.4475,-0.4506,-0.4619,-0.4628,-0.4661,-0.4661,-0.4422,-0.4365,-0.4344,-0.4093,-0.4033,-0.4108,-0.3901,-0.3824,-0.3764,-0.3556,-0.34,-0.3345,-0.3301,-0.3237,-0.3116,-0.267,-0.2275,-0.1879,-0.1287,-0.0699,-0.0202,0.0403,0.0762,0.1078,0.1384,0.1538,0.1538,0.1794,0.1897,0.2108,0.2552,0.2823,0.2989,0.3188,0.3385,0.3466,0.3466,0.3496,0.3525,0.3525,0.3525,0.3525,0.3525,0.3465,0.3413,0.3413,0.3413,0.3425,0.3461,0.3484,0.3511,0.3549,0.3687,0.3757,0.3757,0.398,0.4203,0.4203,0.465,0.4873,0.4873,0.5212,0.5367,0.5335,0.5221,0.516,0.5149,0.5032,0.4941,0.0,0.0,0.0,0.0,0.0,0.0,0.0,0.0,0.0,0.0,0.0,0.0,0.0,0.0,0.0,0.0,0.0,0.0,0.0,0.0,0.0,0.0,0.0,0.0,0.0,-0.3887,-0.3979,-0.4071,-0.4108,-0.4093,-0.4124,-0.4304,-0.4391,-0.4391,-0.4504,-0.4633,-0.4616,-0.4618,-0.463,-0.4659,-0.4749,-0.4798,-0.4798,-0.4683,-0.4623,-0.4623,-0.4365,-0.4289,-0.4341,-0.4028,-0.3842,-0.3833,-0.3623,-0.3465,-0.3413,-0.3413,-0.3365,-0.3189,-0.2673,-0.2313,-0.1953,-0.1132,-0.057,-0.0157,0.0629,0.0845,0.096,0.1439,0.1545,0.1652,0.2077,0.2237,0.2454,0.2899,0.3118,0.3229,0.3412,0.3499,0.3527,0.3527,0.3557,0.3587,0.3587,0.3587,0.3587,0.3587,0.3525,0.3471,0.3471,0.3471,0.3484,0.3522,0.3527,0.3542,0.3582,0.3587,0.3587,0.3587,0.3757,0.3868,0.3868,0.4426,0.4761,0.4761,0.5156,0.5382,0.5382,0.5324,0.5221,0.519,0.5096,0.5002,0.5023,0.0,0.0,0.0,0.0,0.0,0.0,0.0,0.0,0.0,0.0,0.0,0.0,0.0,0.0,0.0,0.0,0.0,0.0,0.0,0.0,0.0,0.0,0.0,-0.3891,-0.3983,-0.4075,-0.4169,-0.4255,-0.4338,-0.4384,-0.4522,-0.4625,-0.4625,-0.4627,-0.462,-0.4708,-0.4714,-0.4755,-0.4786,-0.4928,-0.5027,-0.5027,-0.5063,-0.5108,-0.5108,-0.4841,-0.468,-0.4684,-0.4369,-0.4051,-0.3785,-0.3785,-0.3629,-0.3418,-0.3418,-0.3418,-0.3364,-0.2826,-0.2451,-0.2077,-0.1226,-0.0533,0.0053,0.0588,0.0801,0.0855,0.1176,0.1283,0.1389,0.2028,0.2402,0.2679,0.2998,0.3283,0.3514,0.3572,0.3587,0.3587,0.3587,0.3587,0.3587,0.3587,0.3587,0.3587,0.3587,0.3587,0.3587,0.3587,0.3587,0.3587,0.3587,0.3587,0.0,0.3587,0.3587,0.3587,0.3587,0.3587,0.3587,0.3587,0.4145,0.448,0.448,0.5043,0.5382,0.5382,0.5382,0.5339,0.5192,0.5157,0.5067,0.5027,0.0,0.0,0.0,0.0,0.0,0.0,0.0,0.0,0.0,0.0,0.0,0.0,0.0,0.0,0.0,0.0,0.0,0.0,0.0,0.0,0.0,-0.3857,-0.3969,-0.3954,-0.4077,-0.4191,-0.4344,-0.4383,-0.4432,-0.4526,-0.4618,-0.4671,-0.4671,-0.4728,-0.4773,-0.475,-0.4863,-0.491,-0.4934,-0.5022,-0.5071,-0.5071,-0.5096,-0.5108,-0.5108,-0.4841,-0.4712,-0.477,-0.4231,-0.399,-0.3926,-0.3759,-0.3593,-0.354,-0.354,-0.354,-0.3475,-0.2852,-0.2451,-0.2131,-0.1438,-0.0698,0.0,0.0165,0.0498,0.0941,0.1217,0.1272,0.1438,0.2324,0.2601,0.2769,0.3338,0.3507,0.3567,0.3583,0.3587,0.3587,0.3587,0.3587,0.3587,0.3587,0.3587,0.3587,0.3587,0.3587,0.3587,0.3587,0.3587,0.3587,0.3587,0.3587,0.3587,0.3587,0.3587,0.3587,0.3587,0.3587,0.3587,0.3587,0.4145,0.448,0.448,0.5043,0.5382,0.5382,0.5382,0.5339,0.5192,0.5164,0.5161,0.0,0.0,0.0,0.0,0.0,0.0,0.0,0.0,0.0,0.0,0.0,0.0,0.0,0.0,0.0,0.0,0.0,0.0,0.0,0.0,0.0,0.0,-0.4004,-0.4146,-0.4146,-0.4226,-0.4334,-0.4477,-0.4526,-0.4571,-0.4624,-0.471,-0.4761,-0.4761,-0.4843,-0.4892,-0.4892,-0.4979,-0.5028,-0.5028,-0.5118,-0.5165,-0.5165,-0.504,-0.5004,-0.5004,-0.4624,-0.4429,-0.4472,-0.3977,-0.3776,-0.3813,-0.3643,-0.3587,-0.3587,-0.3587,-0.3587,-0.3525,0.0,0.0,0.0,0.0,-0.0931,-0.0332,-0.0223,0.0056,0.0449,0.0953,0.1121,0.1346,0.2357,0.2693,0.2806,0.3419,0.3587,0.3587,0.3587,0.3587,0.3587,0.3587,0.3587,0.3587,0.3587,0.3587,0.3587,0.3587,0.3587,0.0,0.3587,0.3587,0.3587,0.3587,0.3587,0.3587,0.3587,0.3587,0.3587,0.3587,0.3587,0.3587,0.3587,0.4145,0.0,0.0,0.0,0.5382,0.5382,0.5382,0.0,0.0,0.0,0.5257,0.5165,0.5165,0.0,0.0,0.4949,0.5186,0.0,0.0,0.0,0.0,0.0,0.0,0.0,0.0,0.0,0.0,0.0,0.0,0.0,0.0,0.0,0.0,-0.4144,-0.431,-0.434,-0.4416,-0.4496,-0.4577,-0.4659,-0.4712,-0.4722,-0.48,-0.48,-0.48,-0.4934,-0.4988,-0.4988,-0.5073,0.0,0.0,0.0,-0.5204,-0.5204,-0.5004,-0.4873,-0.4873,-0.426,-0.3982,-0.398,-0.3699,-0.3587,-0.3587,-0.3587,-0.3587,-0.3587,-0.3587,-0.3587,-0.3587,-0.325,-0.2915,-0.2525,-0.1683,-0.1234,-0.0897,-0.0561,0.0,0.0,0.0617,0.0897,0.1177,0.2356,0.2693,0.2862,0.3419,0.3587,0.3587,0.3587,0.3587,0.3587,0.3587,0.3587,0.3587,0.3587,0.3587,0.3587,0.3587,0.3587,0.3587,0.3587,0.3587,0.3587,0.3587,0.3587,0.3587,0.3587,0.3587,0.3587,0.3587,0.3587,0.0,0.3587,0.4145,0.448,0.448,0.5043,0.5382,0.5382,0.5382,0.5382,0.5382,0.5382,0.5341,0.5204,0.5204,0.5218,0.5192,0.5118,0.5432,0.0,0.0,0.0,0.0,0.0,0.0,0.0,0.0,0.0,0.0,0.0,0.0,0.0,0.0,0.0,-0.4195,-0.4265,-0.4377,-0.4598,-0.4645,-0.4663,-0.4679,-0.4698,-0.4734,-0.4754,-0.4892,-0.4945,-0.4945,-0.503,-0.5081,-0.5081,-0.5169,-0.5164,-0.5164,-0.5306,-0.5355,-0.5355,-0.5035,-0.4873,-0.4873,-0.426,0.0,-0.398,-0.3699,-0.3587,-0.3587,-0.3587,-0.3587,-0.3587,-0.3587,-0.3587,-0.3587,-0.325,-0.2746,-0.23,-0.2076,-0.1683,-0.1177,-0.0897,-0.0617,-0.028,0.0617,0.1065,0.1402,0.2413,0.2861,0.0,0.3475,0.3587,0.3587,0.3587,0.3587,0.3587,0.3587,0.3587,0.3587,0.3587,0.3587,0.3587,0.3587,0.3587,0.3587,0.3587,0.3587,0.3587,0.3587,0.3587,0.3587,0.3587,0.3587,0.3587,0.3587,0.3587,0.3587,0.3587,0.4145,0.448,0.448,0.5043,0.5382,0.5382,0.5382,0.5382,0.5382,0.5382,0.5373,0.5355,0.5355,0.5456,0.5652,0.5283,0.536,0.0,0.0,0.0,0.0,0.0,0.0,0.0,0.0,0.0,0.0,0.0,-0.4029,0.0,0.0,-0.4197,-0.4283,-0.4414,-0.4553,-0.4689,-0.4745,-0.4771,-0.4771,-0.4771,-0.4806,-0.4894,-0.4945,-0.499,-0.5037,-0.5124,-0.5175,-0.5175,-0.5263,-0.5312,-0.5312,-0.5357,-0.5326,-0.5156,-0.4873,-0.4594,-0.4428,-0.4036,-0.3813,-0.3813,-0.3643,-0.3587,-0.3587,-0.3587,-0.3587,-0.3587,-0.3587,-0.3587,-0.3587,-0.325,-0.2859,-0.2413,-0.2244,-0.1908,-0.1514,-0.1065,-0.0785,-0.0505,0.0561,0.1065,0.1458,0.2413,0.2859,0.3194,0.3531,0.3587,0.3587,0.3587,0.3587,0.3587,0.3587,0.3587,0.3587,0.3587,0.3587,0.3587,0.3587,0.3587,0.3597,0.3628,0.3632,0.3623,0.3593,0.3587,0.3587,0.3587,0.3587,0.36,0.363,0.3632,0.3646,0.3676,0.4251,0.4707,0.5051,0.5339,0.5512,0.5512,0.5469,0.5445,0.5445,0.5404,0.5382,0.5382,0.5382,0.5547,0.5819,0.5558,0.5702,0.0,0.0,0.0,0.0,0.0,0.0,0.0,0.0,-0.407,-0.4247,-0.4146,-0.4095,-0.4263,-0.4301,-0.4336,-0.4373,-0.4565,-0.4714,-0.473,-0.4742,-0.479,-0.4859,-0.4861,-0.489,-0.4965,-0.5004,-0.5055,-0.5128,-0.5218,-0.5217,-0.5217,-0.5341,-0.5382,-0.5382,-0.5326,-0.5156,-0.4929,-0.4592,-0.4258,-0.3982,-0.3755,-0.3587,-0.3587,-0.3587,-0.3587,-0.3587,-0.3587,-0.3587,-0.3587,-0.3587,-0.3587,-0.3475,-0.3194,-0.2915,-0.2581,-0.23,-0.1964,-0.1627,-0.1065,-0.0841,-0.0561,0.0617,0.1177,0.1627,0.2524,0.2971,0.325,0.3531,0.3587,0.3587,0.3587,0.3587,0.3587,0.3587,0.3587,0.3587,0.3587,0.3597,0.3605,0.3605,0.3615,0.3639,0.3687,0.3696,0.3679,0.363,0.3623,0.3623,0.3623,0.3623,0.3642,0.3691,0.3696,0.3773,0.3941,0.4413,0.4941,0.5584,0.5584,0.5584,0.5584,0.5573,0.5533,0.5533,0.5467,0.5433,0.5433,0.5433,0.56,0.5935,0.5935,0.6196,-0.3241,-0.3287,-0.3406,-0.3496,-0.3696,-0.3938,0.0,0.0,-0.4208,-0.4268,-0.4236,-0.42,-0.4295,-0.4351,-0.4427,-0.4636,-0.4689,-0.4734,-0.476,-0.4778,-0.4865,-0.4947,-0.4955,-0.4961,-0.5023,-0.5118,-0.5164,-0.5174,-0.5314,-0.5365,-0.5365,-0.5375,-0.5382,-0.5382,-0.5098,-0.4931,-0.4873,-0.4316,-0.4036,-0.3982,-0.3755,-0.3587,-0.3587,-0.3587,-0.3587,-0.3587,-0.3587,-0.3587,-0.3587,-0.3587,-0.3418,-0.3138,-0.3137,-0.2746,-0.2244,-0.2188,-0.1851,-0.129,-0.1009,-0.0561,0.0056,0.0953,0.1627,0.2244,0.2858,0.3306,0.3531,0.3587,0.3587,0.3587,0.3587,0.3587,0.3587,0.3587,0.3587,0.3587,0.3587,0.363,0.3668,0.3668,0.3711,0.3751,0.3816,0.3818,0.3815,0.3808,0.3749,0.3749,0.3749,0.3749,0.3752,0.3816,0.3818,0.3996,0.4531,0.4648,0.4941,0.5584,0.5584,0.5584,0.5584,0.5576,0.557,0.557,0.5562,0.5556,0.5556,0.5556,0.5906,0.6488,0.6488,0.6563,-0.3326,-0.3409,-0.3538,0.0,-0.3797,-0.3928,-0.4023,-0.4076,-0.413,-0.4221,-0.423,-0.4216,-0.4353,-0.4453,-0.4557,0.0,-0.4749,-0.4744,-0.4778,-0.4784,-0.4869,-0.4961,-0.5018,-0.5073,-0.5124,-0.5146,-0.5213,-0.532,-0.5359,-0.5382,-0.5382,-0.5212,-0.5098,-0.5098,-0.4817,-0.4594,-0.4372,-0.415,-0.3924,-0.3757,-0.3643,-0.3587,-0.3587,-0.3587,-0.3587,-0.3587,-0.3587,-0.3587,-0.3587,-0.3362,-0.325,-0.3081,-0.269,-0.2412,-0.2188,-0.2188,-0.1795,-0.1234,-0.0785,-0.0336,0.0168,0.1234,0.1851,0.23,0.2914,0.3306,0.3587,0.3587,0.3587,0.3587,0.3587,0.3587,0.3587,0.3587,0.3615,0.364,0.364,0.3688,0.3732,0.3732,0.3811,0.384,0.3876,0.3883,0.3834,0.3869,0.3815,0.3829,0.3829,0.3829,0.3841,0.3877,0.3854,0.4116,0.4779,0.484,0.5079,0.5742,0.5802,0.5802,0.5802,0.5753,0.5725,0.5725,0.5613,0.5584,0.5584,0.5584,0.5821,0.6291,0.6523,0.671,-0.3457,-0.3548,-0.3685,-0.3816,-0.3869,-0.3961,-0.4053,-0.4073,-0.4099,-0.4189,-0.4208,-0.4255,-0.436,-0.451,-0.4604,-0.4694,-0.4779,-0.4784,-0.4784,-0.4857,-0.4906,-0.4998,-0.509,-0.5128,-0.5107,-0.5227,-0.531,-0.5375,-0.5382,-0.5382,-0.5268,-0.5043,-0.4873,-0.4817,-0.4538,-0.4258,-0.3982,-0.3924,-0.3813,-0.3587,-0.3587,-0.3587,-0.3587,-0.3587,-0.3587,-0.3587,-0.3587,-0.3531,-0.3418,-0.3194,-0.3026,-0.2802,-0.2355,-0.2076,-0.1964,-0.1964,-0.1627,-0.1121,-0.0505,0.0,0.0505,0.157,0.2131,0.2523,0.3082,0.3418,0.3587,0.3587,0.3587,0.3587,0.3587,0.36,0.3613,0.3613,0.3658,0.3703,0.3703,0.3751,0.3854,0.3854,0.3808,0.3834,0.3877,0.3886,0.3899,0.3883,0.3876,0.3819,0.3819,0.3819,0.3837,0.388,0.3924,0.4134,0.4687,0.4872,0.5118,0.573,0.5855,0.5916,0.5916,0.5853,0.5818,0.5818,0.5753,0.5659,0.5659,0.5659,0.5839,0.6197,0.6551,0.685,0.0,0.0,-0.382,-0.3873,-0.3965,-0.4014,-0.4148,-0.4212,-0.4193,-0.4277,-0.4295,-0.4324,-0.4372,-0.451,-0.4604,-0.4694,-0.4779,-0.4784,-0.4784,-0.4912,-0.5002,-0.5094,-0.513,-0.5111,0.0,-0.5208,-0.5377,-0.5382,-0.5382,-0.5268,-0.4931,-0.4929,-0.4761,-0.4536,-0.4203,-0.4038,-0.3982,-0.3757,-0.3587,-0.3587,-0.3587,-0.3587,-0.3587,-0.3587,-0.3587,-0.3587,-0.3587,-0.3418,-0.3137,-0.3081,-0.2746,-0.2244,-0.2188,-0.1851,-0.1346,-0.1346,-0.1177,-0.0841,-0.0224,0.0561,0.1346,0.1964,0.2579,0.3137,0.3475,0.3587,0.3587,0.3587,0.3587,0.3587,0.3587,0.3631,0.3676,0.3676,0.3722,0.3824,0.3824,0.3874,0.3917,0.3917,0.3905,0.3884,0.3887,0.3887,0.3887,0.3889,0.3885,0.3884,0.3884,0.3884,0.3884,0.3887,0.3888,0.4011,0.4378,0.4687,0.5056,0.5421,0.573,0.5916,0.5916,0.5914,0.5912,0.5912,0.591,0.5908,0.5908,0.5908,0.6092,0.6394,0.6705,0.7074,0.0,0.0,-0.3889,-0.4042,-0.4104,-0.4151,-0.4236,-0.4257,-0.4265,-0.4293,-0.43,-0.4326,-0.4372,-0.4415,-0.453,-0.4683,-0.4732,-0.4771,-0.4776,-0.4914,-0.5006,-0.5098,-0.5136,0.0,0.0,0.0,0.0,-0.4817,-0.4817,-0.4761,-0.4648,-0.4426,-0.426,-0.4148,-0.3868,-0.3757,-0.3757,-0.3643,-0.3587,-0.3587,-0.3587,-0.3587,-0.3587,-0.3587,-0.3587,-0.3587,-0.3362,-0.3194,-0.3081,-0.2691,-0.2355,-0.2188,-0.1739,-0.1458,-0.1234,-0.0673,-0.0393,-0.0224,0.0112,0.0841,0.1739,0.2356,0.2803,0.3138,0.3475,0.3587,0.3595,0.3636,0.3647,0.3657,0.3698,0.3724,0.3739,0.3739,0.3844,0.389,0.389,0.3877,0.392,0.392,0.3875,0.3889,0.3889,0.3889,0.3889,0.3889,0.3889,0.3889,0.3889,0.3889,0.3889,0.3889,0.3889,0.4011,0.4378,0.4501,0.4808,0.536,0.5483,0.5669,0.5916,0.5916,0.5916,0.5916,0.5916,0.5916,0.5916,0.5916,0.5978,0.6101,0.6653,0.6962,0.0,-0.3903,-0.4032,-0.4181,-0.4218,-0.424,-0.4328,-0.4322,-0.43,-0.43,-0.43,-0.4316,-0.4375,-0.4368,-0.4439,-0.4634,-0.4687,-0.4738,-0.4772,-0.4943,-0.5043,-0.51,-0.5216,-0.5149,0.0,0.0,0.0,-0.4536,-0.448,-0.4424,-0.4313,-0.4092,-0.398,-0.3868,-0.3699,-0.3587,-0.3587,-0.3587,-0.3587,-0.3587,-0.3587,-0.3587,-0.3587,-0.3587,-0.3531,-0.3418,-0.3194,-0.2969,-0.2746,-0.2355,-0.2132,-0.202,-0.1514,-0.1177,-0.0898,-0.0226,0.0283,0.0678,0.0843,0.1346,0.2021,0.2655,0.3055,0.334,0.3588,0.3653,0.3661,0.37,0.371,0.3719,0.3818,0.3844,0.386,0.386,0.3847,0.3892,0.3892,0.3922,0.3889,0.3889,0.3889,0.3889,0.3889,0.3889,0.3889,0.3889,0.3889,0.3889,0.3889,0.3889,0.3889,0.3889,0.3889,0.4011,0.4195,0.4316,0.4622,0.5177,0.536,0.5546,0.5855,0.5916,0.5916,0.5916,0.5916,0.5916,0.5916,0.5916,0.5916,0.5916,0.6594,0.69,-0.3887,-0.4044,-0.42,-0.4283,-0.4306,-0.4328,-0.437,-0.4365,-0.43,-0.43,-0.4295,-0.4293,0.0,0.0,-0.4453,-0.4551,-0.464,-0.4732,-0.4766,-0.499,-0.5108,0.0,0.0,0.0,0.0,0.0,0.0,-0.448,-0.448,-0.4313,-0.3982,-0.398,-0.3868,-0.3587,-0.3587,-0.3587,-0.3587,-0.3587,-0.3587,-0.3587,-0.3587,-0.3587,-0.3587,-0.3587,-0.3418,-0.3081,-0.3081,-0.2746,-0.2188,-0.2188,-0.202,-0.1741,-0.1404,-0.0899,-0.0338,-0.0057,0.0863,0.1896,0.1866,0.2024,0.2368,0.2976,0.3452,0.3694,0.3811,0.3829,0.3829,0.3831,0.3833,0.3834,0.3778,0.3881,0.3926,0.3926,0.3909,0.3889,0.3889,0.3889,0.3889,0.3889,0.3889,0.3889,0.3889,0.3889,0.3889,0.3889,0.3889,0.3889,0.3889,0.3889,0.3889,0.3889,0.3889,0.3889,0.3889,0.4195,0.4562,0.4872,0.5239,0.5546,0.5855,0.5916,0.5916,0.5916,0.5916,0.5916,0.5916,0.5916,0.5916,0.5916,0.6598,0.6908,-0.4059,-0.4183,-0.4287,-0.4379,-0.4354,-0.436,-0.4384,-0.4365,-0.43,-0.43,-0.4249,-0.4224,0.0,0.0,0.0,-0.4444,-0.4547,0.0,-0.4728,-0.4953,0.0,-0.5108,0.0,-0.4873,-0.4536,-0.4258,0.0,0.0,-0.381,-0.3811,-0.3699,-0.3699,-0.3643,-0.3587,-0.3587,-0.3587,-0.3587,-0.3587,-0.3587,-0.3587,-0.3587,-0.3587,-0.3587,-0.3362,-0.3194,-0.3081,-0.2635,-0.2355,-0.2188,-0.1964,-0.1695,-0.1371,-0.1086,-0.0633,0.0,0.076,0.1405,0.199,0.2679,0.2966,0.3026,0.3213,0.3512,0.3749,0.3823,0.3829,0.3838,0.3884,0.3896,0.3847,0.3892,0.3916,0.3928,0.3928,0.3879,0.3889,0.3889,0.3889,0.3889,0.3889,0.3889,0.3889,0.3889,0.3889,0.3889,0.3889,0.3889,0.3889,0.3889,0.3889,0.3889,0.3889,0.3889,0.3889,0.3889,0.4195,0.4562,0.4872,0.5239,0.5546,0.5855,0.5916,0.5916,0.5916,0.5916,0.5916,0.5916,0.5916,0.6039,0.6283,0.6788,0.7199,-0.3882,-0.3953,-0.4053,-0.4103,-0.4158,-0.4248,-0.425,-0.4244,-0.4242,-0.4242,-0.4173,0.0,-0.4175,-0.4177,0.0,0.0,0.0,0.0,-0.4499,-0.4649,-0.4697,0.0,-0.4691,0.0,-0.4311,-0.4092,-0.3868,-0.3643,-0.3587,-0.3587,-0.3587,-0.3587,-0.3587,-0.3587,-0.3587,-0.3587,-0.3587,-0.3587,-0.3587,-0.3587,-0.3474,-0.3362,-0.3362,-0.3083,-0.2859,-0.2691,-0.2355,-0.2028,-0.1814,-0.1644,-0.1374,-0.1104,-0.0639,-0.0117,0.0531,0.1366,0.2024,0.2622,0.3179,0.3487,0.3544,0.3578,0.3689,0.3873,0.3841,0.3849,0.3856,0.389,0.3899,0.3907,0.388,0.3889,0.3889,0.3889,0.3889,0.3889,0.3889,0.3889,0.3889,0.3889,0.3889,0.3889,0.3889,0.3889,0.3889,0.3889,0.3889,0.3889,0.3889,0.3889,0.3889,0.3889,0.3889,0.395,0.4133,0.4316,0.4624,0.5116,0.5298,0.5546,0.5855,0.5916,0.5916,0.5916,0.5916,0.5916,0.5916,0.6079,0.6286,0.6534,0.7069,0.7562,-0.353,-0.3592,-0.3701,-0.3701,-0.3837,-0.3968,-0.4005,-0.4067,-0.4126,-0.4113,0.0,-0.3895,-0.3907,-0.4004,-0.4124,-0.4176,0.0,-0.4142,-0.4236,-0.4189,-0.4216,-0.4304,-0.4329,-0.4239,-0.4032,-0.398,-0.3868,-0.3643,-0.3587,-0.3587,-0.3587,-0.3587,-0.3587,-0.3587,-0.3587,-0.3587,-0.3587,-0.3531,-0.3531,-0.3531,-0.3194,-0.3026,-0.3026,-0.2748,-0.2469,-0.2132,-0.2076,-0.1755,-0.1265,-0.1207,-0.1046,-0.0709,-0.0118,0.0532,0.1187,0.1867,0.2662,0.3454,0.3501,0.3703,0.3881,0.389,0.3872,0.3882,0.3873,0.3889,0.3889,0.3889,0.3889,0.3889,0.3889,0.3889,0.3889,0.3889,0.3889,0.3889,0.3889,0.3889,0.3889,0.3889,0.3889,0.3889,0.3889,0.3889,0.3889,0.3889,0.3889,0.3889,0.3889,0.3889,0.3889,0.3889,0.3889,0.4011,0.4378,0.4439,0.4745,0.536,0.5421,0.5607,0.5916,0.5916,0.5923,0.5935,0.5935,0.5941,0.6015,0.6406,0.6634,0.676,0.7495,0.7996,-0.3551,-0.3633,-0.3701,-0.3701,-0.3747,-0.373,-0.3711,-0.367,0.0,0.0,-0.3485,-0.3451,-0.3475,-0.3485,-0.3497,-0.3601,-0.3657,-0.3765,-0.3861,-0.4009,-0.4157,0.0,-0.4111,-0.4016,-0.3974,-0.3813,0.0,0.0,-0.3587,-0.3587,-0.3587,-0.3587,-0.3587,-0.3587,-0.3587,-0.3587,-0.3587,-0.3306,-0.3194,-0.3194,-0.2917,-0.2748,-0.2748,-0.2412,-0.2132,-0.1851,-0.157,-0.1246,-0.092,-0.069,-0.041,-0.012,0.0541,0.121,0.1897,0.2579,0.3134,0.3505,0.3762,0.3889,0.3888,0.3876,0.3873,0.3875,0.3885,0.3889,0.3889,0.3889,0.3889,0.3889,0.3889,0.3889,0.3889,0.3889,0.3889,0.3889,0.3889,0.3889,0.3889,0.3889,0.3889,0.3889,0.3889,0.3889,0.3889,0.3889,0.3889,0.3889,0.3889,0.3889,0.3889,0.3889,0.3889,0.4011,0.4378,0.4624,0.4993,0.536,0.5669,0.5855,0.5916,0.5916,0.5953,0.5966,0.5966,0.6191,0.6585,0.6666,0.699,0.7498,0.8124,0.8508,-0.3212,-0.3279,-0.3321,-0.3289,-0.3369,-0.344,-0.3367,0.0,0.0,0.0,-0.3233,-0.3135,-0.3173,-0.323,0.0,-0.3433,-0.3424,-0.3458,-0.3555,-0.3566,-0.3643,-0.3816,-0.3704,-0.3707,-0.3802,-0.3699,-0.3587,-0.3587,-0.3587,-0.3587,-0.3587,-0.3587,-0.3587,-0.3587,-0.3418,-0.3362,-0.3362,-0.3027,-0.2915,-0.2859,-0.2468,-0.2244,-0.2188,-0.1739,-0.1458,-0.1291,-0.0962,-0.0688,-0.0408,-0.0059,0.0359,0.0854,0.1342,0.19,0.259,0.3085,0.3455,0.3703,0.3828,0.3889,0.3889,0.3889,0.3889,0.3889,0.3889,0.3889,0.3889,0.3889,0.3889,0.3889,0.3889,0.3889,0.3889,0.3889,0.3889,0.3889,0.3889,0.3889,0.3889,0.3889,0.3889,0.3889,0.3889,0.3889,0.3889,0.3889,0.3889,0.3889,0.3889,0.3889,0.395,0.4133,0.4133,0.4378,0.4868,0.5054,0.5319,0.5671,0.5864,0.6008,0.6051,0.6053,0.6076,0.6119,0.6248,0.6462,0.6699,0.7329,0.7806,0.8129,0.8839,0.9363,-0.2842,-0.2942,-0.2972,-0.2914,-0.2986,-0.3093,-0.2996,-0.3021,0.0,0.0,-0.2923,-0.286,-0.2843,-0.2949,-0.3079,0.0,-0.3138,-0.3142,-0.3276,-0.3171,-0.3183,0.0,-0.3397,0.0,-0.3557,-0.3579,0.0,-0.3587,-0.3587,-0.3587,-0.3587,-0.3531,-0.3475,-0.3475,-0.3194,-0.3026,-0.3026,-0.2692,-0.2525,-0.2525,-0.1907,-0.157,-0.1458,-0.1009,-0.0729,-0.0617,-0.0342,0.0,0.0354,0.0659,0.1156,0.1726,0.2158,0.2652,0.3146,0.3455,0.3703,0.3889,0.3889,0.3889,0.3889,0.3889,0.3889,0.3889,0.3889,0.3889,0.3889,0.3889,0.3889,0.3889,0.3889,0.3889,0.3889,0.3889,0.3889,0.3889,0.3889,0.3889,0.3889,0.3889,0.3889,0.3889,0.3889,0.3889,0.3889,0.3889,0.3889,0.3889,0.3889,0.395,0.4133,0.4501,0.4439,0.4684,0.536,0.5438,0.5602,0.5986,0.6007,0.611,0.6178,0.6246,0.6319,0.6339,0.6728,0.6997,0.7082,0.8138,0.8708,0.8907,0.9609,1.0256,-0.279,-0.2879,-0.2911,-0.2807,-0.2834,-0.279,-0.2614,0.0,0.0,-0.241,-0.2379,-0.2373,-0.2379,-0.2427,-0.2488,-0.2556,0.0,-0.2794,-0.2918,-0.3033,-0.3105,-0.3232,0.0,0.0,-0.3499,-0.3555,-0.3587,-0.3587,-0.3587,-0.3587,-0.3587,-0.3306,-0.3137,-0.3137,-0.2861,-0.275,-0.275,-0.2188,-0.1907,-0.1851,-0.129,-0.0841,-0.0505,-0.0449,-0.0168,0.0281,0.04,0.0754,0.1298,0.1678,0.2069,0.2467,0.3085,0.3394,0.3517,0.3765,0.3889,0.3889,0.3889,0.3889,0.3889,0.3889,0.3889,0.3889,0.3889,0.3889,0.3889,0.3889,0.3889,0.3889,0.3889,0.3889,0.3889,0.3889,0.3889,0.3889,0.3889,0.3889,0.3889,0.3889,0.3889,0.3889,0.3889,0.3889,0.3889,0.3889,0.3889,0.3889,0.3889,0.4195,0.4501,0.481,0.4562,0.4684,0.536,0.5492,0.5727,0.5988,0.6127,0.6172,0.618,0.6505,0.6741,0.6832,0.7483,0.7986,0.8421,0.8828,0.9368,1.0038,1.0449,1.0787,-0.2718,-0.2747,-0.2759,-0.2734,-0.2673,-0.26,-0.2527,0.0,-0.23,-0.2255,-0.2252,-0.2237,-0.2238,-0.2263,-0.232,0.0,0.0,0.0,-0.2892,-0.2989,-0.3101,-0.3211,-0.3307,0.0,0.0,0.0,-0.3492,-0.3304,-0.3306,-0.3251,-0.3085,-0.3082,-0.3026,-0.2861,-0.2412,-0.2132,-0.2132,-0.157,-0.1177,-0.0953,-0.0561,-0.0224,0.0112,0.0449,0.0729,0.0955,0.1441,0.1755,0.2005,0.2421,0.2823,0.3146,0.3394,0.358,0.3765,0.3889,0.3889,0.3889,0.3889,0.3889,0.3889,0.3889,0.3889,0.3889,0.3889,0.3889,0.3889,0.3889,0.3889,0.3889,0.3889,0.3889,0.3889,0.3889,0.3889,0.3889,0.3889,0.3889,0.3889,0.3889,0.3889,0.3889,0.3889,0.3889,0.3889,0.3889,0.3889,0.395,0.4195,0.4316,0.4622,0.5116,0.5053,0.5195,0.5743,0.578,0.5908,0.614,0.6243,0.6416,0.6668,0.6804,0.7087,0.7595,0.8056,0.8604,0.9183,0.9785,1.0452,1.1185,1.1516,1.1975,-0.2627,-0.2665,-0.2684,-0.2647,-0.2574,-0.2496,0.0,0.0,-0.2178,-0.2161,-0.2157,-0.2174,-0.2183,-0.2185,-0.2256,0.0,0.0,-0.2583,-0.279,-0.2931,-0.304,0.0,0.0,-0.3289,-0.3351,-0.3284,-0.3209,-0.2968,-0.2914,-0.2691,-0.2469,-0.2467,-0.2466,-0.2413,-0.1739,-0.1402,-0.1402,-0.0785,-0.0393,-0.0168,0.0224,0.0561,0.0841,0.1346,0.1627,0.1742,0.2264,0.2589,0.2714,0.3045,0.3332,0.3642,0.3642,0.3703,0.3889,0.3889,0.3889,0.3889,0.3889,0.3889,0.3889,0.3889,0.3889,0.3889,0.3889,0.3889,0.3889,0.3889,0.3889,0.3889,0.3889,0.3889,0.3889,0.3889,0.3889,0.3889,0.3889,0.3889,0.3889,0.3889,0.3889,0.3889,0.3889,0.3889,0.3889,0.3889,0.3889,0.4011,0.4378,0.4501,0.4745,0.536,0.5483,0.5642,0.5982,0.6013,0.6155,0.6306,0.6341,0.6583,0.6982,0.7185,0.7653,0.839,0.8923,0.9585,1.0243,1.0846,1.1578,1.2305,1.2503,1.3025,-0.2512,-0.2601,-0.2664,-0.2542,-0.2511,-0.2465,0.0,0.0,-0.2171,-0.2109,-0.2096,-0.2096,-0.2098,-0.2164,-0.2229,-0.2291,0.0,0.0,-0.2677,-0.2798,-0.2964,0.0,0.0,-0.3126,-0.3028,-0.2805,-0.2693,-0.2693,-0.2413,-0.2076,-0.1851,-0.1234,-0.1177,-0.1795,-0.0897,-0.0393,-0.0393,0.0112,0.0393,0.0393,0.1009,0.1458,0.1795,0.2076,0.2356,0.2699,0.2786,0.3002,0.3305,0.3411,0.3642,0.3889,0.3889,0.3889,0.3889,0.3889,0.3889,0.3889,0.3889,0.3889,0.3889,0.3889,0.3889,0.3889,0.3889,0.3889,0.3889,0.3889,0.3889,0.3889,0.3889,0.3889,0.3889,0.3889,0.3889,0.3889,0.3889,0.3889,0.3889,0.3889,0.3889,0.3889,0.3889,0.3889,0.3889,0.3889,0.3889,0.4011,0.4378,0.4687,0.5056,0.536,0.5669,0.5953,0.5982,0.6131,0.6219,0.631,0.6402,0.6652,0.6985,0.7722,0.839,0.905,1.0117,1.1052,1.178,1.2111,1.2634,1.3346,1.3416,1.3744,-0.2354,-0.2381,-0.2401,-0.2363,-0.2328,-0.2287,-0.223,0.0,-0.2055,-0.2037,-0.2066,-0.2095,-0.2095,-0.2161,-0.2217,-0.2283,-0.233,0.0,0.0,0.0,0.0,-0.2745,-0.2774,-0.2684,0.0,0.0,-0.2188,-0.1795,-0.1458,-0.1177,-0.0841,-0.0336,-0.028,-0.0841,-0.0224,0.028,0.0505,0.0841,0.1234,0.1627,0.1851,0.2076,0.2413,0.2691,0.2858,0.2975,0.3269,0.3496,0.3657,0.3735,0.3852,0.3889,0.3889,0.3889,0.3889,0.3889,0.3889,0.3889,0.3889,0.3889,0.3889,0.3889,0.3889,0.3889,0.3889,0.3889,0.3889,0.3889,0.3889,0.3889,0.3889,0.3889,0.3889,0.3889,0.3889,0.3889,0.3889,0.3889,0.3889,0.3889,0.3889,0.3889,0.3889,0.3889,0.3889,0.3889,0.3889,0.4073,0.4687,0.481,0.5118,0.5671,0.5848,0.6045,0.6133,0.6163,0.6247,0.64,0.6702,0.7121,0.7722,0.8189,0.8987,1.0187,1.0717,1.1512,1.2507,1.2894,1.342,1.4076,1.4338,1.4534,0.0,-0.2249,-0.2262,-0.2238,-0.221,0.0,0.0,0.0,-0.1968,-0.1968,-0.2017,-0.206,-0.206,-0.2129,-0.2228,-0.228,-0.2226,-0.2267,0.0,0.0,0.0,-0.2316,0.0,0.0,0.0,-0.1539,-0.1346,-0.0841,-0.0561,-0.028,0.0056,0.0617,0.0841,0.0561,0.0785,0.1065,0.1402,0.1683,0.202,0.2413,0.2467,0.2635,0.2861,0.3139,0.3306,0.331,0.3594,0.3713,0.0,0.3895,0.3895,0.3889,0.3889,0.3889,0.3889,0.3889,0.3889,0.3889,0.3889,0.3889,0.3889,0.3889,0.3889,0.3889,0.3889,0.3889,0.3889,0.3889,0.3889,0.3889,0.3889,0.3889,0.3889,0.3889,0.3889,0.3889,0.3889,0.3889,0.3889,0.3889,0.3889,0.3889,0.3889,0.3889,0.3889,0.3889,0.3889,0.4136,0.4812,0.4873,0.5192,0.5842,0.5958,0.6039,0.6221,0.6231,0.6359,0.6644,0.6985,0.7519,0.8256,0.8853,0.9782,1.1118,1.1578,1.2305,1.3424,1.3748,1.4207,1.4604,1.48,1.4866,0.0,0.0,0.0,0.0,0.0,0.0,0.0,0.0,0.0,-0.1904,-0.1957,-0.2002,-0.2002,-0.2107,-0.2199,-0.228,-0.2123,-0.2049,0.0,-0.2071,0.0,0.0,-0.1429,0.0,-0.0745,-0.0495,-0.0224,0.0056,0.0336,0.0673,0.0953,0.157,0.1964,0.2244,0.2019,0.2019,0.2244,0.258,0.275,0.275,0.3027,0.3137,0.3137,0.3475,0.3587,0.3591,0.3647,0.3706,0.3827,0.3888,0.389,0.3883,0.3888,0.3889,0.3889,0.3889,0.3889,0.3889,0.3889,0.3889,0.3889,0.3889,0.3889,0.3889,0.3889,0.3889,0.3889,0.3889,0.3889,0.3889,0.3889,0.3889,0.3889,0.3889,0.3889,0.3889,0.3889,0.3889,0.3889,0.3889,0.3889,0.3889,0.3889,0.3889,0.3889,0.395,0.395,0.4196,0.4872,0.4938,0.5217,0.592,0.6003,0.6075,0.6302,0.6317,0.6553,0.6978,0.7383,0.7915,0.8653,0.9646,1.0777,1.1846,1.2572,1.3424,1.4469,1.4735,1.4866,1.4866,1.4866,1.4866,0.0,0.0,0.0,0.0,0.0,0.0,0.0,0.0,0.0,0.0,0.0,0.0,0.0,-0.1977,-0.2001,-0.2069,-0.196,-0.1854,-0.1836,0.0,0.0,-0.0777,-0.0463,-0.0213,0.0107,0.0385,0.0729,0.0953,0.1458,0.1795,0.1907,0.2244,0.2636,0.2858,0.2802,0.2802,0.2914,0.297,0.3138,0.3363,0.3475,0.3475,0.3475,0.3587,0.3587,0.3589,0.3602,0.3643,0.3704,0.3824,0.3827,0.3886,0.3871,0.3889,0.3889,0.3889,0.3889,0.3889,0.3889,0.3889,0.3889,0.3889,0.3889,0.3889,0.3889,0.3889,0.3889,0.3889,0.3889,0.3889,0.3889,0.3889,0.3889,0.3889,0.3889,0.3889,0.3889,0.3889,0.3889,0.3889,0.3889,0.3889,0.3889,0.3889,0.4011,0.4255,0.4255,0.4501,0.5176,0.5355,0.5589,0.5988,0.611,0.6272,0.6313,0.6583,0.6819,0.6978,0.7853,0.8651,0.9313,1.0183,1.1181,1.2572,1.3555,1.4277,1.48,1.4866,1.4866,1.4866,1.4866,1.4866,-0.1291,-0.1555,-0.1803,0.0,0.0,0.0,0.0,0.0,0.0,0.0,0.0,0.0,0.0,0.0,-0.1782,-0.1762,-0.1622,0.0,0.0,0.0,-0.0096,0.0147,0.0412,0.0745,0.0,0.1375,0.1627,0.1908,0.2244,0.2468,0.2579,0.2803,0.3027,0.3306,0.3306,0.3306,0.3306,0.3306,0.3418,0.3587,0.3587,0.3587,0.3587,0.3587,0.3587,0.3587,0.3587,0.3621,0.3681,0.3714,0.3838,0.3924,0.3897,0.3927,0.3889,0.3889,0.3889,0.3889,0.3889,0.3889,0.3889,0.3889,0.3889,0.3889,0.3889,0.3889,0.3889,0.3889,0.3889,0.3889,0.3889,0.3889,0.3889,0.3889,0.3889,0.3889,0.3889,0.3889,0.3889,0.3889,0.3889,0.3889,0.3889,0.4011,0.4195,0.4378,0.4501,0.482,0.5412,0.5581,0.5764,0.6102,0.6259,0.6399,0.6572,0.6978,0.7265,0.7517,0.852,0.9383,1.0047,1.1111,1.2239,1.349,1.4277,1.4735,1.4866,1.4866,1.4866,1.4866,1.4866,1.4866,-0.1206,-0.138,-0.1554,-0.1546,-0.1635,0.0,0.0,0.0,0.0,0.0,0.0,0.0,0.0,-0.1559,0.0,0.0,0.0,0.0,-0.0224,0.0281,0.0723,0.1033,0.1343,0.0,0.2237,0.231,0.2468,0.2748,0.2806,0.2917,0.3138,0.3194,0.3306,0.3587,0.3587,0.3587,0.3587,0.3587,0.3587,0.3587,0.3587,0.3587,0.3587,0.3587,0.3587,0.3587,0.3587,0.3617,0.3665,0.3674,0.3739,0.3894,0.3913,0.3891,0.3876,0.3885,0.3889,0.3889,0.3889,0.3889,0.3889,0.3889,0.3889,0.3889,0.3889,0.3889,0.3889,0.3889,0.3889,0.3889,0.3889,0.3889,0.3889,0.3889,0.3889,0.3889,0.3889,0.3889,0.3889,0.3889,0.3889,0.3889,0.3889,0.4195,0.4439,0.4439,0.4757,0.516,0.56,0.5695,0.583,0.6235,0.6329,0.65,0.6978,0.739,0.7791,0.8323,0.925,1.0183,1.0982,1.2305,1.349,1.4403,1.4735,1.4866,1.4866,1.4866,1.4866,1.4866,1.4866,1.4866,-0.0785,-0.1031,-0.1279,-0.1328,-0.1404,-0.1463,0.0,0.0,0.0,0.0,0.0,0.0,0.0,-0.1178,-0.1021,0.0,0.0,0.0089,0.0,0.0,0.1525,0.1804,0.0,0.2451,0.2504,0.2803,0.297,0.3026,0.3307,0.3475,0.3531,0.3531,0.3531,0.3587,0.3587,0.3587,0.3587,0.3587,0.3587,0.3587,0.3587,0.3587,0.3587,0.3587,0.3587,0.3587,0.3587,0.3593,0.3605,0.3657,0.3689,0.3717,0.388,0.3926,0.388,0.3871,0.3889,0.3889,0.3889,0.3889,0.3889,0.3889,0.3889,0.3889,0.3889,0.3889,0.3889,0.3889,0.3889,0.3889,0.3889,0.3889,0.3889,0.3889,0.3889,0.3889,0.3889,0.3889,0.3889,0.3889,0.3889,0.3889,0.3889,0.4195,0.4501,0.481,0.5236,0.5596,0.5926,0.6056,0.6221,0.6313,0.6386,0.6637,0.6982,0.7588,0.839,0.9313,0.9854,1.085,1.2441,1.3551,1.4207,1.4403,1.4735,1.4866,1.4866,1.4866,1.4866,1.4866,1.4866,1.4866,-0.0505,-0.0661,-0.0763,-0.0809,-0.1064,-0.13,-0.13,-0.1159,0.0,0.0,0.0,0.0,0.0,0.0,-0.0394,0.0,0.0,0.1017,0.1396,0.1805,0.2133,0.0,0.2675,0.2888,0.3077,0.326,0.3362,0.3362,0.3531,0.3587,0.3587,0.3587,0.3587,0.3587,0.3587,0.3587,0.3587,0.3587,0.3587,0.3587,0.3587,0.3587,0.3587,0.3587,0.3587,0.3587,0.3587,0.3587,0.359,0.3617,0.3649,0.3687,0.3836,0.3891,0.3928,0.3928,0.3889,0.3889,0.3889,0.3889,0.3889,0.3889,0.3889,0.3889,0.3889,0.3889,0.3889,0.3889,0.3889,0.3889,0.3889,0.3889,0.3889,0.3889,0.3889,0.3889,0.3889,0.3889,0.3889,0.3889,0.3889,0.395,0.4133,0.4441,0.481,0.5116,0.5557,0.5881,0.6053,0.6235,0.6335,0.6386,0.6627,0.6987,0.7522,0.8056,0.8987,1.0382,1.1181,1.2173,1.3358,1.401,1.4469,1.467,1.48,1.4866,1.4866,1.4866,1.4866,1.4866,1.4866,1.4866,-0.0227,-0.0262,-0.0298,-0.0301,0.0,-0.1041,-0.1041,-0.0791,0.0,0.0,0.0,0.0,0.0,0.004,0.0,0.102,0.1375,0.1746,0.2147,0.2362,0.26,0.2947,0.3058,0.3219,0.3491,0.3552,0.3587,0.3587,0.3587,0.3587,0.3587,0.3587,0.3587,0.3587,0.3587,0.3587,0.3587,0.3587,0.3587,0.3587,0.3587,0.3587,0.3587,0.3587,0.3587,0.3587,0.3587,0.3587,0.3587,0.3587,0.3615,0.3662,0.3725,0.3854,0.3928,0.3928,0.3889,0.3889,0.3889,0.3889,0.3889,0.3889,0.3889,0.3889,0.3889,0.3889,0.3889,0.3889,0.3889,0.3889,0.3889,0.3889,0.3889,0.3889,0.3889,0.3889,0.3889,0.3889,0.3951,0.4011,0.4011,0.4133,0.4439,0.481,0.5123,0.5386,0.5773,0.6114,0.62,0.6292,0.6442,0.6579,0.6853,0.7386,0.839,0.892,0.9918,1.1446,1.2437,1.3293,1.4006,1.4338,1.467,1.4866,1.4866,1.4866,1.4866,1.4866,1.4866,1.4866,1.4866,1.4866,0.0233,0.012,-0.0031,-0.0032,-0.0295,0.0,-0.0536,-0.0384,0.0,-0.0254,0.0,0.0,0.0,0.0703,0.1174,0.1743,0.1856,0.2061,0.2641,0.2739,0.2892,0.321,0.3322,0.3381,0.3491,0.3552,0.3587,0.3587,0.3587,0.3587,0.3587,0.3587,0.3587,0.3587,0.3587,0.3587,0.3587,0.3587,0.3587,0.3587,0.3587,0.3587,0.3587,0.3587,0.3587,0.3587,0.3587,0.3587,0.3587,0.3587,0.359,0.36,0.3661,0.3815,0.3928,0.3928,0.3889,0.3889,0.3889,0.3889,0.3889,0.3889,0.3889,0.3889,0.3889,0.3889,0.3889,0.3889,0.3889,0.3889,0.3889,0.3889,0.3889,0.3889,0.3889,0.3889,0.3889,0.3889,0.4011,0.4316,0.4378,0.4439,0.481,0.5116,0.5386,0.5589,0.5924,0.6204,0.6294,0.6388,0.6579,0.6918,0.6985,0.7717,0.9446,1.0449,1.1512,1.2638,1.3091,1.3678,1.4338,1.467,1.4866,1.4866,1.4866,1.4866,1.4866,1.4866,1.4866,1.4866,1.4866,1.4866,0.0555,0.0422,0.0312,0.0361,0.0377,0.0,0.0,0.0182,0.0382,0.0535,0.0715,0.0,0.0,0.0,0.1912,0.2321,0.2432,0.259,0.2988,0.3065,0.31,0.3263,0.3375,0.3435,0.3491,0.3552,0.3587,0.3587,0.3587,0.3587,0.3587,0.3587,0.3587,0.3587,0.3587,0.3587,0.3587,0.3587,0.3587,0.3587,0.3587,0.3587,0.3587,0.3587,0.3587,0.3587,0.3587,0.3587,0.3587,0.3587,0.3587,0.3597,0.3696,0.3845,0.3928,0.3928,0.3889,0.3889,0.3889,0.3889,0.3889,0.3889,0.3889,0.3889,0.3889,0.3889,0.3889,0.3889,0.3889,0.3889,0.3889,0.3889,0.3889,0.3889,0.4073,0.4195,0.4195,0.4379,0.4566,0.4687,0.4687,0.481,0.5177,0.5298,0.5513,0.5786,0.6061,0.6212,0.6304,0.6396,0.6652,0.6985,0.7982,0.9047,1.025,1.1446,1.2437,1.3157,1.3481,1.3945,1.4403,1.4735,1.4866,1.4866,1.4866,1.4866,1.4866,1.4866,1.4866,1.4866,1.4866,1.4866,0.0978,0.0924,0.0899,0.0,0.0,0.0,0.0876,0.0914,0.1074,0.1203,0.1333,0.1557,0.1989,0.0,0.0,0.0,0.2869,0.2962,0.3172,0.318,0.3203,0.3315,0.3358,0.3413,0.3489,0.3534,0.3567,0.3586,0.3587,0.3587,0.3587,0.3587,0.3587,0.3587,0.3587,0.3587,0.3587,0.3587,0.3587,0.3587,0.3587,0.3587,0.3587,0.3587,0.3587,0.3587,0.3587,0.3587,0.3587,0.3587,0.3587,0.3598,0.37,0.3894,0.4016,0.402,0.4117,0.4196,0.4196,0.4196,0.4196,0.4196,0.4196,0.4196,0.4196,0.4196,0.4196,0.4196,0.4196,0.4196,0.4196,0.4073,0.395,0.4011,0.4255,0.4439,0.4562,0.4749,0.4933,0.5056,0.5056,0.5177,0.5485,0.5546,0.5646,0.6013,0.6143,0.6223,0.6343,0.6548,0.6853,0.7452,0.8851,1.0117,1.0986,1.2111,1.303,1.3678,1.394,1.4207,1.4534,1.48,1.4866,1.4866,1.4866,1.4866,1.4866,1.4866,1.4866,1.4866,1.4866,1.4866,0.1471,0.1612,0.1693,0.0,0.0,0.0,0.1888,0.1801,0.1717,0.1717,0.1961,0.2305,0.2538,0.2681,0.0,0.3081,0.3091,0.3112,0.3172,0.318,0.3203,0.3313,0.332,0.3367,0.3484,0.3496,0.3522,0.3582,0.3587,0.3587,0.3587,0.3587,0.3587,0.3587,0.3587,0.3587,0.3587,0.3587,0.3587,0.3587,0.3587,0.3587,0.3587,0.3587,0.3587,0.3587,0.3587,0.3587,0.3587,0.3587,0.3587,0.3594,0.3654,0.3946,0.4302,0.4311,0.4563,0.4873,0.4873,0.4873,0.4873,0.4873,0.4873,0.4873,0.4873,0.4873,0.4873,0.4873,0.4873,0.4873,0.4873,0.4381,0.4011,0.4316,0.4376,0.4501,0.481,0.4935,0.4995,0.536,0.5421,0.5483,0.5855,0.5919,0.5978,0.6153,0.6182,0.6247,0.6498,0.6786,0.7452,0.852,0.9588,1.0654,1.1714,1.2441,1.3293,1.4338,1.4403,1.4539,1.4866,1.4866,1.4866,1.4866,1.4866,1.4866,1.4866,1.4866,1.4866,1.4866,1.4866,1.4866,0.1622,0.1674,0.0,0.171,0.0,0.0,0.0,0.2098,0.0,0.0,0.2546,0.2813,0.2918,0.2976,0.0,0.3087,0.3126,0.316,0.3177,0.318,0.3187,0.3204,0.3296,0.3335,0.3369,0.3448,0.3504,0.3522,0.3563,0.3587,0.3587,0.3587,0.3587,0.3587,0.3757,0.3868,0.3868,0.4089,0.4257,0.4257,0.4257,0.4089,0.3868,0.3868,0.4035,0.4257,0.4257,0.4257,0.4257,0.4257,0.4257,0.4265,0.4279,0.4409,0.4598,0.4613,0.4747,0.4873,0.4873,0.4873,0.4873,0.4873,0.4873,0.4873,0.4873,0.4873,0.4873,0.4873,0.4873,0.4873,0.4873,0.4749,0.4626,0.4749,0.4931,0.5114,0.5239,0.5423,0.5609,0.573,0.5732,0.5794,0.5855,0.591,0.6051,0.6163,0.6235,0.6384,0.6769,0.7388,0.8187,0.925,1.0515,1.1648,1.2441,1.3358,1.4076,1.4403,1.4604,1.48,1.4866,1.4866,1.4866,1.4866,1.4866,1.4866,1.4866,1.4866,1.4866,1.4866,1.4866,1.4866,0.1894,0.1933,0.0,0.2003,0.2221,0.245,0.2565,0.0,0.0,0.0,0.2905,0.3041,0.3078,0.3135,0.0,0.3126,0.3157,0.318,0.318,0.318,0.318,0.318,0.3212,0.3294,0.3319,0.3386,0.3446,0.3493,0.353,0.3561,0.3586,0.3699,0.3757,0.3757,0.4035,0.4203,0.4203,0.4424,0.448,0.448,0.448,0.4424,0.4372,0.426,0.4314,0.448,0.448,0.448,0.448,0.448,0.448,0.4484,0.453,0.4711,0.4847,0.4927,0.5065,0.5258,0.5291,0.5302,0.5302,0.5302,0.5302,0.5302,0.5302,0.5302,0.5302,0.5302,0.5302,0.5302,0.5302,0.5302,0.5241,0.5118,0.5239,0.5421,0.5546,0.5732,0.5916,0.5916,0.5916,0.5916,0.5916,0.593,0.6019,0.6168,0.6419,0.6786,0.7379,0.7922,0.8787,0.9984,1.1115,1.2107,1.2964,1.3879,1.4469,1.4604,1.48,1.4866,1.4866,1.4866,1.4866,1.4866,1.4866,1.4866,1.4866,1.4866,1.4866,1.4866,1.4866,1.4866,0.2147,0.0,0.0,0.2481,0.2606,0.0,0.2892,0.2962,0.3005,0.3011,0.0,0.3091,0.3097,0.3144,0.318,0.318,0.318,0.318,0.318,0.318,0.318,0.318,0.318,0.3201,0.3308,0.3318,0.3365,0.3473,0.3491,0.3521,0.3576,0.3866,0.3982,0.3982,0.4369,0.4536,0.4536,0.4592,0.4592,0.4592,0.4592,0.4706,0.4931,0.4648,0.4536,0.4592,0.4592,0.4592,0.4592,0.4592,0.4592,0.4592,0.4592,0.481,0.5123,0.5208,0.5467,0.5794,0.5886,0.5916,0.5916,0.5916,0.5916,0.5916,0.5916,0.5916,0.5916,0.5916,0.5916,0.5916,0.5916,0.5916,0.5794,0.5544,0.5421,0.5544,0.5855,0.5916,0.5916,0.5916,0.5916,0.5916,0.5916,0.5936,0.6096,0.6254,0.6672,0.7252,0.8056,0.8456,0.9253,1.0651,1.1516,1.2371,1.3416,1.4071,1.46,1.4866,1.4866,1.4866,1.4866,1.4866,1.4866,1.4866,1.4866,1.4866,1.4866,1.4866,1.4866,1.4866,1.4866,1.4866,0.0,0.2206,0.0,0.0,0.2638,0.2783,0.2902,0.2962,0.3018,0.3066,0.3089,0.3105,0.3152,0.3171,0.318,0.318,0.318,0.318,0.318,0.318,0.318,0.318,0.318,0.3185,0.3197,0.3293,0.3332,0.3357,0.3444,0.3501,0.3515,0.3841,0.3982,0.3982,0.4538,0.4817,0.4817,0.5098,0.5212,0.5212,0.5212,0.5212,0.5268,0.4987,0.4931,0.5212,0.5212,0.5212,0.5212,0.5212,0.5212,0.5212,0.5212,0.5263,0.5406,0.5494,0.5643,0.5794,0.5886,0.5916,0.5916,0.5916,0.5916,0.5916,0.5916,0.5916,0.5916,0.5916,0.5916,0.5916,0.5916,0.5916,0.5855,0.5794,0.5794,0.5794,0.5855,0.5916,0.5916,0.5916,0.5916,0.5916,0.5916,0.6049,0.6337,0.6764,0.6958,0.7386,0.839,0.8984,0.9915,1.138,1.2433,1.335,1.4141,1.4539,1.48,1.4866,1.4866,1.4866,1.4866,1.4866,1.4866,1.4866,1.4866,1.4866,1.4866,1.4866,1.4866,1.4866,1.4866,1.4866,0.0,0.0,0.0,0.2553,0.0,0.28,0.2904,0.2962,0.3014,0.3045,0.3076,0.3109,0.3169,0.318,0.318,0.318,0.318,0.318,0.318,0.318,0.318,0.318,0.318,0.318,0.318,0.3208,0.329,0.3319,0.3377,0.3437,0.3493,0.3914,0.4225,0.4257,0.4819,0.5156,0.5156,0.5326,0.5382,0.5382,0.5382,0.5382,0.5382,0.5212,0.5212,0.5382,0.5382,0.5382,0.5382,0.5382,0.5382,0.5382,0.5382,0.5408,0.5457,0.5547,0.5637,0.5729,0.5821,0.588,0.5916,0.5916,0.5916,0.5916,0.5916,0.5916,0.5916,0.5916,0.5916,0.5916,0.5916,0.5916,0.5916,0.5916,0.5916,0.5916,0.5916,0.5916,0.5916,0.5916,0.5916,0.5931,0.5914,0.6258,0.6621,0.6962,0.7452,0.8053,0.872,0.9585,1.0648,1.1909,1.2828,1.3678,1.4338,1.4735,1.4866,1.4866,1.4866,1.4866,1.4866,1.4866,1.4866,1.4866,1.4866,1.4866,1.4866,1.4866,1.4866,1.4866,1.4866,1.4866,0.0,0.0,0.2375,0.261,0.2722,0.0,0.2892,0.2949,0.2993,0.3049,0.3055,0.3106,0.3156,0.3173,0.318,0.318,0.318,0.318,0.318,0.318,0.318,0.318,0.318,0.318,0.318,0.318,0.3201,0.3301,0.3315,0.3364,0.3461,0.4086,0.4402,0.446,0.5093,0.5382,0.5382,0.5382,0.5382,0.5382,0.5382,0.5382,0.5382,0.5382,0.5382,0.5382,0.5382,0.5382,0.5382,0.5382,0.5382,0.5382,0.5382,0.5382,0.5392,0.5475,0.5565,0.5598,0.5749,0.5841,0.5916,0.5916,0.5916,0.5916,0.5916,0.5916,0.5916,0.5916,0.5916,0.5916,0.5916,0.5916,0.5916,0.5916,0.5916,0.5916,0.5916,0.5916,0.5916,0.5916,0.5931,0.597,0.6124,0.6535,0.6944,0.7171,0.7987,0.8787,0.925,1.0253,1.1314,1.2371,1.3157,1.3809,1.4403,1.4735,1.4866,1.4866,1.4866,1.4866,1.4866,1.4866,1.4866,1.4866,1.4866,1.4866,1.4866,1.4866,1.4866,1.4866,1.4866,1.4866,0.0,0.0,0.2495,0.0,0.2659,0.2785,0.0,0.0,0.299,0.0,0.3199,0.3093,0.3101,0.3145,0.318,0.318,0.318,0.318,0.318,0.318,0.318,0.318,0.318,0.318,0.318,0.318,0.3184,0.3191,0.3292,0.3328,0.3343,0.4035,0.4378,0.4388,0.5064,0.5382,0.5382,0.5382,0.5382,0.5382,0.5382,0.5382,0.5382,0.5382,0.5382,0.5382,0.5382,0.5382,0.5382,0.5382,0.5382,0.5382,0.5382,0.5382,0.5392,0.5475,0.5565,0.5598,0.5749,0.5841,0.5916,0.5916,0.5916,0.5916,0.5916,0.5916,0.5916,0.5916,0.5916,0.5916,0.5916,0.5916,0.5916,0.5916,0.5916,0.5916,0.5916,0.5916,0.5916,0.5916,0.592,0.6126,0.6536,0.6774,0.7142,0.7841,0.8323,0.892,0.9924,1.0986,1.2041,1.3153,1.3875,1.4403,1.48,1.4866,1.4866,1.4866,1.4866,1.4866,1.4866,1.4866,1.4866,1.4866,1.4866,1.4866,1.4866,1.4866,1.4866,1.4866,1.4866,1.4866,0.2103,0.2365,0.2578,0.0,0.2841,0.3037,0.3154,0.0,0.328,0.344,0.3444,0.3431,0.3469,0.3529,0.3575,0.3575,0.3607,0.3632,0.3632,0.3632,0.3632,0.3632,0.3632,0.3632,0.3632,0.3533,0.3433,0.3433,0.3307,0.3336,0.3524,0.4,0.4391,0.464,0.5064,0.5331,0.5382,0.5382,0.5382,0.5382,0.5382,0.5382,0.5382,0.5382,0.5382,0.5382,0.5382,0.5382,0.5382,0.5382,0.5382,0.5382,0.5382,0.5382,0.5386,0.5424,0.5492,0.5582,0.5671,0.5763,0.5849,0.59,0.5916,0.5916,0.5916,0.5916,0.5916,0.5916,0.5916,0.5916,0.5916,0.5916,0.5916,0.5916,0.5916,0.5916,0.5916,0.5916,0.5933,0.5922,0.6191,0.6477,0.6766,0.7257,0.7737,0.8315,0.8989,0.9721,1.0389,1.1582,1.2634,1.335,1.401,1.4534,1.4866,1.4866,1.4866,1.4866,1.4866,1.4866,1.4866,1.4866,1.4866,1.4866,1.4866,1.4866,1.4866,1.4866,1.4866,1.4866,1.4866,1.4866,0.0,0.0,0.2567,0.2702,0.2956,0.3219,0.0,0.0,0.3533,0.0,0.3709,0.3781,0.3885,0.3878,0.3893,0.3893,0.3954,0.3954,0.3954,0.3971,0.3982,0.3982,0.3982,0.3982,0.3982,0.3835,0.3684,0.3684,0.3533,0.3503,0.3754,0.4085,0.447,0.4768,0.5068,0.5288,0.538,0.5382,0.5382,0.5382,0.5382,0.5382,0.5382,0.5382,0.5437,0.5491,0.5437,0.5382,0.5382,0.5382,0.5382,0.5382,0.5382,0.5382,0.5382,0.5382,0.5491,0.5635,0.5731,0.5882,0.6037,0.6132,0.6162,0.6162,0.6162,0.6162,0.6162,0.6162,0.6162,0.6162,0.6162,0.6162,0.6162,0.6162,0.6162,0.6101,0.5919,0.5978,0.6066,0.616,0.6504,0.6924,0.7089,0.772,0.8323,0.8653,0.9655,1.0522,1.092,1.2107,1.3161,1.3613,1.4207,1.4604,1.4866,1.4866,1.4866,1.4866,1.4866,1.4866,1.4866,1.4866,1.4866,1.4866,1.4866,1.4866,1.4866,1.4866,1.4866,1.4866,1.4866,1.4866,0.0,0.22,0.0,0.2563,0.2846,0.0,0.0,0.0,0.3561,0.3741,0.3851,0.3954,0.4222,0.3998,0.382,0.382,0.3879,0.3925,0.3925,0.3937,0.3982,0.3982,0.3982,0.3982,0.3982,0.3982,0.3984,0.3984,0.3984,0.3984,0.3989,0.4365,0.4601,0.4684,0.5036,0.5288,0.538,0.5382,0.5382,0.5382,0.5382,0.5382,0.5382,0.5382,0.5547,0.5766,0.5491,0.5382,0.5382,0.5382,0.5382,0.5382,0.5382,0.5382,0.5382,0.5382,0.5662,0.5983,0.6026,0.6298,0.6698,0.6804,0.6839,0.6839,0.6839,0.6839,0.6839,0.6839,0.6839,0.6839,0.6839,0.6839,0.6839,0.6839,0.6839,0.6655,0.6041,0.616,0.6432,0.6533,0.6882,0.7305,0.7802,0.8244,0.872,0.905,0.9984,1.092,1.1648,1.2696,1.3613,1.4272,1.467,1.4866,1.4866,1.4866,1.4866,1.4866,1.4866,1.4866,1.4866,1.4866,1.4866,1.4866,1.4866,1.4866,1.4866,1.4866,1.4866,1.4866,1.4866,1.4866,0.0,0.0,0.0,0.2857,0.3136,0.343,0.3555,0.3664,0.3819,0.4017,0.4067,0.4148,0.4289,0.4219,0.4206,0.4206,0.4275,0.433,0.433,0.4405,0.4459,0.4459,0.4503,0.4535,0.4535,0.4334,0.4236,0.4236,0.4085,0.4085,0.4236,0.4416,0.4621,0.486,0.5055,0.5228,0.538,0.5382,0.5382,0.5382,0.5382,0.5491,0.5656,0.5656,0.5824,0.6105,0.5996,0.5996,0.5996,0.5996,0.5996,0.5996,0.5996,0.5996,0.5996,0.5996,0.6074,0.624,0.635,0.649,0.6667,0.6843,0.69,0.69,0.69,0.69,0.69,0.69,0.69,0.69,0.69,0.69,0.69,0.69,0.69,0.6839,0.6594,0.6653,0.6763,0.693,0.7245,0.7711,0.8225,0.869,0.9183,0.9984,1.0651,1.138,1.2309,1.3157,1.3875,1.4338,1.467,1.4866,1.4866,1.4866,1.4866,1.4866,1.4866,1.4866,1.4866,1.4866,1.4866,1.4866,1.4866,1.4866,1.4866,1.4866,1.4866,1.4866,1.4866,1.4866,0.2287,0.0,0.0,0.0,0.0,0.3532,0.3683,0.3787,0.3897,0.405,0.4173,0.4233,0.4246,0.433,0.4344,0.4344,0.4465,0.4526,0.4526,0.4604,0.4673,0.4706,0.4757,0.4754,0.478,0.4636,0.4537,0.4537,0.4384,0.4334,0.4537,0.4537,0.469,0.5014,0.5106,0.5226,0.538,0.5382,0.5382,0.5382,0.5491,0.5601,0.5822,0.5935,0.6161,0.6439,0.6439,0.6386,0.6274,0.6274,0.6274,0.6274,0.6274,0.6274,0.6274,0.6274,0.633,0.6471,0.6683,0.6815,0.6911,0.7193,0.7266,0.7266,0.7266,0.7266,0.7266,0.7266,0.7266,0.7266,0.7266,0.7266,0.7266,0.7266,0.7266,0.7266,0.7266,0.7143,0.7145,0.7355,0.7717,0.824,0.8679,0.925,0.9851,1.0585,1.1317,1.2041,1.2898,1.3617,1.4207,1.4534,1.48,1.4866,1.4866,1.4866,1.4866,1.4866,1.4866,1.4866,1.4866,1.4866,1.4866,1.4866,1.4866,1.4866,1.4866,1.4866,1.4866,1.4866,1.4866,1.4866,0.0,0.0,0.0,0.0,0.0,0.0,0.3517,0.0,0.3824,0.3877,0.404,0.4208,0.4212,0.4236,0.4291,0.4295,0.4371,0.4384,0.4384,0.451,0.4602,0.4689,0.4704,0.4738,0.4772,0.478,0.478,0.4784,0.4784,0.4784,0.4784,0.4784,0.4867,0.5098,0.514,0.5284,0.5375,0.538,0.5382,0.5382,0.5656,0.5822,0.5822,0.6161,0.6439,0.6715,0.6715,0.6548,0.633,0.633,0.633,0.633,0.633,0.633,0.633,0.633,0.6495,0.6746,0.7022,0.7277,0.7557,0.779,0.7869,0.7872,0.7872,0.7872,0.7872,0.7872,0.7872,0.7872,0.7872,0.7872,0.7872,0.7872,0.7872,0.7872,0.7872,0.7627,0.7513,0.7671,0.8295,0.8887,0.9074,0.9984,1.0721,1.0787,1.1912,1.2964,1.335,1.401,1.4534,1.4866,1.4866,1.4866,1.4866,1.4866,1.4866,1.4866,1.4866,1.4866,1.4866,1.4866,1.4866,1.4866,1.4866,1.4866,1.4866,1.4866,1.4866,1.4866,1.4866,1.4866,0.2578,0.0,0.0,0.0,0.0,0.0,0.0,0.0,0.3691,0.382,0.3893,0.3995,0.4061,0.4051,0.413,0.4197,0.4279,0.4336,0.4336,0.4416,0.4483,0.4461,0.4569,0.4645,0.4734,0.4743,0.4769,0.0,0.4784,0.4784,0.4784,0.4784,0.4888,0.5006,0.5098,0.519,0.5282,0.5347,0.5382,0.5382,0.5656,0.5935,0.6161,0.6439,0.6771,0.7046,0.7046,0.7046,0.6935,0.6935,0.6935,0.6935,0.6935,0.6935,0.6935,0.6935,0.699,0.7065,0.7217,0.7385,0.7543,0.7698,0.7804,0.7872,0.7872,0.7872,0.7872,0.7872,0.7872,0.7872,0.7872,0.7872,0.7872,0.7872,0.7872,0.7872,0.7872,0.7997,0.8133,0.806,0.8489,0.9018,0.9741,1.0323,1.1049,1.2045,1.2572,1.3099,1.401,1.4272,1.4534,1.4866,1.4866,1.4866,1.4866,1.4866,1.4866,1.4866,1.4866,1.4866,1.4866,1.4866,1.4866,1.4866,1.4866,1.4866,1.4866,1.4866,1.4866,1.4866,1.4866,1.4866,0.0,0.0,0.0,0.0,0.0,0.0,0.3168,0.3313,0.3497,0.3626,0.3754,0.3859,0.3912,0.3944,0.4012,0.4108,0.4157,0.4214,0.4287,0.4344,0.4346,0.4384,0.4483,0.4551,0.4643,0.4687,0.4728,0.4777,0.4764,0.4784,0.4784,0.4784,0.4877,0.5021,0.5061,0.5153,0.5188,0.5335,0.5437,0.5547,0.5882,0.6161,0.6495,0.6771,0.699,0.721,0.721,0.721,0.721,0.721,0.721,0.721,0.721,0.721,0.721,0.721,0.721,0.7226,0.7293,0.7415,0.7538,0.7663,0.7777,0.7872,0.7872,0.7872,0.7872,0.7872,0.7994,0.8119,0.8119,0.8241,0.8302,0.8302,0.8302,0.8302,0.8302,0.8488,0.8564,0.8441,0.8869,0.9466,1.0274,1.092,1.171,1.2638,1.3161,1.3687,1.4338,1.4539,1.467,1.4866,1.4866,1.4866,1.4866,1.4866,1.4866,1.4866,1.4866,1.4866,1.4866,1.4866,1.4866,1.4866,1.4866,1.4866,1.4866,1.4866,1.4866,1.4866,1.4866,1.4866,0.0,0.0,0.0,0.0,0.0,0.0,0.3095,0.3172,0.3239,0.3436,0.3609,0.3773,0.3773,0.3867,0.3938,0.3948,0.3958,0.4025,0.4244,0.4279,0.4314,0.435,0.4368,0.4457,0.4549,0.463,0.4687,0.4708,0.4738,0.4784,0.4784,0.4784,0.4873,0.4953,0.5097,0.519,0.5228,0.5376,0.5592,0.5877,0.6161,0.6495,0.6715,0.7043,0.721,0.721,0.721,0.721,0.7265,0.7265,0.721,0.721,0.721,0.721,0.721,0.721,0.721,0.7226,0.7279,0.7404,0.7538,0.7646,0.7769,0.7872,0.7872,0.7933,0.7933,0.7994,0.8241,0.843,0.843,0.8674,0.8915,0.8915,0.8976,0.8976,0.8976,0.9037,0.9051,0.8992,0.943,1.0041,1.0732,1.1648,1.2507,1.2902,1.3818,1.4403,1.4469,1.4735,1.4866,1.4866,1.4866,1.4866,1.4866,1.4866,1.4866,1.4866,1.4866,1.4866,1.4866,1.4866,1.4866,1.4866,1.4866,1.4866,1.4866,1.4866,1.4866,1.4866,1.4866,1.4866,0.0,0.0,0.0,0.0,0.0,0.0,0.2863,0.3041,0.3204,0.3239,0.3424,0.3552,0.3552,0.3581,0.3628,0.3657,0.3769,0.3879,0.4019,0.4151,0.4204,0.4222,0.4283,0.4361,0.4453,0.4433,0.4503,0.4698,0.4738,0.4784,0.4784,0.4784,0.4792,0.4861,0.5158,0.5411,0.5503,0.582,0.6024,0.6219,0.6495,0.6659,0.6715,0.7043,0.721,0.721,0.721,0.7324,0.7549,0.7549,0.7379,0.721,0.721,0.721,0.721,0.721,0.721,0.7213,0.7237,0.7334,0.7524,0.7546,0.7698,0.7872,0.7872,0.8058,0.8366,0.8607,0.8732,0.8793,0.8793,0.9037,0.9217,0.9217,0.9396,0.964,0.964,0.9822,1.0056,1.018,1.0185,1.0489,1.1457,1.2243,1.3034,1.3945,1.4272,1.4469,1.48,1.4866,1.4866,1.4866,1.4866,1.4866,1.4866,1.4866,1.4866,1.4866,1.4866,1.4866,1.4866,1.4866,1.4866,1.4866,1.4866,1.4866,1.4866,1.4866,1.4866,1.4866,1.4866,1.4866,0.0,0.0,0.0,0.2703,0.0,0.0,0.0,0.2901,0.3008,0.3081,0.3199,0.3309,0.3354,0.3401,0.346,0.3548,0.3601,0.3665,0.3754,0.3963,0.4104,0.4104,0.4142,0.4204,0.4295,0.4342,0.4507,0.4884,0.4942,0.5036,0.5183,0.5186,0.5186,0.5186,0.5435,0.564,0.5792,0.6006,0.6222,0.6495,0.6659,0.6882,0.716,0.7326,0.749,0.7598,0.7598,0.7657,0.7826,0.7826,0.7823,0.782,0.7654,0.7598,0.7598,0.7598,0.749,0.7379,0.7379,0.7431,0.7519,0.7691,0.7917,0.818,0.8363,0.8488,0.8735,0.9037,0.9217,0.94,0.9582,0.9822,1.0061,1.0061,1.0183,1.0304,1.0304,1.0425,1.0655,1.0947,1.1165,1.1483,1.2068,1.2837,1.3617,1.4272,1.4534,1.4735,1.4866,1.4866,1.4866,1.4866,1.4866,1.4866,1.4866,1.4866,1.4866,1.4866,1.4866,1.4866,1.4866,1.4866,1.4866,1.4866,1.4866,1.4866,1.4866,1.4866,1.4866,1.4866,1.4866,1.4866,0.0,0.0,0.0,0.0,0.0,0.2815,0.0,0.0,0.0,0.3036,0.0,0.0,0.0,0.0,0.0,0.3488,0.0,0.0,0.0,0.3789,0.0,0.3977,0.3999,0.4088,0.4222,0.437,0.4624,0.5065,0.5169,0.5275,0.5553,0.5627,0.5687,0.5687,0.5872,0.6086,0.6217,0.6363,0.6582,0.6935,0.6935,0.7215,0.7662,0.7662,0.7826,0.81,0.81,0.8156,0.8266,0.8266,0.8488,0.8706,0.8266,0.81,0.81,0.81,0.7934,0.7662,0.7662,0.7658,0.7691,0.7982,0.8275,0.8613,0.8976,0.9095,0.9217,0.9518,0.9819,1.0122,1.0425,1.0789,1.1091,1.1091,1.1091,1.1152,1.1152,1.1152,1.1255,1.164,1.218,1.2561,1.2785,1.3492,1.4141,1.4469,1.4735,1.4866,1.4866,1.4866,1.4866,1.4866,1.4866,1.4866,1.4866,1.4866,1.4866,1.4866,1.4866,1.4866,1.4866,1.4866,1.4866,1.4866,1.4866,1.4866,1.4866,1.4866,1.4866,1.4866,1.4866,1.4866,0.0,0.0,0.0,0.0,0.3244,0.0,0.0,0.0,0.3236,0.3277,0.0,0.0,0.0,0.0,0.0,0.0,0.0,0.0,0.3648,0.3811,0.3891,0.3843,0.4027,0.4199,0.4287,0.4676,0.4973,0.5101,0.5334,0.5494,0.5506,0.579,0.5942,0.5942,0.6456,0.6825,0.7059,0.729,0.7582,0.7878,0.7878,0.7878,0.7934,0.7934,0.8156,0.8429,0.8429,0.8764,0.9268,0.9268,0.943,0.9596,0.8761,0.8429,0.8429,0.8429,0.8208,0.7934,0.7934,0.8106,0.8326,0.8326,0.8747,0.9278,0.9579,0.9883,1.0183,1.0547,1.0849,1.1152,1.1152,1.1635,1.2053,1.2053,1.2298,1.2479,1.2479,1.2479,1.2483,1.2565,1.2978,1.3416,1.3473,1.3951,1.4469,1.48,1.4866,1.4866,1.4866,1.4866,1.4866,1.4866,1.4866,1.4866,1.4866,1.4866,1.4866,1.4866,1.4866,1.4866,1.4866,1.4866,1.4866,1.4866,1.4866,1.4866,1.4866,1.4866,1.4866,1.4866,1.4866,1.4866,0.0,0.0,0.0,0.0,0.0,0.0,0.3336,0.0,0.3421,0.0,0.0,0.0,0.0,0.0,0.0,0.0,0.3425,0.0,0.0,0.0,0.3684,0.3904,0.0,0.0,0.4299,0.4636,0.5053,0.5428,0.5696,0.6,0.6363,0.6575,0.6689,0.6689,0.6892,0.7178,0.7519,0.7762,0.8062,0.842,0.8501,0.865,0.8823,0.8823,0.8989,0.9261,0.9482,0.9702,0.9926,1.0091,1.0308,1.0527,1.0139,0.9699,0.9261,0.9261,0.904,0.8823,0.8823,0.8901,0.9056,0.9397,0.9774,1.0243,1.0547,1.0789,1.097,1.1454,1.1696,1.1872,1.2057,1.2298,1.2479,1.2479,1.2599,1.2719,1.2719,1.2719,1.2779,1.296,1.3251,1.3569,1.38,1.4221,1.4562,1.4696,1.486,1.4866,1.4866,1.4866,1.4866,1.4866,1.4866,1.4866,1.4866,1.4866,1.4866,1.4866,1.4866,1.4866,1.4866,1.4866,1.4866,1.4866,1.4866,1.4866,1.4866,1.4866,1.4866,1.4866,1.4866,1.4866,0.4886,0.0,0.0,0.0,0.0,0.0,0.0,0.0,0.0,0.0,0.0,0.0,0.0,0.0,0.0,0.0,0.0,0.3582,0.0,0.3618,0.0,0.0,0.0,0.0,0.0,0.4798,0.5179,0.5791,0.6096,0.6479,0.7026,0.7306,0.7496,0.7534,0.7584,0.7802,0.8153,0.8359,0.8613,0.8925,0.9074,0.9313,0.9655,0.9655,0.9816,1.0143,1.0417,1.0582,1.0692,1.0857,1.1076,1.1236,1.1236,1.0857,1.0253,1.0198,0.9926,0.9655,0.9655,0.9694,0.9888,1.0394,1.0872,1.1212,1.1454,1.1635,1.1756,1.2238,1.2419,1.2539,1.2779,1.2904,1.2964,1.2964,1.2964,1.2964,1.2964,1.2964,1.3024,1.3264,1.3448,1.3615,1.3864,1.427,1.4544,1.4544,1.4666,1.4785,1.4776,1.4851,1.4809,1.4861,1.4866,1.4866,1.4866,1.4866,1.4866,1.4866,1.4866,1.4866,1.4866,1.4866,1.4866,1.4866,1.4866,1.4866,1.4866,1.4866,1.4866,1.4866,1.4866,1.4866,0.0,0.0,0.0,0.4986,0.0,0.0,0.0,0.0,0.4631,0.0,0.0,0.0,0.0,0.0,0.0,0.0,0.0,0.0,0.0,0.0,0.0,0.0,0.0,0.0,0.0,0.5293,0.5534,0.6129,0.6502,0.6837,0.7158,0.7828,0.8223,0.8379,0.8627,0.8857,0.9078,0.9194,0.9353,0.9455,0.968,0.9926,1.0257,1.0257,1.0582,1.1072,1.1072,1.124,1.1568,1.1568,1.1568,1.1568,1.1568,1.1568,1.1514,1.1185,1.0747,1.0257,1.0257,1.0478,1.0794,1.1208,1.1737,1.2178,1.2178,1.2419,1.2659,1.2659,1.2904,1.3144,1.3204,1.3449,1.3688,1.3688,1.3688,1.3688,1.3688,1.3688,1.3688,1.3688,1.3693,1.3698,1.3698,1.4043,1.4322,1.4322,1.4326,1.4407,1.4551,1.4579,1.4654,1.4847,1.4866,1.4866,1.4866,1.4866,1.4866,1.4866,1.4866,1.4866,1.4866,1.4866,1.4866,1.4866,1.4866,1.4866,1.4866,1.4866,1.4866,1.4866,1.4866,1.4866,0.0,0.0,0.6204,0.5959,0.0,0.0,0.0,0.0,0.0,0.0,0.0,0.0,0.0,0.0,0.0,0.0,0.0,0.0,0.0,0.0,0.0,0.0,0.0,0.0,0.0,0.0,0.5768,0.6361,0.6731,0.7316,0.8131,0.8541,0.8855,0.9175,0.9278,0.9454,0.9713,1.001,1.0293,1.0512,1.0816,1.1076,1.1185,1.1185,1.124,1.1459,1.1623,1.1782,1.1896,1.206,1.2114,1.2114,1.2114,1.2114,1.206,1.1618,1.1295,1.1147,1.1274,1.1477,1.1714,1.1963,1.2269,1.2599,1.2779,1.296,1.3084,1.3324,1.3444,1.3504,1.3504,1.3629,1.3688,1.3688,1.3688,1.3688,1.3688,1.3688,1.3688,1.3688,1.3688,1.3688,1.3688,1.3807,1.3948,1.409,1.4227,1.4336,1.4411,1.4421,1.4501,1.4649,1.4673,1.4789,1.4922,1.4866,1.4866,1.4866,1.4866,1.4866,1.4866,1.4866,1.4866,1.4866,1.4866,1.4866,1.4866,1.4866,1.4866,1.4866,1.4866,1.4866,0.7988,0.7608,0.0,0.6988,0.6708,0.0,0.6414,0.0,0.6267,0.0,0.0,0.0,0.0,0.0,0.0,0.0,0.0,0.0,0.0,0.438,0.0,0.0,0.0,0.0,0.0,0.5486,0.5988,0.658,0.7135,0.7815,0.8599,0.9078,0.9444,0.9775,0.9842,0.9969,1.0117,1.0544,1.0832,1.0993,1.1384,1.1623,1.1732,1.1732,1.1787,1.1896,1.206,1.2164,1.2169,1.2332,1.2387,1.2387,1.2387,1.2387,1.2387,1.2005,1.1841,1.175,1.1824,1.2037,1.2334,1.2583,1.2808,1.3084,1.3324,1.3384,1.3449,1.3629,1.3688,1.3688,1.3688,1.3688,1.3688,1.3688,1.3688,1.3688,1.3688,1.3688,1.3688,1.3688,1.3688,1.3688,1.3688,1.3688,1.3736,1.3873,1.4005,1.4118,1.4194,1.4203,1.4284,1.4496,1.4591,1.4649,1.4852,1.4866,1.4866,1.4866,1.4866,1.4866,1.4866,1.4866,1.4866,1.4866,1.4866,1.4866,1.4866,1.4866,1.4866,1.4866,1.4866,1.4866]}]]